<?xml version='1.0' encoding='UTF-8'?><gpx version="1.1" creator="JPX - https://github.com/jenetics/jpx" xmlns="http://www.topografix.com/GPX/1/1"><trk><trkseg><trkpt lat="45.843916605121414" lon="13.561849591075902"><ele>78.0</ele><time>2026-04-03T14:46:03Z</time></trkpt><trkpt lat="45.84374541726483" lon="13.56178224033466"><ele>78.0</ele><time>2026-04-03T14:46:04Z</time></trkpt><trkpt lat="45.84357381981329" lon="13.561703206791627"><ele>78.0</ele><time>2026-04-03T14:46:05Z</time></trkpt><trkpt lat="45.843400262076806" lon="13.56163136207382"><ele>77.33333333333333</ele><time>2026-04-03T14:46:06Z</time></trkpt><trkpt lat="45.8432122286601" lon="13.561559613912188"><ele>76.66666666666666</ele><time>2026-04-03T14:46:07Z</time></trkpt><trkpt lat="45.84301503545305" lon="13.561488706746795"><ele>76.0</ele><time>2026-04-03T14:46:08Z</time></trkpt><trkpt lat="45.84281232136437" lon="13.56143730922644"><ele>75.5</ele><time>2026-04-03T14:46:09Z</time></trkpt><trkpt lat="45.842595447582916" lon="13.561397475501574"><ele>75.0</ele><time>2026-04-03T14:46:10Z</time></trkpt><trkpt lat="45.84233517055727" lon="13.561374104870556"><ele>75.0</ele><time>2026-04-03T14:46:11Z</time></trkpt><trkpt lat="45.842099572851566" lon="13.561365537197167"><ele>75.0</ele><time>2026-04-03T14:46:12Z</time></trkpt><trkpt lat="45.84186916175222" lon="13.561374197123914"><ele>74.0</ele><time>2026-04-03T14:46:13Z</time></trkpt><trkpt lat="45.84163542028754" lon="13.561424732692313"><ele>73.0</ele><time>2026-04-03T14:46:14Z</time></trkpt><trkpt lat="45.84139927291568" lon="13.561496398590963"><ele>73.0</ele><time>2026-04-03T14:46:15Z</time></trkpt><trkpt lat="45.84116952970264" lon="13.561565503447833"><ele>73.0</ele><time>2026-04-03T14:46:16Z</time></trkpt><trkpt lat="45.84095350111191" lon="13.5616543837297"><ele>75.0</ele><time>2026-04-03T14:46:17Z</time></trkpt><trkpt lat="45.840747564857935" lon="13.56176467444166"><ele>77.0</ele><time>2026-04-03T14:46:18Z</time></trkpt><trkpt lat="45.840558507435205" lon="13.56188158608394"><ele>79.0</ele><time>2026-04-03T14:46:19Z</time></trkpt><trkpt lat="45.84036491214143" lon="13.562008322818969"><ele>77.66666666666666</ele><time>2026-04-03T14:46:20Z</time></trkpt><trkpt lat="45.84018105232729" lon="13.562117631992622"><ele>76.33333333333333</ele><time>2026-04-03T14:46:21Z</time></trkpt><trkpt lat="45.84001795317185" lon="13.562248813123992"><ele>75.0</ele><time>2026-04-03T14:46:22Z</time></trkpt><trkpt lat="45.83984170390165" lon="13.562407792759993"><ele>75.0</ele><time>2026-04-03T14:46:23Z</time></trkpt><trkpt lat="45.839662969653894" lon="13.562575668806739"><ele>75.0</ele><time>2026-04-03T14:46:24Z</time></trkpt><trkpt lat="45.83948992218262" lon="13.562757248557364"><ele>75.0</ele><time>2026-04-03T14:46:25Z</time></trkpt><trkpt lat="45.83932156092311" lon="13.562960953163339"><ele>76.66666666666667</ele><time>2026-04-03T14:46:26Z</time></trkpt><trkpt lat="45.83917162587655" lon="13.563160560084944"><ele>78.33333333333334</ele><time>2026-04-03T14:46:27Z</time></trkpt><trkpt lat="45.83903022057235" lon="13.563368529252603"><ele>80.0</ele><time>2026-04-03T14:46:28Z</time></trkpt><trkpt lat="45.83889828605789" lon="13.563582735704536"><ele>77.33333333333334</ele><time>2026-04-03T14:46:29Z</time></trkpt><trkpt lat="45.83877045576178" lon="13.563796170067"><ele>74.66666666666667</ele><time>2026-04-03T14:46:30Z</time></trkpt><trkpt lat="45.83864500460851" lon="13.564008651185809"><ele>72.0</ele><time>2026-04-03T14:46:31Z</time></trkpt><trkpt lat="45.838524247255386" lon="13.564222102428056"><ele>75.0</ele><time>2026-04-03T14:46:32Z</time></trkpt><trkpt lat="45.838399581296635" lon="13.564418389182485"><ele>78.0</ele><time>2026-04-03T14:46:33Z</time></trkpt><trkpt lat="45.83827898510376" lon="13.56460455071904"><ele>81.0</ele><time>2026-04-03T14:46:34Z</time></trkpt><trkpt lat="45.83816487181255" lon="13.564786411716868"><ele>81.0</ele><time>2026-04-03T14:46:35Z</time></trkpt><trkpt lat="45.83807192635366" lon="13.56497262532802"><ele>81.0</ele><time>2026-04-03T14:46:36Z</time></trkpt><trkpt lat="45.83795295465687" lon="13.565140225470572"><ele>81.0</ele><time>2026-04-03T14:46:37Z</time></trkpt><trkpt lat="45.837776536524125" lon="13.565259521254353"><ele>82.0</ele><time>2026-04-03T14:46:38Z</time></trkpt><trkpt lat="45.83760636263896" lon="13.565375190992041"><ele>83.0</ele><time>2026-04-03T14:46:39Z</time></trkpt><trkpt lat="45.837493711896045" lon="13.565511215765806"><ele>84.0</ele><time>2026-04-03T14:46:40Z</time></trkpt><trkpt lat="45.837360926597064" lon="13.56562385034908"><ele>84.0</ele><time>2026-04-03T14:46:41Z</time></trkpt><trkpt lat="45.83724163685171" lon="13.565734923792267"><ele>84.0</ele><time>2026-04-03T14:46:42Z</time></trkpt><trkpt lat="45.83705547071851" lon="13.565795741254538"><ele>84.0</ele><time>2026-04-03T14:46:43Z</time></trkpt><trkpt lat="45.836889089876195" lon="13.565835365704231"><ele>85.0</ele><time>2026-04-03T14:46:44Z</time></trkpt><trkpt lat="45.836719383796165" lon="13.565838306418453"><ele>86.0</ele><time>2026-04-03T14:46:45Z</time></trkpt><trkpt lat="45.83655279647299" lon="13.56581873668989"><ele>87.0</ele><time>2026-04-03T14:46:46Z</time></trkpt><trkpt lat="45.83639595049024" lon="13.565878777856431"><ele>87.0</ele><time>2026-04-03T14:46:47Z</time></trkpt><trkpt lat="45.83623649800552" lon="13.565918516180089"><ele>87.0</ele><time>2026-04-03T14:46:48Z</time></trkpt><trkpt lat="45.83606797111837" lon="13.565939184416425"><ele>87.0</ele><time>2026-04-03T14:46:49Z</time></trkpt><trkpt lat="45.83590196319135" lon="13.565961762813684"><ele>87.0</ele><time>2026-04-03T14:46:50Z</time></trkpt><trkpt lat="45.83573390212099" lon="13.565995593995627"><ele>87.0</ele><time>2026-04-03T14:46:51Z</time></trkpt><trkpt lat="45.835574042384174" lon="13.566029356166132"><ele>87.0</ele><time>2026-04-03T14:46:52Z</time></trkpt><trkpt lat="45.8354170865426" lon="13.566071705276084"><ele>87.0</ele><time>2026-04-03T14:46:53Z</time></trkpt><trkpt lat="45.83528006063753" lon="13.566124149716895"><ele>87.0</ele><time>2026-04-03T14:46:54Z</time></trkpt><trkpt lat="45.83508485887488" lon="13.566267054793451"><ele>87.0</ele><time>2026-04-03T14:46:55Z</time></trkpt><trkpt lat="45.83492685075742" lon="13.566398349030864"><ele>86.66666666666667</ele><time>2026-04-03T14:46:56Z</time></trkpt><trkpt lat="45.83478188814935" lon="13.566553364003209"><ele>86.33333333333334</ele><time>2026-04-03T14:46:57Z</time></trkpt><trkpt lat="45.83464004845886" lon="13.56671347628769"><ele>86.0</ele><time>2026-04-03T14:46:58Z</time></trkpt><trkpt lat="45.83450007191797" lon="13.566867343750452"><ele>86.0</ele><time>2026-04-03T14:46:59Z</time></trkpt><trkpt lat="45.834356702407874" lon="13.567016008693047"><ele>86.0</ele><time>2026-04-03T14:47:00Z</time></trkpt><trkpt lat="45.83421419981663" lon="13.567158447540091"><ele>86.0</ele><time>2026-04-03T14:47:01Z</time></trkpt><trkpt lat="45.83407588055015" lon="13.567302194308404"><ele>85.66666666666667</ele><time>2026-04-03T14:47:02Z</time></trkpt><trkpt lat="45.833940432909245" lon="13.56744231937474"><ele>85.33333333333333</ele><time>2026-04-03T14:47:03Z</time></trkpt><trkpt lat="45.8338165632765" lon="13.567583477402424"><ele>85.0</ele><time>2026-04-03T14:47:04Z</time></trkpt><trkpt lat="45.83369919585618" lon="13.56773298165338"><ele>85.0</ele><time>2026-04-03T14:47:05Z</time></trkpt><trkpt lat="45.833583232124404" lon="13.56789477498216"><ele>85.0</ele><time>2026-04-03T14:47:06.001Z</time></trkpt><trkpt lat="45.83346914091354" lon="13.5680662440544"><ele>85.0</ele><time>2026-04-03T14:47:07.001Z</time></trkpt><trkpt lat="45.83335515266702" lon="13.568238990265044"><ele>85.0</ele><time>2026-04-03T14:47:08.001Z</time></trkpt><trkpt lat="45.833233902759495" lon="13.568409176989352"><ele>85.0</ele><time>2026-04-03T14:47:09.001Z</time></trkpt><trkpt lat="45.8331101846313" lon="13.568578935476015"><ele>85.0</ele><time>2026-04-03T14:47:10.001Z</time></trkpt><trkpt lat="45.83297586239735" lon="13.568737925773924"><ele>84.33333333333333</ele><time>2026-04-03T14:47:11.001Z</time></trkpt><trkpt lat="45.83283340488476" lon="13.568882426354646"><ele>83.66666666666667</ele><time>2026-04-03T14:47:12.001Z</time></trkpt><trkpt lat="45.832679604353636" lon="13.569013187030293"><ele>83.0</ele><time>2026-04-03T14:47:13.001Z</time></trkpt><trkpt lat="45.832523206969235" lon="13.569132564567019"><ele>83.0</ele><time>2026-04-03T14:47:14.001Z</time></trkpt><trkpt lat="45.832360610412884" lon="13.569243322014835"><ele>83.0</ele><time>2026-04-03T14:47:15.001Z</time></trkpt><trkpt lat="45.83219650639827" lon="13.569364709277695"><ele>83.0</ele><time>2026-04-03T14:47:16.001Z</time></trkpt><trkpt lat="45.83204060360337" lon="13.569510670504775"><ele>82.0</ele><time>2026-04-03T14:47:17.001Z</time></trkpt><trkpt lat="45.831889524594125" lon="13.569678619269402"><ele>81.0</ele><time>2026-04-03T14:47:18.001Z</time></trkpt><trkpt lat="45.831745174695094" lon="13.569863333320335"><ele>80.0</ele><time>2026-04-03T14:47:19.001Z</time></trkpt><trkpt lat="45.83160506196631" lon="13.57005893109365"><ele>80.0</ele><time>2026-04-03T14:47:20.001Z</time></trkpt><trkpt lat="45.83146039180723" lon="13.570248162032996"><ele>80.0</ele><time>2026-04-03T14:47:21.001Z</time></trkpt><trkpt lat="45.831311996976446" lon="13.57043256555689"><ele>80.0</ele><time>2026-04-03T14:47:22.001Z</time></trkpt><trkpt lat="45.83116532921636" lon="13.570618612514334"><ele>77.33333333333334</ele><time>2026-04-03T14:47:23.001Z</time></trkpt><trkpt lat="45.83102461952754" lon="13.570800782429895"><ele>74.66666666666667</ele><time>2026-04-03T14:47:24.001Z</time></trkpt><trkpt lat="45.83088688567768" lon="13.570968681195518"><ele>72.0</ele><time>2026-04-03T14:47:25.001Z</time></trkpt><trkpt lat="45.83075200119446" lon="13.571138781653948"><ele>77.33333333333333</ele><time>2026-04-03T14:47:26.001Z</time></trkpt><trkpt lat="45.83062536503636" lon="13.571340386984447"><ele>82.66666666666666</ele><time>2026-04-03T14:47:27.001Z</time></trkpt><trkpt lat="45.830510533343535" lon="13.571561627165368"><ele>88.0</ele><time>2026-04-03T14:47:28.001Z</time></trkpt><trkpt lat="45.83039612561456" lon="13.571786844687255"><ele>88.0</ele><time>2026-04-03T14:47:29.001Z</time></trkpt><trkpt lat="45.830279710420484" lon="13.572007986240667"><ele>88.0</ele><time>2026-04-03T14:47:30.001Z</time></trkpt><trkpt lat="45.830163831542464" lon="13.57222674308785"><ele>88.0</ele><time>2026-04-03T14:47:31.001Z</time></trkpt><trkpt lat="45.8300514402571" lon="13.572434612483297"><ele>84.33333333333333</ele><time>2026-04-03T14:47:32.001Z</time></trkpt><trkpt lat="45.82994186984761" lon="13.572645011827499"><ele>80.66666666666667</ele><time>2026-04-03T14:47:33.001Z</time></trkpt><trkpt lat="45.82983967817594" lon="13.572847981321507"><ele>77.0</ele><time>2026-04-03T14:47:34.001Z</time></trkpt><trkpt lat="45.82973823418451" lon="13.57304921413189"><ele>77.0</ele><time>2026-04-03T14:47:35.001Z</time></trkpt><trkpt lat="45.82963456077895" lon="13.573242367529957"><ele>77.0</ele><time>2026-04-03T14:47:36.001Z</time></trkpt><trkpt lat="45.82953301202343" lon="13.573435123494107"><ele>77.0</ele><time>2026-04-03T14:47:37.001Z</time></trkpt><trkpt lat="45.829415594094385" lon="13.573625385415685"><ele>73.33333333333334</ele><time>2026-04-03T14:47:38.001Z</time></trkpt><trkpt lat="45.82928730980404" lon="13.573809825027658"><ele>69.66666666666667</ele><time>2026-04-03T14:47:39.001Z</time></trkpt><trkpt lat="45.829146516863474" lon="13.573983880001402"><ele>66.0</ele><time>2026-04-03T14:47:40.001Z</time></trkpt><trkpt lat="45.82900019714207" lon="13.574154614453102"><ele>66.0</ele><time>2026-04-03T14:47:41.001Z</time></trkpt><trkpt lat="45.82885695782013" lon="13.574323477577087"><ele>66.0</ele><time>2026-04-03T14:47:42.001Z</time></trkpt><trkpt lat="45.82872160791722" lon="13.57448525282243"><ele>66.0</ele><time>2026-04-03T14:47:43.001Z</time></trkpt><trkpt lat="45.828590181364" lon="13.57464986673855"><ele>63.0</ele><time>2026-04-03T14:47:44.001Z</time></trkpt><trkpt lat="45.82845852752627" lon="13.574821578909873"><ele>60.0</ele><time>2026-04-03T14:47:45.001Z</time></trkpt><trkpt lat="45.828330773631535" lon="13.574998623899518"><ele>57.0</ele><time>2026-04-03T14:47:46.001Z</time></trkpt><trkpt lat="45.8282131903081" lon="13.575184842201898"><ele>60.33333333333333</ele><time>2026-04-03T14:47:47.001Z</time></trkpt><trkpt lat="45.82810083796853" lon="13.57537022088871"><ele>63.666666666666664</ele><time>2026-04-03T14:47:48.001Z</time></trkpt><trkpt lat="45.82799172592324" lon="13.575546198525652"><ele>67.0</ele><time>2026-04-03T14:47:49.001Z</time></trkpt><trkpt lat="45.82788105930468" lon="13.575713000573778"><ele>67.0</ele><time>2026-04-03T14:47:50Z</time></trkpt><trkpt lat="45.827773422764956" lon="13.575882461633046"><ele>67.0</ele><time>2026-04-03T14:47:51Z</time></trkpt><trkpt lat="45.82766097927601" lon="13.576056465035336"><ele>67.0</ele><time>2026-04-03T14:47:52Z</time></trkpt><trkpt lat="45.82754734558003" lon="13.576236656215967"><ele>63.666666666666664</ele><time>2026-04-03T14:47:53Z</time></trkpt><trkpt lat="45.82742757401963" lon="13.576421900300883"><ele>60.33333333333333</ele><time>2026-04-03T14:47:54Z</time></trkpt><trkpt lat="45.827307051314925" lon="13.576606026640471"><ele>57.0</ele><time>2026-04-03T14:47:55Z</time></trkpt><trkpt lat="45.82718572519164" lon="13.576790247792808"><ele>57.0</ele><time>2026-04-03T14:47:56Z</time></trkpt><trkpt lat="45.827064201477796" lon="13.576972574572276"><ele>57.0</ele><time>2026-04-03T14:47:57Z</time></trkpt><trkpt lat="45.82692538077938" lon="13.57713611539537"><ele>57.0</ele><time>2026-04-03T14:47:58Z</time></trkpt><trkpt lat="45.82677468230434" lon="13.577277493713224"><ele>54.66666666666667</ele><time>2026-04-03T14:47:59Z</time></trkpt><trkpt lat="45.82661767251998" lon="13.57739767995603"><ele>52.333333333333336</ele><time>2026-04-03T14:48:00Z</time></trkpt><trkpt lat="45.82644943152334" lon="13.577494816823757"><ele>50.0</ele><time>2026-04-03T14:48:01Z</time></trkpt><trkpt lat="45.826268644103834" lon="13.577546252530222"><ele>50.0</ele><time>2026-04-03T14:48:02Z</time></trkpt><trkpt lat="45.82609339806491" lon="13.577620467884149"><ele>50.0</ele><time>2026-04-03T14:48:03Z</time></trkpt><trkpt lat="45.82591757690418" lon="13.577661747746099"><ele>50.0</ele><time>2026-04-03T14:48:04Z</time></trkpt><trkpt lat="45.82574869727902" lon="13.577713223087747"><ele>50.0</ele><time>2026-04-03T14:48:05Z</time></trkpt><trkpt lat="45.82558578584053" lon="13.57776683688977"><ele>50.0</ele><time>2026-04-03T14:48:06Z</time></trkpt><trkpt lat="45.82542500725724" lon="13.577821058898715"><ele>50.0</ele><time>2026-04-03T14:48:07Z</time></trkpt><trkpt lat="45.82525996473087" lon="13.577881658971316"><ele>48.66666666666667</ele><time>2026-04-03T14:48:08Z</time></trkpt><trkpt lat="45.8250933628746" lon="13.577939747431243"><ele>47.333333333333336</ele><time>2026-04-03T14:48:09Z</time></trkpt><trkpt lat="45.82493102262949" lon="13.57799102746784"><ele>46.0</ele><time>2026-04-03T14:48:10Z</time></trkpt><trkpt lat="45.82477037641752" lon="13.578044764049816"><ele>46.0</ele><time>2026-04-03T14:48:11Z</time></trkpt><trkpt lat="45.82460927576633" lon="13.578095260295408"><ele>46.0</ele><time>2026-04-03T14:48:12Z</time></trkpt><trkpt lat="45.824443450936194" lon="13.57814345845218"><ele>46.0</ele><time>2026-04-03T14:48:13Z</time></trkpt><trkpt lat="45.82427666357142" lon="13.57819547742292"><ele>44.0</ele><time>2026-04-03T14:48:14Z</time></trkpt><trkpt lat="45.824112190192025" lon="13.578246268138814"><ele>42.0</ele><time>2026-04-03T14:48:15Z</time></trkpt><trkpt lat="45.82395208448174" lon="13.578299860742577"><ele>40.0</ele><time>2026-04-03T14:48:16Z</time></trkpt><trkpt lat="45.82379878379939" lon="13.578353111818458"><ele>40.0</ele><time>2026-04-03T14:48:17Z</time></trkpt><trkpt lat="45.82366506542865" lon="13.578398381646982"><ele>40.0</ele><time>2026-04-03T14:48:18Z</time></trkpt><trkpt lat="45.823540484565726" lon="13.57843725377193"><ele>40.0</ele><time>2026-04-03T14:48:19Z</time></trkpt><trkpt lat="45.82341599807256" lon="13.578478803890873"><ele>40.0</ele><time>2026-04-03T14:48:20Z</time></trkpt><trkpt lat="45.82329109210924" lon="13.578522549655604"><ele>39.75</ele><time>2026-04-03T14:48:21Z</time></trkpt><trkpt lat="45.8231649172726" lon="13.57856621550134"><ele>39.5</ele><time>2026-04-03T14:48:22Z</time></trkpt><trkpt lat="45.82303805004077" lon="13.578609036303616"><ele>39.25</ele><time>2026-04-03T14:48:23Z</time></trkpt><trkpt lat="45.8229076972663" lon="13.578651667834064"><ele>39.0</ele><time>2026-04-03T14:48:24Z</time></trkpt><trkpt lat="45.82277494596144" lon="13.578690148568334"><ele>39.0</ele><time>2026-04-03T14:48:25Z</time></trkpt><trkpt lat="45.82263011411622" lon="13.578736262582897"><ele>39.0</ele><time>2026-04-03T14:48:26Z</time></trkpt><trkpt lat="45.8224859617038" lon="13.57878580136627"><ele>39.0</ele><time>2026-04-03T14:48:27Z</time></trkpt><trkpt lat="45.8223431092914" lon="13.57883114560962"><ele>39.0</ele><time>2026-04-03T14:48:28Z</time></trkpt><trkpt lat="45.82220009708057" lon="13.578879097537742"><ele>39.0</ele><time>2026-04-03T14:48:29Z</time></trkpt><trkpt lat="45.82205800241463" lon="13.578925018536307"><ele>39.0</ele><time>2026-04-03T14:48:30Z</time></trkpt><trkpt lat="45.82191788789357" lon="13.57897069225765"><ele>39.0</ele><time>2026-04-03T14:48:31Z</time></trkpt><trkpt lat="45.821782952257955" lon="13.579012857195718"><ele>39.0</ele><time>2026-04-03T14:48:32Z</time></trkpt><trkpt lat="45.82164777580401" lon="13.57905553525"><ele>39.5</ele><time>2026-04-03T14:48:33Z</time></trkpt><trkpt lat="45.82151480764295" lon="13.579099357424301"><ele>40.0</ele><time>2026-04-03T14:48:34Z</time></trkpt><trkpt lat="45.821377783755814" lon="13.579144731742558"><ele>40.5</ele><time>2026-04-03T14:48:35Z</time></trkpt><trkpt lat="45.82124239958153" lon="13.579187499742714"><ele>41.0</ele><time>2026-04-03T14:48:36Z</time></trkpt><trkpt lat="45.821112544446194" lon="13.579233259095664"><ele>41.75</ele><time>2026-04-03T14:48:37Z</time></trkpt><trkpt lat="45.82098152771581" lon="13.57928201992251"><ele>42.5</ele><time>2026-04-03T14:48:38Z</time></trkpt><trkpt lat="45.820858126923945" lon="13.57933311231266"><ele>43.25</ele><time>2026-04-03T14:48:39Z</time></trkpt><trkpt lat="45.82073391293852" lon="13.579385769612413"><ele>44.0</ele><time>2026-04-03T14:48:40Z</time></trkpt><trkpt lat="45.82060959847796" lon="13.579440546009927"><ele>44.0</ele><time>2026-04-03T14:48:41Z</time></trkpt><trkpt lat="45.8204824335198" lon="13.579498727302788"><ele>44.0</ele><time>2026-04-03T14:48:42Z</time></trkpt><trkpt lat="45.82035385628179" lon="13.579554557413037"><ele>44.0</ele><time>2026-04-03T14:48:43Z</time></trkpt><trkpt lat="45.820227517363946" lon="13.579612836794329"><ele>44.0</ele><time>2026-04-03T14:48:44Z</time></trkpt><trkpt lat="45.820098167056265" lon="13.579660105579586"><ele>44.0</ele><time>2026-04-03T14:48:45Z</time></trkpt><trkpt lat="45.8199598969387" lon="13.579694141711231"><ele>44.0</ele><time>2026-04-03T14:48:46Z</time></trkpt><trkpt lat="45.819822702960046" lon="13.579719863871171"><ele>44.0</ele><time>2026-04-03T14:48:47Z</time></trkpt><trkpt lat="45.81967944972888" lon="13.579726326716631"><ele>44.0</ele><time>2026-04-03T14:48:48Z</time></trkpt><trkpt lat="45.81953674779468" lon="13.57972301957604"><ele>44.0</ele><time>2026-04-03T14:48:49Z</time></trkpt><trkpt lat="45.81939321777923" lon="13.579694439417576"><ele>44.0</ele><time>2026-04-03T14:48:50Z</time></trkpt><trkpt lat="45.819248082067936" lon="13.579654379550307"><ele>44.0</ele><time>2026-04-03T14:48:51Z</time></trkpt><trkpt lat="45.81911517523812" lon="13.579599905581926"><ele>44.0</ele><time>2026-04-03T14:48:52Z</time></trkpt><trkpt lat="45.81898660549847" lon="13.579533806502209"><ele>44.75</ele><time>2026-04-03T14:48:53Z</time></trkpt><trkpt lat="45.81887117509694" lon="13.579459691731557"><ele>45.5</ele><time>2026-04-03T14:48:54Z</time></trkpt><trkpt lat="45.81875861920245" lon="13.579369995795581"><ele>46.25</ele><time>2026-04-03T14:48:55Z</time></trkpt><trkpt lat="45.818645774104915" lon="13.57926992037999"><ele>47.0</ele><time>2026-04-03T14:48:56Z</time></trkpt><trkpt lat="45.81853390930231" lon="13.579155799006928"><ele>46.25</ele><time>2026-04-03T14:48:57Z</time></trkpt><trkpt lat="45.81842886408996" lon="13.579026031606638"><ele>45.5</ele><time>2026-04-03T14:48:58Z</time></trkpt><trkpt lat="45.8183277085612" lon="13.578879893211543"><ele>44.75</ele><time>2026-04-03T14:48:59Z</time></trkpt><trkpt lat="45.818235253760214" lon="13.578723917209542"><ele>44.0</ele><time>2026-04-03T14:49:00Z</time></trkpt><trkpt lat="45.81814927809337" lon="13.57855647820304"><ele>44.0</ele><time>2026-04-03T14:49:01Z</time></trkpt><trkpt lat="45.81807311480032" lon="13.578375588362046"><ele>44.0</ele><time>2026-04-03T14:49:02Z</time></trkpt><trkpt lat="45.818004181997935" lon="13.578186484065826"><ele>44.0</ele><time>2026-04-03T14:49:03Z</time></trkpt><trkpt lat="45.817932842997166" lon="13.577998590855374"><ele>44.0</ele><time>2026-04-03T14:49:04Z</time></trkpt><trkpt lat="45.817870978017886" lon="13.577793956651291"><ele>43.666666666666664</ele><time>2026-04-03T14:49:05Z</time></trkpt><trkpt lat="45.81778892142488" lon="13.577605224298756"><ele>43.333333333333336</ele><time>2026-04-03T14:49:06Z</time></trkpt><trkpt lat="45.8176906778861" lon="13.577436274844416"><ele>43.0</ele><time>2026-04-03T14:49:07Z</time></trkpt><trkpt lat="45.81760249608949" lon="13.577247578043838"><ele>43.0</ele><time>2026-04-03T14:49:08Z</time></trkpt><trkpt lat="45.81749949171964" lon="13.577051802446324"><ele>43.0</ele><time>2026-04-03T14:49:09Z</time></trkpt><trkpt lat="45.817406721071876" lon="13.576838756785797"><ele>43.0</ele><time>2026-04-03T14:49:10Z</time></trkpt><trkpt lat="45.817289340617755" lon="13.57666106746698"><ele>43.333333333333336</ele><time>2026-04-03T14:49:11Z</time></trkpt><trkpt lat="45.81718751638402" lon="13.57647467114308"><ele>43.666666666666664</ele><time>2026-04-03T14:49:12.001Z</time></trkpt><trkpt lat="45.81708964045299" lon="13.57630259768412"><ele>44.0</ele><time>2026-04-03T14:49:13.001Z</time></trkpt><trkpt lat="45.816991289271094" lon="13.576142184476309"><ele>43.666666666666664</ele><time>2026-04-03T14:49:14.001Z</time></trkpt><trkpt lat="45.81688859435853" lon="13.575982958056457"><ele>43.333333333333336</ele><time>2026-04-03T14:49:15.001Z</time></trkpt><trkpt lat="45.81677659505825" lon="13.575809885434255"><ele>43.0</ele><time>2026-04-03T14:49:16.001Z</time></trkpt><trkpt lat="45.81666427582604" lon="13.575642667408125"><ele>43.0</ele><time>2026-04-03T14:49:17.001Z</time></trkpt><trkpt lat="45.816548720524594" lon="13.57547722007706"><ele>43.0</ele><time>2026-04-03T14:49:18.001Z</time></trkpt><trkpt lat="45.816431484853105" lon="13.575312484629379"><ele>43.0</ele><time>2026-04-03T14:49:19.001Z</time></trkpt><trkpt lat="45.816324813432416" lon="13.575131143670955"><ele>42.66666666666667</ele><time>2026-04-03T14:49:20.001Z</time></trkpt><trkpt lat="45.81619627387006" lon="13.574979335664029"><ele>42.333333333333336</ele><time>2026-04-03T14:49:21.001Z</time></trkpt><trkpt lat="45.816080794490524" lon="13.574807785894563"><ele>42.0</ele><time>2026-04-03T14:49:22.001Z</time></trkpt><trkpt lat="45.815965875945025" lon="13.574642682985704"><ele>42.666666666666664</ele><time>2026-04-03T14:49:23.001Z</time></trkpt><trkpt lat="45.81585177311636" lon="13.574480121415863"><ele>43.33333333333333</ele><time>2026-04-03T14:49:24.001Z</time></trkpt><trkpt lat="45.815734714684126" lon="13.574320899242236"><ele>44.0</ele><time>2026-04-03T14:49:25.001Z</time></trkpt><trkpt lat="45.815610827800626" lon="13.574171139858105"><ele>44.0</ele><time>2026-04-03T14:49:26.001Z</time></trkpt><trkpt lat="45.81547454064005" lon="13.574042948072204"><ele>44.0</ele><time>2026-04-03T14:49:27.001Z</time></trkpt><trkpt lat="45.81532690093861" lon="13.573942113423584"><ele>44.0</ele><time>2026-04-03T14:49:28.001Z</time></trkpt><trkpt lat="45.81517311492643" lon="13.573867373259269"><ele>42.33333333333333</ele><time>2026-04-03T14:49:29.001Z</time></trkpt><trkpt lat="45.815015660045255" lon="13.57381383388124"><ele>40.666666666666664</ele><time>2026-04-03T14:49:30.001Z</time></trkpt><trkpt lat="45.81485298928901" lon="13.573784975036148"><ele>39.0</ele><time>2026-04-03T14:49:31.001Z</time></trkpt><trkpt lat="45.814680346473786" lon="13.573784172836572"><ele>39.0</ele><time>2026-04-03T14:49:32.001Z</time></trkpt><trkpt lat="45.814504755529555" lon="13.573812416709936"><ele>39.0</ele><time>2026-04-03T14:49:33.001Z</time></trkpt><trkpt lat="45.81433224827176" lon="13.5738732704751"><ele>39.0</ele><time>2026-04-03T14:49:34.001Z</time></trkpt><trkpt lat="45.814164199544436" lon="13.573953414623109"><ele>40.333333333333336</ele><time>2026-04-03T14:49:35.001Z</time></trkpt><trkpt lat="45.81401519269869" lon="13.57407446396221"><ele>41.66666666666667</ele><time>2026-04-03T14:49:36.001Z</time></trkpt><trkpt lat="45.81386672298618" lon="13.574205513992881"><ele>43.0</ele><time>2026-04-03T14:49:37.001Z</time></trkpt><trkpt lat="45.813726136839456" lon="13.574330883258794"><ele>43.0</ele><time>2026-04-03T14:49:38.001Z</time></trkpt><trkpt lat="45.81358186319659" lon="13.574451761663072"><ele>43.0</ele><time>2026-04-03T14:49:39.001Z</time></trkpt><trkpt lat="45.813435297282695" lon="13.57457350019828"><ele>43.0</ele><time>2026-04-03T14:49:40.001Z</time></trkpt><trkpt lat="45.81329192776364" lon="13.574695701462858"><ele>44.333333333333336</ele><time>2026-04-03T14:49:41.001Z</time></trkpt><trkpt lat="45.81315470092435" lon="13.574815066912999"><ele>45.666666666666664</ele><time>2026-04-03T14:49:42.001Z</time></trkpt><trkpt lat="45.81302662519325" lon="13.574926577082358"><ele>47.0</ele><time>2026-04-03T14:49:43.001Z</time></trkpt><trkpt lat="45.812902680801486" lon="13.57503330146693"><ele>47.0</ele><time>2026-04-03T14:49:44.001Z</time></trkpt><trkpt lat="45.8127782774366" lon="13.57514129576"><ele>47.0</ele><time>2026-04-03T14:49:45.001Z</time></trkpt><trkpt lat="45.81265459860704" lon="13.575257968690156"><ele>47.0</ele><time>2026-04-03T14:49:46.001Z</time></trkpt><trkpt lat="45.81253603033815" lon="13.575389961099358"><ele>47.0</ele><time>2026-04-03T14:49:47.001Z</time></trkpt><trkpt lat="45.81242472489616" lon="13.575541013117231"><ele>47.33333333333333</ele><time>2026-04-03T14:49:48.001Z</time></trkpt><trkpt lat="45.81231457981946" lon="13.575703960277995"><ele>47.666666666666664</ele><time>2026-04-03T14:49:49.001Z</time></trkpt><trkpt lat="45.81219800993385" lon="13.575888259570679"><ele>48.0</ele><time>2026-04-03T14:49:50.001Z</time></trkpt><trkpt lat="45.81209056122697" lon="13.57609541156364"><ele>46.666666666666664</ele><time>2026-04-03T14:49:51.001Z</time></trkpt><trkpt lat="45.81199857699583" lon="13.576310085942698"><ele>45.33333333333333</ele><time>2026-04-03T14:49:52.001Z</time></trkpt><trkpt lat="45.81192140832605" lon="13.576525090141809"><ele>44.0</ele><time>2026-04-03T14:49:53.001Z</time></trkpt><trkpt lat="45.81184917447194" lon="13.576746321773168"><ele>48.0</ele><time>2026-04-03T14:49:54.001Z</time></trkpt><trkpt lat="45.81177559474378" lon="13.57696350820208"><ele>52.0</ele><time>2026-04-03T14:49:55.001Z</time></trkpt><trkpt lat="45.81170588447547" lon="13.577176043789146"><ele>56.0</ele><time>2026-04-03T14:49:56.001Z</time></trkpt><trkpt lat="45.811644702037164" lon="13.577384755325856"><ele>56.0</ele><time>2026-04-03T14:49:57.001Z</time></trkpt><trkpt lat="45.81158816127318" lon="13.57759027533472"><ele>56.0</ele><time>2026-04-03T14:49:58.001Z</time></trkpt><trkpt lat="45.81153344061229" lon="13.577793347220663"><ele>56.0</ele><time>2026-04-03T14:49:59.001Z</time></trkpt><trkpt lat="45.81147522974959" lon="13.577992137837466"><ele>54.75</ele><time>2026-04-03T14:50:00.001Z</time></trkpt><trkpt lat="45.81141932740758" lon="13.578186642144864"><ele>53.5</ele><time>2026-04-03T14:50:01.001Z</time></trkpt><trkpt lat="45.811362134767684" lon="13.578381809313704"><ele>52.25</ele><time>2026-04-03T14:50:02.001Z</time></trkpt><trkpt lat="45.81130187182554" lon="13.578573717203016"><ele>51.0</ele><time>2026-04-03T14:50:03.001Z</time></trkpt><trkpt lat="45.811236441864786" lon="13.578762630201137"><ele>49.75</ele><time>2026-04-03T14:50:04.001Z</time></trkpt><trkpt lat="45.811158077000236" lon="13.57894193591207"><ele>48.5</ele><time>2026-04-03T14:50:05.001Z</time></trkpt><trkpt lat="45.81106201019236" lon="13.579106543589116"><ele>47.25</ele><time>2026-04-03T14:50:06Z</time></trkpt><trkpt lat="45.81094881223454" lon="13.579248243242665"><ele>46.0</ele><time>2026-04-03T14:50:07Z</time></trkpt><trkpt lat="45.81082478959782" lon="13.579371853287997"><ele>50.0</ele><time>2026-04-03T14:50:08Z</time></trkpt><trkpt lat="45.81069599738622" lon="13.579484731501871"><ele>54.0</ele><time>2026-04-03T14:50:09Z</time></trkpt><trkpt lat="45.81056950334274" lon="13.579598337020412"><ele>58.0</ele><time>2026-04-03T14:50:10Z</time></trkpt><trkpt lat="45.810446391707295" lon="13.57972036185898"><ele>58.0</ele><time>2026-04-03T14:50:11Z</time></trkpt><trkpt lat="45.810319303973365" lon="13.579845648075795"><ele>58.0</ele><time>2026-04-03T14:50:12Z</time></trkpt><trkpt lat="45.81018894590884" lon="13.579954960568923"><ele>58.0</ele><time>2026-04-03T14:50:13Z</time></trkpt><trkpt lat="45.81003923885886" lon="13.580001518489627"><ele>60.0</ele><time>2026-04-03T14:50:14Z</time></trkpt><trkpt lat="45.809893802526986" lon="13.580049035981277"><ele>62.0</ele><time>2026-04-03T14:50:15Z</time></trkpt><trkpt lat="45.80975967669715" lon="13.580068550456218"><ele>64.0</ele><time>2026-04-03T14:50:16Z</time></trkpt><trkpt lat="45.80963553295002" lon="13.580096474248231"><ele>66.0</ele><time>2026-04-03T14:50:17Z</time></trkpt><trkpt lat="45.80949696531351" lon="13.580144398801782"><ele>66.0</ele><time>2026-04-03T14:50:18Z</time></trkpt><trkpt lat="45.80933459562079" lon="13.580172125962614"><ele>66.0</ele><time>2026-04-03T14:50:19Z</time></trkpt><trkpt lat="45.809158480735015" lon="13.580231795970837"><ele>66.0</ele><time>2026-04-03T14:50:20Z</time></trkpt><trkpt lat="45.80896787395891" lon="13.58027885819901"><ele>66.33333333333333</ele><time>2026-04-03T14:50:21Z</time></trkpt><trkpt lat="45.80876730651357" lon="13.580340603070182"><ele>66.66666666666666</ele><time>2026-04-03T14:50:22Z</time></trkpt><trkpt lat="45.80855206909972" lon="13.580409920385117"><ele>67.0</ele><time>2026-04-03T14:50:23Z</time></trkpt><trkpt lat="45.80832567520772" lon="13.580489409486484"><ele>68.0</ele><time>2026-04-03T14:50:24Z</time></trkpt><trkpt lat="45.80808605198637" lon="13.580573070476143"><ele>69.0</ele><time>2026-04-03T14:50:25Z</time></trkpt><trkpt lat="45.80785193918811" lon="13.580650875146805"><ele>64.5</ele><time>2026-04-03T14:50:26Z</time></trkpt><trkpt lat="45.80762850909429" lon="13.58072714573303"><ele>60.0</ele><time>2026-04-03T14:50:27Z</time></trkpt><trkpt lat="45.807409435577014" lon="13.58080320021306"><ele>60.0</ele><time>2026-04-03T14:50:28Z</time></trkpt><trkpt lat="45.80720517589997" lon="13.580895009361814"><ele>60.0</ele><time>2026-04-03T14:50:29Z</time></trkpt><trkpt lat="45.80701507475547" lon="13.581047541185743"><ele>60.0</ele><time>2026-04-03T14:50:30Z</time></trkpt><trkpt lat="45.80682470386778" lon="13.581270133797462"><ele>60.0</ele><time>2026-04-03T14:50:31Z</time></trkpt><trkpt lat="45.80668148515736" lon="13.581546702578828"><ele>60.0</ele><time>2026-04-03T14:50:32Z</time></trkpt><trkpt lat="45.806548248441175" lon="13.581775554524578"><ele>60.0</ele><time>2026-04-03T14:50:33Z</time></trkpt><trkpt lat="45.80641863642335" lon="13.581939750294016"><ele>61.66666666666667</ele><time>2026-04-03T14:50:34Z</time></trkpt><trkpt lat="45.80625599087117" lon="13.58202655269059"><ele>63.333333333333336</ele><time>2026-04-03T14:50:35Z</time></trkpt><trkpt lat="45.806083553960775" lon="13.582081976839623"><ele>65.0</ele><time>2026-04-03T14:50:36Z</time></trkpt><trkpt lat="45.805906667133875" lon="13.582091384657108"><ele>65.0</ele><time>2026-04-03T14:50:37Z</time></trkpt><trkpt lat="45.805716643968815" lon="13.582099503393005"><ele>65.0</ele><time>2026-04-03T14:50:38Z</time></trkpt><trkpt lat="45.80551302239611" lon="13.58206604564184"><ele>65.0</ele><time>2026-04-03T14:50:39Z</time></trkpt><trkpt lat="45.8053130981677" lon="13.582051200288763"><ele>64.33333333333334</ele><time>2026-04-03T14:50:40Z</time></trkpt><trkpt lat="45.80511666047508" lon="13.582050738367213"><ele>63.66666666666667</ele><time>2026-04-03T14:50:41Z</time></trkpt><trkpt lat="45.80494124843456" lon="13.582061158149429"><ele>63.0</ele><time>2026-04-03T14:50:42Z</time></trkpt><trkpt lat="45.80477310021487" lon="13.582122742549503"><ele>63.0</ele><time>2026-04-03T14:50:43Z</time></trkpt><trkpt lat="45.804633556763484" lon="13.582236714631179"><ele>63.0</ele><time>2026-04-03T14:50:44Z</time></trkpt><trkpt lat="45.80451142926436" lon="13.582387984014607"><ele>63.0</ele><time>2026-04-03T14:50:45Z</time></trkpt><trkpt lat="45.80443776805484" lon="13.582566797122054"><ele>63.0</ele><time>2026-04-03T14:50:46Z</time></trkpt><trkpt lat="45.80437258929665" lon="13.582751755796194"><ele>63.0</ele><time>2026-04-03T14:50:47Z</time></trkpt><trkpt lat="45.80433038645438" lon="13.582962276380979"><ele>63.0</ele><time>2026-04-03T14:50:48Z</time></trkpt><trkpt lat="45.804300096261294" lon="13.583180056590525"><ele>59.0</ele><time>2026-04-03T14:50:49Z</time></trkpt><trkpt lat="45.80429973831267" lon="13.583400591261027"><ele>55.0</ele><time>2026-04-03T14:50:50Z</time></trkpt><trkpt lat="45.80430631442855" lon="13.58361520631258"><ele>51.0</ele><time>2026-04-03T14:50:51Z</time></trkpt><trkpt lat="45.80429959367061" lon="13.583836326044281"><ele>51.0</ele><time>2026-04-03T14:50:52Z</time></trkpt><trkpt lat="45.80428481652205" lon="13.584041760112534"><ele>51.0</ele><time>2026-04-03T14:50:53Z</time></trkpt><trkpt lat="45.80427217810706" lon="13.584242373603443"><ele>51.0</ele><time>2026-04-03T14:50:54Z</time></trkpt><trkpt lat="45.80424481318033" lon="13.58445094247938"><ele>51.0</ele><time>2026-04-03T14:50:55Z</time></trkpt><trkpt lat="45.80419189306289" lon="13.584652691473067"><ele>53.0</ele><time>2026-04-03T14:50:56Z</time></trkpt><trkpt lat="45.80410860637257" lon="13.58484003805196"><ele>55.0</ele><time>2026-04-03T14:50:57Z</time></trkpt><trkpt lat="45.80401235135873" lon="13.585003427134984"><ele>57.0</ele><time>2026-04-03T14:50:58Z</time></trkpt><trkpt lat="45.80389399572471" lon="13.585112001419867"><ele>59.0</ele><time>2026-04-03T14:50:59Z</time></trkpt><trkpt lat="45.80378283221522" lon="13.585246379621303"><ele>57.0</ele><time>2026-04-03T14:51:00Z</time></trkpt><trkpt lat="45.80364823748242" lon="13.585346653887992"><ele>55.0</ele><time>2026-04-03T14:51:01Z</time></trkpt><trkpt lat="45.80351680730944" lon="13.585466293718564"><ele>53.0</ele><time>2026-04-03T14:51:02Z</time></trkpt><trkpt lat="45.80337786180492" lon="13.585598910990678"><ele>53.0</ele><time>2026-04-03T14:51:03Z</time></trkpt><trkpt lat="45.80323674721651" lon="13.585737935302419"><ele>53.0</ele><time>2026-04-03T14:51:04Z</time></trkpt><trkpt lat="45.80310754263861" lon="13.585870055533249"><ele>53.0</ele><time>2026-04-03T14:51:05Z</time></trkpt><trkpt lat="45.802983448505586" lon="13.58599648548393"><ele>53.0</ele><time>2026-04-03T14:51:06Z</time></trkpt><trkpt lat="45.80286356677853" lon="13.586109807330505"><ele>53.0</ele><time>2026-04-03T14:51:07Z</time></trkpt><trkpt lat="45.802738234274315" lon="13.586225788556943"><ele>53.0</ele><time>2026-04-03T14:51:08Z</time></trkpt><trkpt lat="45.802611126477714" lon="13.586346175248298"><ele>53.0</ele><time>2026-04-03T14:51:09Z</time></trkpt><trkpt lat="45.80248682621068" lon="13.586470477439098"><ele>52.75</ele><time>2026-04-03T14:51:10Z</time></trkpt><trkpt lat="45.802376611728924" lon="13.586613676993037"><ele>52.5</ele><time>2026-04-03T14:51:11Z</time></trkpt><trkpt lat="45.80227669444608" lon="13.586766047011098"><ele>52.25</ele><time>2026-04-03T14:51:12Z</time></trkpt><trkpt lat="45.802183088492505" lon="13.586919873526632"><ele>52.0</ele><time>2026-04-03T14:51:13Z</time></trkpt><trkpt lat="45.80209002608484" lon="13.587069538104815"><ele>51.0</ele><time>2026-04-03T14:51:14Z</time></trkpt><trkpt lat="45.80199196416669" lon="13.587213835117813"><ele>50.0</ele><time>2026-04-03T14:51:15Z</time></trkpt><trkpt lat="45.80189142402635" lon="13.587351560174325"><ele>49.0</ele><time>2026-04-03T14:51:16Z</time></trkpt><trkpt lat="45.80179955104229" lon="13.58748981101502"><ele>48.0</ele><time>2026-04-03T14:51:17Z</time></trkpt><trkpt lat="45.80170835432603" lon="13.58762523061665"><ele>48.0</ele><time>2026-04-03T14:51:18.001Z</time></trkpt><trkpt lat="45.80162352309713" lon="13.587737540821477"><ele>48.0</ele><time>2026-04-03T14:51:19.001Z</time></trkpt><trkpt lat="45.80152859926496" lon="13.587797072356832"><ele>48.0</ele><time>2026-04-03T14:51:20.001Z</time></trkpt><trkpt lat="45.801418279395314" lon="13.587835757510208"><ele>48.0</ele><time>2026-04-03T14:51:21.001Z</time></trkpt><trkpt lat="45.80130682965465" lon="13.58781368613027"><ele>48.0</ele><time>2026-04-03T14:51:22.001Z</time></trkpt><trkpt lat="45.8011982265252" lon="13.58780144480416"><ele>48.0</ele><time>2026-04-03T14:51:23.001Z</time></trkpt><trkpt lat="45.80110039040545" lon="13.587741331338393"><ele>48.0</ele><time>2026-04-03T14:51:24.001Z</time></trkpt><trkpt lat="45.80101368648989" lon="13.587688595184353"><ele>48.0</ele><time>2026-04-03T14:51:25.001Z</time></trkpt><trkpt lat="45.80093059377777" lon="13.58763549673483"><ele>48.0</ele><time>2026-04-03T14:51:26.001Z</time></trkpt><trkpt lat="45.800852142551186" lon="13.587544331106074"><ele>48.0</ele><time>2026-04-03T14:51:27.001Z</time></trkpt><trkpt lat="45.80083150182716" lon="13.58738382231905"><ele>48.2</ele><time>2026-04-03T14:51:28.001Z</time></trkpt><trkpt lat="45.80079304220556" lon="13.587241892039236"><ele>48.4</ele><time>2026-04-03T14:51:29.001Z</time></trkpt><trkpt lat="45.80073448714436" lon="13.587149075362127"><ele>48.6</ele><time>2026-04-03T14:51:30.001Z</time></trkpt><trkpt lat="45.80067425454823" lon="13.587063282020193"><ele>48.800000000000004</ele><time>2026-04-03T14:51:31.001Z</time></trkpt><trkpt lat="45.800578530315605" lon="13.586999109339514"><ele>49.0</ele><time>2026-04-03T14:51:32.001Z</time></trkpt><trkpt lat="45.80047184741905" lon="13.586958456413342"><ele>46.6</ele><time>2026-04-03T14:51:33.001Z</time></trkpt><trkpt lat="45.80036569606843" lon="13.586940792589147"><ele>44.2</ele><time>2026-04-03T14:51:34.001Z</time></trkpt><trkpt lat="45.80025990938229" lon="13.586925637195469"><ele>41.800000000000004</ele><time>2026-04-03T14:51:35.001Z</time></trkpt><trkpt lat="45.80015350050928" lon="13.58689922014139"><ele>39.400000000000006</ele><time>2026-04-03T14:51:36.001Z</time></trkpt><trkpt lat="45.80004658265922" lon="13.586867890401958"><ele>37.0</ele><time>2026-04-03T14:51:37.001Z</time></trkpt><trkpt lat="45.79993745217936" lon="13.58685061844698"><ele>37.0</ele><time>2026-04-03T14:51:38.001Z</time></trkpt><trkpt lat="45.799824676279265" lon="13.58686717465387"><ele>37.0</ele><time>2026-04-03T14:51:39.001Z</time></trkpt><trkpt lat="45.79972597962824" lon="13.58693504715893"><ele>37.0</ele><time>2026-04-03T14:51:40.001Z</time></trkpt><trkpt lat="45.799653501572905" lon="13.58702528101747"><ele>37.0</ele><time>2026-04-03T14:51:41.001Z</time></trkpt><trkpt lat="45.79959729537025" lon="13.587123586233187"><ele>37.0</ele><time>2026-04-03T14:51:42.001Z</time></trkpt><trkpt lat="45.799549097588624" lon="13.587241327414285"><ele>37.2</ele><time>2026-04-03T14:51:43.001Z</time></trkpt><trkpt lat="45.79950048949648" lon="13.58736893165693"><ele>37.400000000000006</ele><time>2026-04-03T14:51:44.001Z</time></trkpt><trkpt lat="45.79944555474865" lon="13.58749140679589"><ele>37.599999999999994</ele><time>2026-04-03T14:51:45.001Z</time></trkpt><trkpt lat="45.799389065186205" lon="13.587611394316218"><ele>37.8</ele><time>2026-04-03T14:51:46.001Z</time></trkpt><trkpt lat="45.79932520546013" lon="13.587739294581148"><ele>38.0</ele><time>2026-04-03T14:51:47.001Z</time></trkpt><trkpt lat="45.79924670020985" lon="13.587861982181103"><ele>41.0</ele><time>2026-04-03T14:51:48.001Z</time></trkpt><trkpt lat="45.79913986109856" lon="13.587969081104921"><ele>44.0</ele><time>2026-04-03T14:51:49.001Z</time></trkpt><trkpt lat="45.79902086200555" lon="13.588050797820818"><ele>47.0</ele><time>2026-04-03T14:51:50.001Z</time></trkpt><trkpt lat="45.79888153444368" lon="13.588126844296818"><ele>50.0</ele><time>2026-04-03T14:51:51.001Z</time></trkpt><trkpt lat="45.79873224675635" lon="13.588196397457974"><ele>50.0</ele><time>2026-04-03T14:51:52.001Z</time></trkpt><trkpt lat="45.79858458770399" lon="13.588273692979524"><ele>50.0</ele><time>2026-04-03T14:51:53.001Z</time></trkpt><trkpt lat="45.79843284889794" lon="13.58835255976694"><ele>50.0</ele><time>2026-04-03T14:51:54.001Z</time></trkpt><trkpt lat="45.79828046897985" lon="13.588430321009971"><ele>47.0</ele><time>2026-04-03T14:51:55.001Z</time></trkpt><trkpt lat="45.79812144515502" lon="13.588506641534915"><ele>44.0</ele><time>2026-04-03T14:51:56Z</time></trkpt><trkpt lat="45.797964090589915" lon="13.588587828920998"><ele>41.0</ele><time>2026-04-03T14:51:57Z</time></trkpt><trkpt lat="45.79780895848062" lon="13.588670189342057"><ele>42.0</ele><time>2026-04-03T14:51:58Z</time></trkpt><trkpt lat="45.79765112140339" lon="13.588742519185823"><ele>43.0</ele><time>2026-04-03T14:51:59Z</time></trkpt><trkpt lat="45.79750509507157" lon="13.58880847540245"><ele>44.0</ele><time>2026-04-03T14:52:00Z</time></trkpt><trkpt lat="45.79737370362162" lon="13.58886814280353"><ele>44.0</ele><time>2026-04-03T14:52:01Z</time></trkpt><trkpt lat="45.797245487849324" lon="13.588907989817558"><ele>44.0</ele><time>2026-04-03T14:52:02Z</time></trkpt><trkpt lat="45.7971129852227" lon="13.588890708387858"><ele>44.0</ele><time>2026-04-03T14:52:03Z</time></trkpt><trkpt lat="45.79698629481019" lon="13.588825595360298"><ele>44.0</ele><time>2026-04-03T14:52:04Z</time></trkpt><trkpt lat="45.79688667811514" lon="13.588694436894011"><ele>42.75</ele><time>2026-04-03T14:52:05Z</time></trkpt><trkpt lat="45.79678060335852" lon="13.588555837716532"><ele>41.5</ele><time>2026-04-03T14:52:06Z</time></trkpt><trkpt lat="45.79669492923569" lon="13.588393295569448"><ele>40.25</ele><time>2026-04-03T14:52:07Z</time></trkpt><trkpt lat="45.79659968848316" lon="13.588233396386903"><ele>39.0</ele><time>2026-04-03T14:52:08Z</time></trkpt><trkpt lat="45.79650092498152" lon="13.58807601713647"><ele>39.0</ele><time>2026-04-03T14:52:09Z</time></trkpt><trkpt lat="45.79641198760534" lon="13.587925168808795"><ele>39.0</ele><time>2026-04-03T14:52:10Z</time></trkpt><trkpt lat="45.796317238578375" lon="13.587768412445733"><ele>39.0</ele><time>2026-04-03T14:52:11Z</time></trkpt><trkpt lat="45.79620403287505" lon="13.587628867035608"><ele>39.0</ele><time>2026-04-03T14:52:12Z</time></trkpt><trkpt lat="45.796087881091154" lon="13.587517925001796"><ele>39.5</ele><time>2026-04-03T14:52:13Z</time></trkpt><trkpt lat="45.795964678918864" lon="13.587419056927327"><ele>40.0</ele><time>2026-04-03T14:52:14Z</time></trkpt><trkpt lat="45.795838667752804" lon="13.587327525088128"><ele>40.5</ele><time>2026-04-03T14:52:15Z</time></trkpt><trkpt lat="45.79572070523766" lon="13.587218626850689"><ele>41.0</ele><time>2026-04-03T14:52:16Z</time></trkpt><trkpt lat="45.79559871397178" lon="13.587121833120793"><ele>41.0</ele><time>2026-04-03T14:52:17Z</time></trkpt><trkpt lat="45.79547433587598" lon="13.587046186548385"><ele>41.0</ele><time>2026-04-03T14:52:18Z</time></trkpt><trkpt lat="45.795348144261496" lon="13.586992934010842"><ele>41.0</ele><time>2026-04-03T14:52:19Z</time></trkpt><trkpt lat="45.79521826413031" lon="13.586976156185838"><ele>41.0</ele><time>2026-04-03T14:52:20Z</time></trkpt><trkpt lat="45.79508389633026" lon="13.586992111711504"><ele>41.0</ele><time>2026-04-03T14:52:21Z</time></trkpt><trkpt lat="45.794952009697404" lon="13.587037290343943"><ele>41.0</ele><time>2026-04-03T14:52:22Z</time></trkpt><trkpt lat="45.79482481551201" lon="13.587108109500617"><ele>41.0</ele><time>2026-04-03T14:52:23Z</time></trkpt><trkpt lat="45.79470444951482" lon="13.58721221547046"><ele>41.0</ele><time>2026-04-03T14:52:24Z</time></trkpt><trkpt lat="45.79458740390593" lon="13.587372296829123"><ele>41.0</ele><time>2026-04-03T14:52:25Z</time></trkpt><trkpt lat="45.794460472234206" lon="13.587585352128674"><ele>41.0</ele><time>2026-04-03T14:52:26Z</time></trkpt><trkpt lat="45.79431487177593" lon="13.58784170923918"><ele>41.0</ele><time>2026-04-03T14:52:27Z</time></trkpt><trkpt lat="45.79415158085345" lon="13.58813765395333"><ele>39.5</ele><time>2026-04-03T14:52:28Z</time></trkpt><trkpt lat="45.79397449123602" lon="13.588457777277778"><ele>38.0</ele><time>2026-04-03T14:52:29Z</time></trkpt><trkpt lat="45.793793944609725" lon="13.588798385982411"><ele>38.0</ele><time>2026-04-03T14:52:30Z</time></trkpt><trkpt lat="45.793610546476856" lon="13.589107527974171"><ele>38.0</ele><time>2026-04-03T14:52:31Z</time></trkpt><trkpt lat="45.793441668244554" lon="13.589391002289616"><ele>33.5</ele><time>2026-04-03T14:52:32Z</time></trkpt><trkpt lat="45.79327723293698" lon="13.589656064093807"><ele>29.0</ele><time>2026-04-03T14:52:33Z</time></trkpt><trkpt lat="45.7931560092959" lon="13.589912421710348"><ele>29.0</ele><time>2026-04-03T14:52:34Z</time></trkpt><trkpt lat="45.79299236654093" lon="13.590111219062225"><ele>29.0</ele><time>2026-04-03T14:52:35Z</time></trkpt><trkpt lat="45.79282218052838" lon="13.590258115480246"><ele>29.0</ele><time>2026-04-03T14:52:36Z</time></trkpt><trkpt lat="45.792630317304095" lon="13.590371402436315"><ele>28.0</ele><time>2026-04-03T14:52:37Z</time></trkpt><trkpt lat="45.79242631391547" lon="13.590445795599532"><ele>27.0</ele><time>2026-04-03T14:52:38Z</time></trkpt><trkpt lat="45.79219532046176" lon="13.59052852721339"><ele>26.0</ele><time>2026-04-03T14:52:39Z</time></trkpt><trkpt lat="45.791965958955956" lon="13.59058931642232"><ele>25.0</ele><time>2026-04-03T14:52:40Z</time></trkpt><trkpt lat="45.79175262462896" lon="13.590660400037814"><ele>24.0</ele><time>2026-04-03T14:52:41Z</time></trkpt><trkpt lat="45.79153226461861" lon="13.590732076199679"><ele>23.0</ele><time>2026-04-03T14:52:42Z</time></trkpt><trkpt lat="45.79132134478192" lon="13.590800241786331"><ele>23.0</ele><time>2026-04-03T14:52:43Z</time></trkpt><trkpt lat="45.791116465749795" lon="13.5908636074512"><ele>23.0</ele><time>2026-04-03T14:52:44Z</time></trkpt><trkpt lat="45.790911847149616" lon="13.590929852511481"><ele>23.0</ele><time>2026-04-03T14:52:45Z</time></trkpt><trkpt lat="45.790732967507026" lon="13.590986733765957"><ele>21.0</ele><time>2026-04-03T14:52:46Z</time></trkpt><trkpt lat="45.790570621579676" lon="13.591042899010931"><ele>19.0</ele><time>2026-04-03T14:52:47Z</time></trkpt><trkpt lat="45.79040667574964" lon="13.59109629827002"><ele>17.0</ele><time>2026-04-03T14:52:48Z</time></trkpt><trkpt lat="45.79025169052309" lon="13.591145546303736"><ele>17.666666666666668</ele><time>2026-04-03T14:52:49Z</time></trkpt><trkpt lat="45.79009998013516" lon="13.591189611169968"><ele>18.333333333333332</ele><time>2026-04-03T14:52:50Z</time></trkpt><trkpt lat="45.789947582997335" lon="13.591235805381352"><ele>19.0</ele><time>2026-04-03T14:52:51Z</time></trkpt><trkpt lat="45.789788765844236" lon="13.591275800357346"><ele>19.0</ele><time>2026-04-03T14:52:52Z</time></trkpt><trkpt lat="45.78962178795095" lon="13.591330807545868"><ele>19.0</ele><time>2026-04-03T14:52:53Z</time></trkpt><trkpt lat="45.789444796127874" lon="13.591379335691851"><ele>19.0</ele><time>2026-04-03T14:52:54Z</time></trkpt><trkpt lat="45.7892671615913" lon="13.591447419012585"><ele>17.666666666666664</ele><time>2026-04-03T14:52:55Z</time></trkpt><trkpt lat="45.789092881715305" lon="13.591511668250831"><ele>16.333333333333332</ele><time>2026-04-03T14:52:56Z</time></trkpt><trkpt lat="45.788938254682925" lon="13.591560931337169"><ele>15.0</ele><time>2026-04-03T14:52:57Z</time></trkpt><trkpt lat="45.788802945858585" lon="13.591608569997852"><ele>15.0</ele><time>2026-04-03T14:52:58Z</time></trkpt><trkpt lat="45.78867871148686" lon="13.591652561492939"><ele>15.0</ele><time>2026-04-03T14:52:59Z</time></trkpt><trkpt lat="45.78856575450617" lon="13.591695506511186"><ele>15.0</ele><time>2026-04-03T14:53:00Z</time></trkpt><trkpt lat="45.788465551282336" lon="13.59173239025505"><ele>15.0</ele><time>2026-04-03T14:53:01Z</time></trkpt><trkpt lat="45.788376824993165" lon="13.591759339178969"><ele>15.0</ele><time>2026-04-03T14:53:02Z</time></trkpt><trkpt lat="45.788290912038704" lon="13.591782487288377"><ele>13.2</ele><time>2026-04-03T14:53:03Z</time></trkpt><trkpt lat="45.78821420011366" lon="13.591813104690802"><ele>11.4</ele><time>2026-04-03T14:53:04Z</time></trkpt><trkpt lat="45.788145457299876" lon="13.591831039484848"><ele>9.6</ele><time>2026-04-03T14:53:05Z</time></trkpt><trkpt lat="45.78805919579157" lon="13.591815997647998"><ele>7.8</ele><time>2026-04-03T14:53:07Z</time></trkpt><trkpt lat="45.787938178749094" lon="13.591865698911999"><ele>6.0</ele><time>2026-04-03T14:53:17Z</time></trkpt><trkpt lat="45.78785411733072" lon="13.591946039714129"><ele>7.0</ele><time>2026-04-03T14:53:18Z</time></trkpt><trkpt lat="45.78775488386697" lon="13.592070917189833"><ele>8.0</ele><time>2026-04-03T14:53:19Z</time></trkpt><trkpt lat="45.787635765719536" lon="13.592223137682318"><ele>9.0</ele><time>2026-04-03T14:53:20Z</time></trkpt><trkpt lat="45.7874975710095" lon="13.592386555059774"><ele>9.0</ele><time>2026-04-03T14:53:21Z</time></trkpt><trkpt lat="45.78735451645404" lon="13.59257315634253"><ele>9.0</ele><time>2026-04-03T14:53:22Z</time></trkpt><trkpt lat="45.787209083820606" lon="13.592768652815849"><ele>9.0</ele><time>2026-04-03T14:53:23.001Z</time></trkpt><trkpt lat="45.787064121176286" lon="13.592952495732467"><ele>9.666666666666666</ele><time>2026-04-03T14:53:24.001Z</time></trkpt><trkpt lat="45.78692708275824" lon="13.59312113195719"><ele>10.333333333333332</ele><time>2026-04-03T14:53:25.001Z</time></trkpt><trkpt lat="45.78678963546861" lon="13.593287748827583"><ele>11.0</ele><time>2026-04-03T14:53:26.001Z</time></trkpt><trkpt lat="45.786653013447456" lon="13.593452419121157"><ele>11.0</ele><time>2026-04-03T14:53:27.001Z</time></trkpt><trkpt lat="45.78649094833308" lon="13.593570655115418"><ele>11.0</ele><time>2026-04-03T14:53:28.001Z</time></trkpt><trkpt lat="45.786322906798254" lon="13.593700755187482"><ele>11.0</ele><time>2026-04-03T14:53:29.001Z</time></trkpt><trkpt lat="45.786135051646994" lon="13.593775961978203"><ele>13.666666666666666</ele><time>2026-04-03T14:53:30.001Z</time></trkpt><trkpt lat="45.78594784332981" lon="13.59383260305556"><ele>16.333333333333332</ele><time>2026-04-03T14:53:31.001Z</time></trkpt><trkpt lat="45.785772486421855" lon="13.593851488937846"><ele>19.0</ele><time>2026-04-03T14:53:32.001Z</time></trkpt><trkpt lat="45.78560445070905" lon="13.593841056420839"><ele>19.0</ele><time>2026-04-03T14:53:33.001Z</time></trkpt><trkpt lat="45.78544931743788" lon="13.5938625261842"><ele>19.0</ele><time>2026-04-03T14:53:34.001Z</time></trkpt><trkpt lat="45.7852983455653" lon="13.593939928715379"><ele>19.0</ele><time>2026-04-03T14:53:35.001Z</time></trkpt><trkpt lat="45.78516448158229" lon="13.594052762147365"><ele>19.0</ele><time>2026-04-03T14:53:36.001Z</time></trkpt><trkpt lat="45.78504208292301" lon="13.594194986704151"><ele>19.0</ele><time>2026-04-03T14:53:37.001Z</time></trkpt><trkpt lat="45.78493867050773" lon="13.5943807762739"><ele>19.0</ele><time>2026-04-03T14:53:38.001Z</time></trkpt><trkpt lat="45.78485049784562" lon="13.594583766081099"><ele>19.5</ele><time>2026-04-03T14:53:39.001Z</time></trkpt><trkpt lat="45.78477691098446" lon="13.594775372819651"><ele>20.0</ele><time>2026-04-03T14:53:40.001Z</time></trkpt><trkpt lat="45.784710721002796" lon="13.59495206456985"><ele>20.5</ele><time>2026-04-03T14:53:41.001Z</time></trkpt><trkpt lat="45.78464000874038" lon="13.595121656608686"><ele>21.0</ele><time>2026-04-03T14:53:42.001Z</time></trkpt><trkpt lat="45.7845694796305" lon="13.59529868693598"><ele>21.75</ele><time>2026-04-03T14:53:43.001Z</time></trkpt><trkpt lat="45.78450524804964" lon="13.595483160469497"><ele>22.5</ele><time>2026-04-03T14:53:44.001Z</time></trkpt><trkpt lat="45.78442940722123" lon="13.595663863123592"><ele>23.25</ele><time>2026-04-03T14:53:45.001Z</time></trkpt><trkpt lat="45.78435346151645" lon="13.595842967799316"><ele>24.0</ele><time>2026-04-03T14:53:46Z</time></trkpt><trkpt lat="45.78427351850719" lon="13.596019354650476"><ele>23.75</ele><time>2026-04-03T14:53:47Z</time></trkpt><trkpt lat="45.78418130147957" lon="13.596182877379185"><ele>23.5</ele><time>2026-04-03T14:53:48Z</time></trkpt><trkpt lat="45.78407992733655" lon="13.596317137266192"><ele>23.25</ele><time>2026-04-03T14:53:49Z</time></trkpt><trkpt lat="45.783981812968015" lon="13.59642156545864"><ele>23.0</ele><time>2026-04-03T14:53:50Z</time></trkpt><trkpt lat="45.783891304956484" lon="13.596492246915094"><ele>23.0</ele><time>2026-04-03T14:53:51Z</time></trkpt><trkpt lat="45.78380559217244" lon="13.59653140956716"><ele>23.0</ele><time>2026-04-03T14:53:52Z</time></trkpt><trkpt lat="45.78372477236641" lon="13.596543734198356"><ele>23.0</ele><time>2026-04-03T14:53:53Z</time></trkpt><trkpt lat="45.78364703299971" lon="13.596567786293152"><ele>23.0</ele><time>2026-04-03T14:53:54Z</time></trkpt><trkpt lat="45.78357541537414" lon="13.596603092854254"><ele>23.0</ele><time>2026-04-03T14:53:55Z</time></trkpt><trkpt lat="45.78351487069314" lon="13.596638506852953"><ele>23.0</ele><time>2026-04-03T14:53:56Z</time></trkpt><trkpt lat="45.783403607261455" lon="13.596694363313137"><ele>23.0</ele><time>2026-04-03T14:53:58Z</time></trkpt><trkpt lat="45.78333858448629" lon="13.596739953929433"><ele>23.0</ele><time>2026-04-03T14:54:00Z</time></trkpt><trkpt lat="45.78326481071535" lon="13.596781661415877"><ele>23.0</ele><time>2026-04-03T14:54:30Z</time></trkpt><trkpt lat="45.78319526232988" lon="13.596815593119446"><ele>23.0</ele><time>2026-04-03T14:54:32Z</time></trkpt><trkpt lat="45.78307333469119" lon="13.596863862537672"><ele>23.0</ele><time>2026-04-03T14:54:34Z</time></trkpt><trkpt lat="45.78296181789214" lon="13.596887275175408"><ele>23.0</ele><time>2026-04-03T14:54:35Z</time></trkpt><trkpt lat="45.782823587605456" lon="13.596895012319711"><ele>23.0</ele><time>2026-04-03T14:54:36Z</time></trkpt><trkpt lat="45.78265475066372" lon="13.596900820147487"><ele>23.0</ele><time>2026-04-03T14:54:37Z</time></trkpt><trkpt lat="45.78245897172158" lon="13.596912992035078"><ele>22.0</ele><time>2026-04-03T14:54:38Z</time></trkpt><trkpt lat="45.78224708437806" lon="13.59692600783934"><ele>21.0</ele><time>2026-04-03T14:54:39Z</time></trkpt><trkpt lat="45.78200762090606" lon="13.596939787434902"><ele>21.5</ele><time>2026-04-03T14:54:40Z</time></trkpt><trkpt lat="45.78176472725066" lon="13.59695521899267"><ele>22.0</ele><time>2026-04-03T14:54:41Z</time></trkpt><trkpt lat="45.78154797232196" lon="13.596962342280927"><ele>22.0</ele><time>2026-04-03T14:54:42Z</time></trkpt><trkpt lat="45.78135363882821" lon="13.596972740844233"><ele>22.0</ele><time>2026-04-03T14:54:43Z</time></trkpt><trkpt lat="45.78117581188662" lon="13.596988709069278"><ele>22.0</ele><time>2026-04-03T14:54:44Z</time></trkpt><trkpt lat="45.7810127751392" lon="13.596989153685634"><ele>23.0</ele><time>2026-04-03T14:54:45Z</time></trkpt><trkpt lat="45.780857986837134" lon="13.5969829682114"><ele>24.0</ele><time>2026-04-03T14:54:46Z</time></trkpt><trkpt lat="45.78071316276793" lon="13.596993574395338"><ele>25.0</ele><time>2026-04-03T14:54:47Z</time></trkpt><trkpt lat="45.7805648072427" lon="13.597022812049985"><ele>27.0</ele><time>2026-04-03T14:54:48Z</time></trkpt><trkpt lat="45.78041982265645" lon="13.597084354860906"><ele>29.0</ele><time>2026-04-03T14:54:49Z</time></trkpt><trkpt lat="45.78027890672426" lon="13.597190975154525"><ele>31.0</ele><time>2026-04-03T14:54:50Z</time></trkpt><trkpt lat="45.78014484653088" lon="13.597325123095544"><ele>31.0</ele><time>2026-04-03T14:54:51Z</time></trkpt><trkpt lat="45.780020674400404" lon="13.597462418846234"><ele>31.0</ele><time>2026-04-03T14:54:52Z</time></trkpt><trkpt lat="45.77990262845069" lon="13.597595495926134"><ele>31.0</ele><time>2026-04-03T14:54:53Z</time></trkpt><trkpt lat="45.779786828960795" lon="13.597717050317335"><ele>31.5</ele><time>2026-04-03T14:54:54Z</time></trkpt><trkpt lat="45.77967411472322" lon="13.597840897255175"><ele>32.0</ele><time>2026-04-03T14:54:55Z</time></trkpt><trkpt lat="45.779572142652974" lon="13.597960516307095"><ele>32.5</ele><time>2026-04-03T14:54:56Z</time></trkpt><trkpt lat="45.779474034647826" lon="13.59807245022693"><ele>33.0</ele><time>2026-04-03T14:54:57Z</time></trkpt><trkpt lat="45.77937616448716" lon="13.598185714605394"><ele>33.25</ele><time>2026-04-03T14:54:58Z</time></trkpt><trkpt lat="45.77927609602582" lon="13.598307937659587"><ele>33.5</ele><time>2026-04-03T14:54:59Z</time></trkpt><trkpt lat="45.77917394897057" lon="13.598429477511129"><ele>33.75</ele><time>2026-04-03T14:55:00Z</time></trkpt><trkpt lat="45.77906981828443" lon="13.598549520735778"><ele>34.0</ele><time>2026-04-03T14:55:01Z</time></trkpt><trkpt lat="45.77896134700057" lon="13.598672288920666"><ele>34.0</ele><time>2026-04-03T14:55:02Z</time></trkpt><trkpt lat="45.77885420409028" lon="13.598796365189267"><ele>34.0</ele><time>2026-04-03T14:55:03Z</time></trkpt><trkpt lat="45.77874682470088" lon="13.5989187014315"><ele>34.0</ele><time>2026-04-03T14:55:04Z</time></trkpt><trkpt lat="45.77863684112031" lon="13.599044690195512"><ele>34.0</ele><time>2026-04-03T14:55:05Z</time></trkpt><trkpt lat="45.77852885062823" lon="13.599171274120716"><ele>35.0</ele><time>2026-04-03T14:55:06Z</time></trkpt><trkpt lat="45.7784214692912" lon="13.599300349961634"><ele>36.0</ele><time>2026-04-03T14:55:07Z</time></trkpt><trkpt lat="45.7783092688197" lon="13.599429266624497"><ele>37.0</ele><time>2026-04-03T14:55:08Z</time></trkpt><trkpt lat="45.77819669428033" lon="13.599554018334892"><ele>38.0</ele><time>2026-04-03T14:55:09Z</time></trkpt><trkpt lat="45.77808945685086" lon="13.599677998339688"><ele>38.25</ele><time>2026-04-03T14:55:10Z</time></trkpt><trkpt lat="45.77798530658042" lon="13.59979702998879"><ele>38.5</ele><time>2026-04-03T14:55:11Z</time></trkpt><trkpt lat="45.77788329150576" lon="13.59991246513002"><ele>38.75</ele><time>2026-04-03T14:55:12Z</time></trkpt><trkpt lat="45.777778742896" lon="13.600031186658091"><ele>39.0</ele><time>2026-04-03T14:55:13Z</time></trkpt><trkpt lat="45.77768048550476" lon="13.600149072226905"><ele>39.0</ele><time>2026-04-03T14:55:14Z</time></trkpt><trkpt lat="45.77759416039245" lon="13.600259547279563"><ele>39.0</ele><time>2026-04-03T14:55:15Z</time></trkpt><trkpt lat="45.777506236203415" lon="13.600359405176091"><ele>39.0</ele><time>2026-04-03T14:55:16Z</time></trkpt><trkpt lat="45.77741160685122" lon="13.600467378470409"><ele>39.0</ele><time>2026-04-03T14:55:17Z</time></trkpt><trkpt lat="45.77731826045555" lon="13.600581032265945"><ele>39.0</ele><time>2026-04-03T14:55:18Z</time></trkpt><trkpt lat="45.77722229806253" lon="13.600702242428573"><ele>39.0</ele><time>2026-04-03T14:55:19Z</time></trkpt><trkpt lat="45.77713704389601" lon="13.600834792505145"><ele>39.0</ele><time>2026-04-03T14:55:20Z</time></trkpt><trkpt lat="45.77705581309246" lon="13.600978190122635"><ele>39.0</ele><time>2026-04-03T14:55:21Z</time></trkpt><trkpt lat="45.77698063806872" lon="13.60112971820134"><ele>38.0</ele><time>2026-04-03T14:55:22Z</time></trkpt><trkpt lat="45.77691169487197" lon="13.60128955566496"><ele>37.0</ele><time>2026-04-03T14:55:23Z</time></trkpt><trkpt lat="45.77685082245307" lon="13.601455201726745"><ele>36.0</ele><time>2026-04-03T14:55:24Z</time></trkpt><trkpt lat="45.776793867354264" lon="13.601630873356164"><ele>35.0</ele><time>2026-04-03T14:55:25Z</time></trkpt><trkpt lat="45.776734031981924" lon="13.60181920664499"><ele>34.666666666666664</ele><time>2026-04-03T14:55:26Z</time></trkpt><trkpt lat="45.77666459589494" lon="13.602017345705168"><ele>34.333333333333336</ele><time>2026-04-03T14:55:27Z</time></trkpt><trkpt lat="45.77659852669653" lon="13.60223347395774"><ele>34.0</ele><time>2026-04-03T14:55:28.001Z</time></trkpt><trkpt lat="45.77653341507465" lon="13.602424872342905"><ele>34.0</ele><time>2026-04-03T14:55:29.001Z</time></trkpt><trkpt lat="45.77648093485278" lon="13.602582902340625"><ele>34.0</ele><time>2026-04-03T14:55:30.001Z</time></trkpt><trkpt lat="45.7764389936049" lon="13.602714912886988"><ele>34.0</ele><time>2026-04-03T14:55:31.001Z</time></trkpt><trkpt lat="45.77639500765218" lon="13.602854354292845"><ele>34.0</ele><time>2026-04-03T14:55:32.001Z</time></trkpt><trkpt lat="45.77634738109468" lon="13.603013723879826"><ele>35.0</ele><time>2026-04-03T14:55:33.001Z</time></trkpt><trkpt lat="45.77629037090039" lon="13.603186331825912"><ele>36.0</ele><time>2026-04-03T14:55:34.001Z</time></trkpt><trkpt lat="45.7762363473018" lon="13.603362656498572"><ele>37.0</ele><time>2026-04-03T14:55:35.001Z</time></trkpt><trkpt lat="45.77617751176401" lon="13.603541849005344"><ele>38.0</ele><time>2026-04-03T14:55:36.001Z</time></trkpt><trkpt lat="45.77611786040928" lon="13.603722508467609"><ele>38.0</ele><time>2026-04-03T14:55:37Z</time></trkpt><trkpt lat="45.77606043915684" lon="13.603907153281494"><ele>38.0</ele><time>2026-04-03T14:55:38Z</time></trkpt><trkpt lat="45.77600210812263" lon="13.604085630675208"><ele>38.0</ele><time>2026-04-03T14:55:39Z</time></trkpt><trkpt lat="45.77594888361187" lon="13.604249868552692"><ele>38.0</ele><time>2026-04-03T14:55:40Z</time></trkpt><trkpt lat="45.77589354636302" lon="13.604425971280875"><ele>38.75</ele><time>2026-04-03T14:55:41Z</time></trkpt><trkpt lat="45.775830774880234" lon="13.60460706500201"><ele>39.5</ele><time>2026-04-03T14:55:42Z</time></trkpt><trkpt lat="45.77577379665942" lon="13.604789327960978"><ele>40.25</ele><time>2026-04-03T14:55:43Z</time></trkpt><trkpt lat="45.775718666087315" lon="13.604961738960114"><ele>41.0</ele><time>2026-04-03T14:55:44Z</time></trkpt><trkpt lat="45.775667606964" lon="13.60511838617328"><ele>41.0</ele><time>2026-04-03T14:55:45Z</time></trkpt><trkpt lat="45.775617141431056" lon="13.605273083518298"><ele>41.0</ele><time>2026-04-03T14:55:46Z</time></trkpt><trkpt lat="45.77556622646918" lon="13.605429090138102"><ele>41.0</ele><time>2026-04-03T14:55:47Z</time></trkpt><trkpt lat="45.775514832326685" lon="13.605585726704096"><ele>41.0</ele><time>2026-04-03T14:55:48Z</time></trkpt><trkpt lat="45.77546256849315" lon="13.60574386503313"><ele>41.75</ele><time>2026-04-03T14:55:49Z</time></trkpt><trkpt lat="45.77540962881878" lon="13.605900745859882"><ele>42.5</ele><time>2026-04-03T14:55:50Z</time></trkpt><trkpt lat="45.77535653917874" lon="13.606057537038957"><ele>43.25</ele><time>2026-04-03T14:55:51Z</time></trkpt><trkpt lat="45.775305564313896" lon="13.606216407187874"><ele>44.0</ele><time>2026-04-03T14:55:52Z</time></trkpt><trkpt lat="45.77525484362246" lon="13.60637591877457"><ele>44.400000000000006</ele><time>2026-04-03T14:55:53Z</time></trkpt><trkpt lat="45.77520697854752" lon="13.60652855044902"><ele>44.8</ele><time>2026-04-03T14:55:54Z</time></trkpt><trkpt lat="45.77516406467632" lon="13.606665780902327"><ele>45.2</ele><time>2026-04-03T14:55:55Z</time></trkpt><trkpt lat="45.77512118786127" lon="13.606797474304907"><ele>45.599999999999994</ele><time>2026-04-03T14:55:56Z</time></trkpt><trkpt lat="45.775080084966206" lon="13.606928744200925"><ele>46.0</ele><time>2026-04-03T14:55:57Z</time></trkpt><trkpt lat="45.77503789984432" lon="13.60706269086713"><ele>46.5</ele><time>2026-04-03T14:55:58Z</time></trkpt><trkpt lat="45.77499211514336" lon="13.607203983352239"><ele>47.0</ele><time>2026-04-03T14:55:59Z</time></trkpt><trkpt lat="45.774944153442355" lon="13.607347112283854"><ele>47.5</ele><time>2026-04-03T14:56:00Z</time></trkpt><trkpt lat="45.77489876012566" lon="13.607499458596049"><ele>48.0</ele><time>2026-04-03T14:56:01Z</time></trkpt><trkpt lat="45.77485193098096" lon="13.60765546402271"><ele>48.0</ele><time>2026-04-03T14:56:02Z</time></trkpt><trkpt lat="45.77480288394134" lon="13.607813592429402"><ele>48.0</ele><time>2026-04-03T14:56:03Z</time></trkpt><trkpt lat="45.774754037989766" lon="13.60797493338883"><ele>48.0</ele><time>2026-04-03T14:56:04Z</time></trkpt><trkpt lat="45.77470300467915" lon="13.608138333416216"><ele>48.0</ele><time>2026-04-03T14:56:05Z</time></trkpt><trkpt lat="45.774650915056725" lon="13.608299049300872"><ele>48.0</ele><time>2026-04-03T14:56:06Z</time></trkpt><trkpt lat="45.774606919454556" lon="13.608433345324483"><ele>48.0</ele><time>2026-04-03T14:56:07Z</time></trkpt><trkpt lat="45.774571778125974" lon="13.608555681882057"><ele>48.0</ele><time>2026-04-03T14:56:08Z</time></trkpt><trkpt lat="45.7745393379816" lon="13.608682735598071"><ele>48.0</ele><time>2026-04-03T14:56:09Z</time></trkpt><trkpt lat="45.77451387560156" lon="13.608808242779777"><ele>48.0</ele><time>2026-04-03T14:56:10Z</time></trkpt><trkpt lat="45.774495988382746" lon="13.608927082089568"><ele>48.4</ele><time>2026-04-03T14:56:11Z</time></trkpt><trkpt lat="45.77448269934398" lon="13.609051950225501"><ele>48.8</ele><time>2026-04-03T14:56:12Z</time></trkpt><trkpt lat="45.774473636350656" lon="13.609182615772255"><ele>49.2</ele><time>2026-04-03T14:56:13Z</time></trkpt><trkpt lat="45.77447021693972" lon="13.609321782549593"><ele>49.6</ele><time>2026-04-03T14:56:14Z</time></trkpt><trkpt lat="45.77447054443311" lon="13.60946917138412"><ele>50.0</ele><time>2026-04-03T14:56:15Z</time></trkpt><trkpt lat="45.774479083915615" lon="13.609620282852367"><ele>50.4</ele><time>2026-04-03T14:56:16Z</time></trkpt><trkpt lat="45.774499226395385" lon="13.609781783720177"><ele>50.8</ele><time>2026-04-03T14:56:17Z</time></trkpt><trkpt lat="45.77452942378215" lon="13.60993955857471"><ele>51.2</ele><time>2026-04-03T14:56:18Z</time></trkpt><trkpt lat="45.7745589153407" lon="13.610062380752051"><ele>51.6</ele><time>2026-04-03T14:56:19Z</time></trkpt><trkpt lat="45.77458220447246" lon="13.610167011152571"><ele>52.0</ele><time>2026-04-03T14:56:20Z</time></trkpt><trkpt lat="45.77460502375963" lon="13.610274451582423"><ele>52.83333333333333</ele><time>2026-04-03T14:56:21Z</time></trkpt><trkpt lat="45.774629630679236" lon="13.61039380013313"><ele>53.666666666666664</ele><time>2026-04-03T14:56:22Z</time></trkpt><trkpt lat="45.774653269193756" lon="13.61052365612564"><ele>54.5</ele><time>2026-04-03T14:56:23Z</time></trkpt><trkpt lat="45.774674545903075" lon="13.610649822833274"><ele>55.33333333333333</ele><time>2026-04-03T14:56:24Z</time></trkpt><trkpt lat="45.77469364879422" lon="13.610773625449479"><ele>56.166666666666664</ele><time>2026-04-03T14:56:25Z</time></trkpt><trkpt lat="45.774712465564804" lon="13.6108985411889"><ele>57.0</ele><time>2026-04-03T14:56:26Z</time></trkpt><trkpt lat="45.774733930666386" lon="13.61102868803617"><ele>56.8</ele><time>2026-04-03T14:56:27Z</time></trkpt><trkpt lat="45.774757391946956" lon="13.611165599707286"><ele>56.6</ele><time>2026-04-03T14:56:28Z</time></trkpt><trkpt lat="45.774777584787856" lon="13.611304938156676"><ele>56.39999999999999</ele><time>2026-04-03T14:56:29Z</time></trkpt><trkpt lat="45.77479143436767" lon="13.611443975795243"><ele>56.199999999999996</ele><time>2026-04-03T14:56:30Z</time></trkpt><trkpt lat="45.77479931469378" lon="13.611591005182795"><ele>56.0</ele><time>2026-04-03T14:56:31Z</time></trkpt><trkpt lat="45.774798307514466" lon="13.611743348589536"><ele>56.0</ele><time>2026-04-03T14:56:32Z</time></trkpt><trkpt lat="45.77479079120252" lon="13.611899573585495"><ele>56.0</ele><time>2026-04-03T14:56:33Z</time></trkpt><trkpt lat="45.774775510616834" lon="13.612062807401003"><ele>56.0</ele><time>2026-04-03T14:56:34Z</time></trkpt><trkpt lat="45.77476331990638" lon="13.612229977187324"><ele>56.0</ele><time>2026-04-03T14:56:35Z</time></trkpt><trkpt lat="45.774753105950545" lon="13.612401962025853"><ele>56.25</ele><time>2026-04-03T14:56:36Z</time></trkpt><trkpt lat="45.77474275031295" lon="13.612573243200849"><ele>56.5</ele><time>2026-04-03T14:56:37Z</time></trkpt><trkpt lat="45.77473373351488" lon="13.612743496796298"><ele>56.75</ele><time>2026-04-03T14:56:38Z</time></trkpt><trkpt lat="45.774725573804375" lon="13.61290216702616"><ele>57.0</ele><time>2026-04-03T14:56:39Z</time></trkpt><trkpt lat="45.774716054117334" lon="13.613053206350646"><ele>57.2</ele><time>2026-04-03T14:56:40Z</time></trkpt><trkpt lat="45.77470705785639" lon="13.613213121901076"><ele>57.400000000000006</ele><time>2026-04-03T14:56:41Z</time></trkpt><trkpt lat="45.77469899164108" lon="13.61337522317821"><ele>57.599999999999994</ele><time>2026-04-03T14:56:42Z</time></trkpt><trkpt lat="45.77468833373385" lon="13.613537859767883"><ele>57.8</ele><time>2026-04-03T14:56:43Z</time></trkpt><trkpt lat="45.77467599029514" lon="13.613688968712747"><ele>58.0</ele><time>2026-04-03T14:56:44Z</time></trkpt><trkpt lat="45.77465662932819" lon="13.613838657370286"><ele>58.4</ele><time>2026-04-03T14:56:45Z</time></trkpt><trkpt lat="45.77463766237863" lon="13.613990911972024"><ele>58.8</ele><time>2026-04-03T14:56:46Z</time></trkpt><trkpt lat="45.7746154611031" lon="13.614148713681464"><ele>59.2</ele><time>2026-04-03T14:56:47Z</time></trkpt><trkpt lat="45.77458457854677" lon="13.614304052610699"><ele>59.6</ele><time>2026-04-03T14:56:48Z</time></trkpt><trkpt lat="45.774546686878814" lon="13.614458910101101"><ele>60.0</ele><time>2026-04-03T14:56:49Z</time></trkpt><trkpt lat="45.774503403576354" lon="13.614615319524509"><ele>60.0</ele><time>2026-04-03T14:56:50Z</time></trkpt><trkpt lat="45.77445494176479" lon="13.614765945133762"><ele>60.0</ele><time>2026-04-03T14:56:51Z</time></trkpt><trkpt lat="45.77440469633988" lon="13.614917411245504"><ele>60.0</ele><time>2026-04-03T14:56:52Z</time></trkpt><trkpt lat="45.77435388322526" lon="13.61507105214742"><ele>60.0</ele><time>2026-04-03T14:56:53Z</time></trkpt><trkpt lat="45.77430470796792" lon="13.61522667857652"><ele>60.5</ele><time>2026-04-03T14:56:54Z</time></trkpt><trkpt lat="45.77425429635231" lon="13.615381740564064"><ele>61.0</ele><time>2026-04-03T14:56:55Z</time></trkpt><trkpt lat="45.774199696310866" lon="13.61553270007149"><ele>61.5</ele><time>2026-04-03T14:56:56Z</time></trkpt><trkpt lat="45.774141232808695" lon="13.6156843070107"><ele>62.0</ele><time>2026-04-03T14:56:57Z</time></trkpt><trkpt lat="45.77407872945055" lon="13.615841298562627"><ele>62.0</ele><time>2026-04-03T14:56:58Z</time></trkpt><trkpt lat="45.77401435172733" lon="13.615999574822757"><ele>62.0</ele><time>2026-04-03T14:56:59Z</time></trkpt><trkpt lat="45.77394751942953" lon="13.616158861560727"><ele>62.0</ele><time>2026-04-03T14:57:00Z</time></trkpt><trkpt lat="45.77387666504313" lon="13.616316309355684"><ele>62.0</ele><time>2026-04-03T14:57:01Z</time></trkpt><trkpt lat="45.773806367007545" lon="13.616474888845831"><ele>61.5</ele><time>2026-04-03T14:57:02Z</time></trkpt><trkpt lat="45.773740173024535" lon="13.616639032015875"><ele>61.0</ele><time>2026-04-03T14:57:03Z</time></trkpt><trkpt lat="45.77368401583354" lon="13.61681125329947"><ele>60.5</ele><time>2026-04-03T14:57:04Z</time></trkpt><trkpt lat="45.77363387204952" lon="13.616987562528383"><ele>60.0</ele><time>2026-04-03T14:57:05Z</time></trkpt><trkpt lat="45.773589756201325" lon="13.617175268104825"><ele>60.5</ele><time>2026-04-03T14:57:06Z</time></trkpt><trkpt lat="45.77355740541304" lon="13.617375395769418"><ele>61.0</ele><time>2026-04-03T14:57:07Z</time></trkpt><trkpt lat="45.77352685152187" lon="13.617570186595069"><ele>61.5</ele><time>2026-04-03T14:57:08Z</time></trkpt><trkpt lat="45.7735082819238" lon="13.617779632628466"><ele>62.0</ele><time>2026-04-03T14:57:09Z</time></trkpt><trkpt lat="45.7734934286299" lon="13.617977521845296"><ele>61.0</ele><time>2026-04-03T14:57:10Z</time></trkpt><trkpt lat="45.77347962984628" lon="13.618171070086243"><ele>60.0</ele><time>2026-04-03T14:57:11Z</time></trkpt><trkpt lat="45.77346582242501" lon="13.618369864805242"><ele>59.0</ele><time>2026-04-03T14:57:12Z</time></trkpt><trkpt lat="45.7734510159821" lon="13.618573023664965"><ele>58.0</ele><time>2026-04-03T14:57:13Z</time></trkpt><trkpt lat="45.77343458412412" lon="13.618772501906095"><ele>57.75</ele><time>2026-04-03T14:57:14Z</time></trkpt><trkpt lat="45.773421035476254" lon="13.618964781822466"><ele>57.5</ele><time>2026-04-03T14:57:15Z</time></trkpt><trkpt lat="45.77340766284216" lon="13.619148016883877"><ele>57.25</ele><time>2026-04-03T14:57:16Z</time></trkpt><trkpt lat="45.77339537869532" lon="13.619337416683809"><ele>57.0</ele><time>2026-04-03T14:57:17Z</time></trkpt><trkpt lat="45.77338165491184" lon="13.619534396538443"><ele>58.0</ele><time>2026-04-03T14:57:18Z</time></trkpt><trkpt lat="45.77336691737774" lon="13.619736305215383"><ele>59.0</ele><time>2026-04-03T14:57:19Z</time></trkpt><trkpt lat="45.77335090643535" lon="13.619943674000258"><ele>60.0</ele><time>2026-04-03T14:57:19.999Z</time></trkpt><trkpt lat="45.77333698241184" lon="13.62014535565639"><ele>61.0</ele><time>2026-04-03T14:57:20.999Z</time></trkpt><trkpt lat="45.773324329183566" lon="13.620337705089291"><ele>61.0</ele><time>2026-04-03T14:57:21.999Z</time></trkpt><trkpt lat="45.77331228324807" lon="13.62052244189992"><ele>61.0</ele><time>2026-04-03T14:57:22.999Z</time></trkpt><trkpt lat="45.77329870836749" lon="13.62070091860509"><ele>61.0</ele><time>2026-04-03T14:57:23.999Z</time></trkpt><trkpt lat="45.773285297751485" lon="13.620882176804935"><ele>61.0</ele><time>2026-04-03T14:57:24.999Z</time></trkpt><trkpt lat="45.773271605709496" lon="13.621057319941476"><ele>61.0</ele><time>2026-04-03T14:57:25.999Z</time></trkpt><trkpt lat="45.77325676039214" lon="13.621224918973523"><ele>61.0</ele><time>2026-04-03T14:57:26.999Z</time></trkpt><trkpt lat="45.77324422792521" lon="13.621399983026427"><ele>61.0</ele><time>2026-04-03T14:57:27.999Z</time></trkpt><trkpt lat="45.77322556154285" lon="13.621576245451482"><ele>61.0</ele><time>2026-04-03T14:57:28.999Z</time></trkpt><trkpt lat="45.773207864532175" lon="13.621755087010733"><ele>61.0</ele><time>2026-04-03T14:57:29.999Z</time></trkpt><trkpt lat="45.77318782400429" lon="13.621939307733497"><ele>61.0</ele><time>2026-04-03T14:57:30.999Z</time></trkpt><trkpt lat="45.773169603088" lon="13.62212963167786"><ele>61.0</ele><time>2026-04-03T14:57:31.999Z</time></trkpt><trkpt lat="45.77315333466294" lon="13.622320870316418"><ele>61.0</ele><time>2026-04-03T14:57:33Z</time></trkpt><trkpt lat="45.77314128687714" lon="13.622513129078637"><ele>61.0</ele><time>2026-04-03T14:57:34Z</time></trkpt><trkpt lat="45.77312795291236" lon="13.62270659651517"><ele>61.0</ele><time>2026-04-03T14:57:35Z</time></trkpt><trkpt lat="45.773114277959984" lon="13.622893339437294"><ele>61.0</ele><time>2026-04-03T14:57:36Z</time></trkpt><trkpt lat="45.773104500638624" lon="13.623069160161979"><ele>61.0</ele><time>2026-04-03T14:57:37Z</time></trkpt><trkpt lat="45.77309063368858" lon="13.623232413674499"><ele>61.0</ele><time>2026-04-03T14:57:38Z</time></trkpt><trkpt lat="45.77307487407091" lon="13.6233795597448"><ele>60.99999999999999</ele><time>2026-04-03T14:57:39Z</time></trkpt><trkpt lat="45.773058988357185" lon="13.623520259979902"><ele>60.99999999999999</ele><time>2026-04-03T14:57:40Z</time></trkpt><trkpt lat="45.77304351478981" lon="13.623667347339282"><ele>61.0</ele><time>2026-04-03T14:57:41Z</time></trkpt><trkpt lat="45.773029139801594" lon="13.623831762202146"><ele>61.0</ele><time>2026-04-03T14:57:42Z</time></trkpt><trkpt lat="45.77301061237372" lon="13.624002051626288"><ele>61.25</ele><time>2026-04-03T14:57:43Z</time></trkpt><trkpt lat="45.77299272896384" lon="13.6241680382164"><ele>61.5</ele><time>2026-04-03T14:57:44Z</time></trkpt><trkpt lat="45.77297389804669" lon="13.624331046632438"><ele>61.75</ele><time>2026-04-03T14:57:45Z</time></trkpt><trkpt lat="45.772957387024896" lon="13.62449639836097"><ele>62.0</ele><time>2026-04-03T14:57:46Z</time></trkpt><trkpt lat="45.77294131108203" lon="13.624659413462634"><ele>62.0</ele><time>2026-04-03T14:57:47Z</time></trkpt><trkpt lat="45.77292334986311" lon="13.624820930625875"><ele>62.0</ele><time>2026-04-03T14:57:48Z</time></trkpt><trkpt lat="45.772906378791085" lon="13.624985917589761"><ele>62.0</ele><time>2026-04-03T14:57:49Z</time></trkpt><trkpt lat="45.772889462406766" lon="13.625154229900666"><ele>62.0</ele><time>2026-04-03T14:57:50Z</time></trkpt><trkpt lat="45.7728706590507" lon="13.625339619756177"><ele>61.75</ele><time>2026-04-03T14:57:51Z</time></trkpt><trkpt lat="45.77285015337219" lon="13.625518281301678"><ele>61.5</ele><time>2026-04-03T14:57:52Z</time></trkpt><trkpt lat="45.772826482080546" lon="13.62569189572265"><ele>61.25</ele><time>2026-04-03T14:57:53Z</time></trkpt><trkpt lat="45.77280235037589" lon="13.625852651694558"><ele>61.0</ele><time>2026-04-03T14:57:54Z</time></trkpt><trkpt lat="45.772770072630955" lon="13.6260025067226"><ele>61.0</ele><time>2026-04-03T14:57:55Z</time></trkpt><trkpt lat="45.77273387520209" lon="13.626144063811273"><ele>60.99999999999999</ele><time>2026-04-03T14:57:56Z</time></trkpt><trkpt lat="45.772699874992924" lon="13.626282611432414"><ele>60.99999999999999</ele><time>2026-04-03T14:57:57Z</time></trkpt><trkpt lat="45.772660237940855" lon="13.626412089860478"><ele>61.0</ele><time>2026-04-03T14:57:58Z</time></trkpt><trkpt lat="45.77260926916533" lon="13.62653277939577"><ele>61.0</ele><time>2026-04-03T14:57:59Z</time></trkpt><trkpt lat="45.77257144897716" lon="13.626648562522538"><ele>60.83333333333333</ele><time>2026-04-03T14:58:00Z</time></trkpt><trkpt lat="45.772538703656686" lon="13.626748271864315"><ele>60.666666666666664</ele><time>2026-04-03T14:58:01Z</time></trkpt><trkpt lat="45.772523369834964" lon="13.626848396517452"><ele>60.5</ele><time>2026-04-03T14:58:02Z</time></trkpt><trkpt lat="45.7724964557054" lon="13.626946849704213"><ele>60.33333333333333</ele><time>2026-04-03T14:58:04Z</time></trkpt><trkpt lat="45.772503530756" lon="13.627066911486413"><ele>60.166666666666664</ele><time>2026-04-03T15:02:06Z</time></trkpt><trkpt lat="45.77248088064038" lon="13.627159519633013"><ele>60.0</ele><time>2026-04-03T15:02:08Z</time></trkpt><trkpt lat="45.77245655780659" lon="13.627273676109027"><ele>59.6</ele><time>2026-04-03T15:02:10Z</time></trkpt><trkpt lat="45.772454984008874" lon="13.627365854884365"><ele>59.2</ele><time>2026-04-03T15:02:11Z</time></trkpt><trkpt lat="45.77244215457598" lon="13.627465575532304"><ele>58.8</ele><time>2026-04-03T15:02:12Z</time></trkpt><trkpt lat="45.772438526738156" lon="13.627675782794077"><ele>58.4</ele><time>2026-04-03T15:02:13Z</time></trkpt><trkpt lat="45.77242700774704" lon="13.627862407532652"><ele>58.0</ele><time>2026-04-03T15:02:14Z</time></trkpt><trkpt lat="45.77239777477115" lon="13.628043712893675"><ele>58.0</ele><time>2026-04-03T15:02:15Z</time></trkpt><trkpt lat="45.772412740027995" lon="13.628230315571813"><ele>58.0</ele><time>2026-04-03T15:02:16Z</time></trkpt><trkpt lat="45.77245680519554" lon="13.628436209612573"><ele>58.0</ele><time>2026-04-03T15:02:17Z</time></trkpt><trkpt lat="45.77250077597446" lon="13.628671208396115"><ele>57.0</ele><time>2026-04-03T15:02:18Z</time></trkpt><trkpt lat="45.77254559402544" lon="13.628903195994827"><ele>56.0</ele><time>2026-04-03T15:02:19Z</time></trkpt><trkpt lat="45.77258831278834" lon="13.629132180449371"><ele>55.0</ele><time>2026-04-03T15:02:20Z</time></trkpt><trkpt lat="45.772629598739165" lon="13.629353183459745"><ele>54.5</ele><time>2026-04-03T15:02:21Z</time></trkpt><trkpt lat="45.77266934696405" lon="13.62955754941608"><ele>54.0</ele><time>2026-04-03T15:02:22Z</time></trkpt><trkpt lat="45.77270597553487" lon="13.629745274958763"><ele>53.5</ele><time>2026-04-03T15:02:23Z</time></trkpt><trkpt lat="45.77274131795085" lon="13.629930863311403"><ele>53.0</ele><time>2026-04-03T15:02:24Z</time></trkpt><trkpt lat="45.77276632695776" lon="13.63010515008656"><ele>56.0</ele><time>2026-04-03T15:02:25Z</time></trkpt><trkpt lat="45.77275784823956" lon="13.630299205798982"><ele>59.0</ele><time>2026-04-03T15:02:26Z</time></trkpt><trkpt lat="45.772741604923056" lon="13.630491553889103"><ele>62.0</ele><time>2026-04-03T15:02:27Z</time></trkpt><trkpt lat="45.77271828940652" lon="13.63069692765148"><ele>65.0</ele><time>2026-04-03T15:02:28Z</time></trkpt><trkpt lat="45.772700425311406" lon="13.6309140181027"><ele>65.66666666666667</ele><time>2026-04-03T15:02:29Z</time></trkpt><trkpt lat="45.77269683301983" lon="13.631127318233744"><ele>66.33333333333333</ele><time>2026-04-03T15:02:30Z</time></trkpt><trkpt lat="45.772721018399885" lon="13.631348619473778"><ele>67.0</ele><time>2026-04-03T15:02:31Z</time></trkpt><trkpt lat="45.77273940527045" lon="13.631561888976224"><ele>67.0</ele><time>2026-04-03T15:02:32Z</time></trkpt><trkpt lat="45.7727572766142" lon="13.631772600327507"><ele>67.0</ele><time>2026-04-03T15:02:33Z</time></trkpt><trkpt lat="45.77277075241684" lon="13.631969771360582"><ele>67.0</ele><time>2026-04-03T15:02:34Z</time></trkpt><trkpt lat="45.772776923097034" lon="13.632150915951623"><ele>67.0</ele><time>2026-04-03T15:02:35Z</time></trkpt><trkpt lat="45.77279214830121" lon="13.632326326959948"><ele>67.0</ele><time>2026-04-03T15:02:36Z</time></trkpt><trkpt lat="45.77285157885449" lon="13.632504882233095"><ele>67.0</ele><time>2026-04-03T15:02:37Z</time></trkpt><trkpt lat="45.7729322601321" lon="13.632688447134539"><ele>67.0</ele><time>2026-04-03T15:02:38Z</time></trkpt><trkpt lat="45.77301608012094" lon="13.63285997036854"><ele>67.0</ele><time>2026-04-03T15:02:39Z</time></trkpt><trkpt lat="45.77309432806092" lon="13.6330161077344"><ele>67.0</ele><time>2026-04-03T15:02:40Z</time></trkpt><trkpt lat="45.773168603399775" lon="13.633165961113987"><ele>67.0</ele><time>2026-04-03T15:02:41Z</time></trkpt><trkpt lat="45.77321570542972" lon="13.633294201022379"><ele>67.0</ele><time>2026-04-03T15:02:42Z</time></trkpt><trkpt lat="45.773265250695964" lon="13.633395599573532"><ele>67.0</ele><time>2026-04-03T15:02:43Z</time></trkpt><trkpt lat="45.77330374105981" lon="13.633495290963147"><ele>67.0</ele><time>2026-04-03T15:02:44Z</time></trkpt><trkpt lat="45.773311348924864" lon="13.633626699678373"><ele>67.75</ele><time>2026-04-03T15:02:45Z</time></trkpt><trkpt lat="45.77328703244898" lon="13.633764903337728"><ele>68.5</ele><time>2026-04-03T15:02:46Z</time></trkpt><trkpt lat="45.773236800944744" lon="13.633903244731027"><ele>69.25</ele><time>2026-04-03T15:02:47Z</time></trkpt><trkpt lat="45.7731451897993" lon="13.63400033558199"><ele>70.0</ele><time>2026-04-03T15:02:48Z</time></trkpt><trkpt lat="45.77304878265651" lon="13.634142975173607"><ele>70.0</ele><time>2026-04-03T15:02:49Z</time></trkpt><trkpt lat="45.772946498598" lon="13.634269341377493"><ele>70.0</ele><time>2026-04-03T15:02:50Z</time></trkpt><trkpt lat="45.77284446536284" lon="13.634401561335986"><ele>70.0</ele><time>2026-04-03T15:02:51Z</time></trkpt><trkpt lat="45.77274916426505" lon="13.634528153135623"><ele>70.0</ele><time>2026-04-03T15:02:52Z</time></trkpt><trkpt lat="45.77264201131536" lon="13.63461735234474"><ele>68.66666666666666</ele><time>2026-04-03T15:02:53Z</time></trkpt><trkpt lat="45.77252744193451" lon="13.634703140301674"><ele>67.33333333333333</ele><time>2026-04-03T15:02:54Z</time></trkpt><trkpt lat="45.77237351630485" lon="13.634782841310509"><ele>66.0</ele><time>2026-04-03T15:02:55Z</time></trkpt><trkpt lat="45.77222310114497" lon="13.634854981204533"><ele>66.0</ele><time>2026-04-03T15:02:56Z</time></trkpt><trkpt lat="45.772070502066384" lon="13.63490546649492"><ele>66.0</ele><time>2026-04-03T15:02:57Z</time></trkpt><trkpt lat="45.77192239842897" lon="13.634946101235833"><ele>66.0</ele><time>2026-04-03T15:02:58Z</time></trkpt><trkpt lat="45.77178268318243" lon="13.63497530752077"><ele>66.0</ele><time>2026-04-03T15:02:59Z</time></trkpt><trkpt lat="45.77164946729884" lon="13.635010070283393"><ele>63.0</ele><time>2026-04-03T15:03:00Z</time></trkpt><trkpt lat="45.77151968032342" lon="13.635012405559893"><ele>60.0</ele><time>2026-04-03T15:03:01Z</time></trkpt><trkpt lat="45.771390556406814" lon="13.634973935015573"><ele>57.0</ele><time>2026-04-03T15:03:01.999Z</time></trkpt><trkpt lat="45.771269985758956" lon="13.634883458926497"><ele>54.0</ele><time>2026-04-03T15:03:02.999Z</time></trkpt><trkpt lat="45.77114697896361" lon="13.634786956105144"><ele>54.0</ele><time>2026-04-03T15:03:03.999Z</time></trkpt><trkpt lat="45.77106705430369" lon="13.63460074608166"><ele>54.0</ele><time>2026-04-03T15:03:04.999Z</time></trkpt><trkpt lat="45.77095894476374" lon="13.63449554448386"><ele>54.0</ele><time>2026-04-03T15:03:05.999Z</time></trkpt><trkpt lat="45.77083763033485" lon="13.634433806687607"><ele>54.0</ele><time>2026-04-03T15:03:06.999Z</time></trkpt><trkpt lat="45.77069083331062" lon="13.634423714234412"><ele>52.0</ele><time>2026-04-03T15:03:07.999Z</time></trkpt><trkpt lat="45.7705441840809" lon="13.63437783197457"><ele>50.0</ele><time>2026-04-03T15:03:08.999Z</time></trkpt><trkpt lat="45.770406569897645" lon="13.634347226540097"><ele>48.0</ele><time>2026-04-03T15:03:09.999Z</time></trkpt><trkpt lat="45.770277843655556" lon="13.634350747727032"><ele>46.0</ele><time>2026-04-03T15:03:10.999Z</time></trkpt><trkpt lat="45.77015455535426" lon="13.6343408250027"><ele>45.75</ele><time>2026-04-03T15:03:11.999Z</time></trkpt><trkpt lat="45.770034839965604" lon="13.634335696233844"><ele>45.5</ele><time>2026-04-03T15:03:12.999Z</time></trkpt><trkpt lat="45.7699166624305" lon="13.634343167283424"><ele>45.25</ele><time>2026-04-03T15:03:13.999Z</time></trkpt><trkpt lat="45.76980745307938" lon="13.634344222722293"><ele>45.0</ele><time>2026-04-03T15:03:14.999Z</time></trkpt><trkpt lat="45.769696455368496" lon="13.634341846556719"><ele>45.0</ele><time>2026-04-03T15:03:15.999Z</time></trkpt><trkpt lat="45.76958371823389" lon="13.634341942123612"><ele>45.0</ele><time>2026-04-03T15:03:16.999Z</time></trkpt><trkpt lat="45.76947036384763" lon="13.634345068069512"><ele>45.0</ele><time>2026-04-03T15:03:17.999Z</time></trkpt><trkpt lat="45.76936289850747" lon="13.634317707782333"><ele>45.0</ele><time>2026-04-03T15:03:18.999Z</time></trkpt><trkpt lat="45.7692542148705" lon="13.634270153584662"><ele>45.0</ele><time>2026-04-03T15:03:19.999Z</time></trkpt><trkpt lat="45.769138325458314" lon="13.63422811209759"><ele>44.833333333333336</ele><time>2026-04-03T15:03:20.999Z</time></trkpt><trkpt lat="45.76904075290275" lon="13.634167925322945"><ele>44.666666666666664</ele><time>2026-04-03T15:03:21.999Z</time></trkpt><trkpt lat="45.768956589003025" lon="13.634123176180873"><ele>44.5</ele><time>2026-04-03T15:03:22.999Z</time></trkpt><trkpt lat="45.7688909938115" lon="13.634082570384203"><ele>44.33333333333333</ele><time>2026-04-03T15:03:23.999Z</time></trkpt><trkpt lat="45.768848500915155" lon="13.634012375146863"><ele>44.166666666666664</ele><time>2026-04-03T15:03:26.999Z</time></trkpt><trkpt lat="45.76884381811493" lon="13.633905977234622"><ele>44.0</ele><time>2026-04-03T15:03:28.999Z</time></trkpt><trkpt lat="45.768944910097474" lon="13.6338658927696"><ele>44.0</ele><time>2026-04-03T15:03:30.999Z</time></trkpt><trkpt lat="45.76901164455625" lon="13.63393160193313"><ele>44.0</ele><time>2026-04-03T15:03:31.999Z</time></trkpt><trkpt lat="45.76906575755625" lon="13.634003075625387"><ele>44.0</ele><time>2026-04-03T15:03:32.999Z</time></trkpt><trkpt lat="45.769124169653104" lon="13.634057889188332"><ele>44.0</ele><time>2026-04-03T15:03:33.999Z</time></trkpt><trkpt lat="45.76918280880478" lon="13.634095907140546"><ele>44.0</ele><time>2026-04-03T15:03:34.999Z</time></trkpt><trkpt lat="45.76924879977178" lon="13.63411988784479"><ele>44.0</ele><time>2026-04-03T15:03:35.999Z</time></trkpt><trkpt lat="45.76932257230958" lon="13.634131696686202"><ele>44.0</ele><time>2026-04-03T15:03:36.999Z</time></trkpt><trkpt lat="45.76940352151474" lon="13.634134098260374"><ele>44.2</ele><time>2026-04-03T15:03:37.999Z</time></trkpt><trkpt lat="45.76949223065123" lon="13.634112241415272"><ele>44.400000000000006</ele><time>2026-04-03T15:03:38.999Z</time></trkpt><trkpt lat="45.76957437344907" lon="13.634037797618337"><ele>44.6</ele><time>2026-04-03T15:03:39.999Z</time></trkpt><trkpt lat="45.769640857560454" lon="13.633917220397331"><ele>44.8</ele><time>2026-04-03T15:03:40.999Z</time></trkpt><trkpt lat="45.769713628098216" lon="13.633805665850307"><ele>45.0</ele><time>2026-04-03T15:03:41.999Z</time></trkpt><trkpt lat="45.769777056501106" lon="13.633685301153296"><ele>40.8</ele><time>2026-04-03T15:03:42.999Z</time></trkpt><trkpt lat="45.76983836114164" lon="13.633568965161423"><ele>36.6</ele><time>2026-04-03T15:03:43.999Z</time></trkpt><trkpt lat="45.769883752813115" lon="13.633440917419636"><ele>32.4</ele><time>2026-04-03T15:03:44.999Z</time></trkpt><trkpt lat="45.769942867987155" lon="13.633332102969256"><ele>28.2</ele><time>2026-04-03T15:03:45.999Z</time></trkpt><trkpt lat="45.770006939577904" lon="13.633211729802152"><ele>24.0</ele><time>2026-04-03T15:03:46.999Z</time></trkpt><trkpt lat="45.770067844832994" lon="13.633086756511197"><ele>24.0</ele><time>2026-04-03T15:03:48Z</time></trkpt><trkpt lat="45.77012628852104" lon="13.632965057189601"><ele>24.0</ele><time>2026-04-03T15:03:49Z</time></trkpt><trkpt lat="45.77017336747666" lon="13.632834503971289"><ele>24.0</ele><time>2026-04-03T15:03:50Z</time></trkpt><trkpt lat="45.77022247180636" lon="13.632711046078482"><ele>24.0</ele><time>2026-04-03T15:03:51Z</time></trkpt><trkpt lat="45.77028908599133" lon="13.632602423510926"><ele>24.0</ele><time>2026-04-03T15:03:52Z</time></trkpt><trkpt lat="45.7703375379705" lon="13.632475049949349"><ele>25.0</ele><time>2026-04-03T15:03:53Z</time></trkpt><trkpt lat="45.77039346069187" lon="13.632360236182937"><ele>26.0</ele><time>2026-04-03T15:03:54Z</time></trkpt><trkpt lat="45.7704518696343" lon="13.632235632526266"><ele>27.0</ele><time>2026-04-03T15:03:55Z</time></trkpt><trkpt lat="45.77055478300322" lon="13.63210861780995"><ele>28.0</ele><time>2026-04-03T15:03:56Z</time></trkpt><trkpt lat="45.77070328359481" lon="13.63198716636843"><ele>28.5</ele><time>2026-04-03T15:03:57Z</time></trkpt><trkpt lat="45.77083283085166" lon="13.63189840825453"><ele>29.0</ele><time>2026-04-03T15:03:58Z</time></trkpt><trkpt lat="45.77094799833194" lon="13.631822348206807"><ele>29.5</ele><time>2026-04-03T15:03:59Z</time></trkpt><trkpt lat="45.77104782333186" lon="13.631756274390563"><ele>30.0</ele><time>2026-04-03T15:04:00Z</time></trkpt><trkpt lat="45.771135042171935" lon="13.631695661261721"><ele>30.0</ele><time>2026-04-03T15:04:01Z</time></trkpt><trkpt lat="45.771206031050234" lon="13.631644583902105"><ele>30.0</ele><time>2026-04-03T15:04:02Z</time></trkpt><trkpt lat="45.77127430212815" lon="13.631604396137885"><ele>30.0</ele><time>2026-04-03T15:04:03Z</time></trkpt><trkpt lat="45.771335708820786" lon="13.631564117790584"><ele>30.0</ele><time>2026-04-03T15:04:04Z</time></trkpt><trkpt lat="45.77138317037289" lon="13.631495388368071"><ele>30.0</ele><time>2026-04-03T15:04:05Z</time></trkpt><trkpt lat="45.77141729585087" lon="13.63141936089565"><ele>30.0</ele><time>2026-04-03T15:04:06Z</time></trkpt><trkpt lat="45.77140131254214" lon="13.631315980533392"><ele>30.0</ele><time>2026-04-03T15:04:07Z</time></trkpt><trkpt lat="45.77132295192177" lon="13.631250321168046"><ele>30.0</ele><time>2026-04-03T15:04:08Z</time></trkpt><trkpt lat="45.77126069603498" lon="13.631193674707736"><ele>30.0</ele><time>2026-04-03T15:04:09Z</time></trkpt><trkpt lat="45.77118990142798" lon="13.631144731550604"><ele>30.0</ele><time>2026-04-03T15:04:10Z</time></trkpt><trkpt lat="45.77111395371552" lon="13.631096659030156"><ele>30.0</ele><time>2026-04-03T15:04:11Z</time></trkpt><trkpt lat="45.77105167867554" lon="13.63104123431808"><ele>30.0</ele><time>2026-04-03T15:04:12Z</time></trkpt><trkpt lat="45.770954226290414" lon="13.630947155268617"><ele>30.0</ele><time>2026-04-03T15:04:14Z</time></trkpt><trkpt lat="45.7708831041686" lon="13.630895987503703"><ele>23.75</ele><time>2026-04-03T15:04:16Z</time></trkpt><trkpt lat="45.77082989685405" lon="13.630844170099438"><ele>17.5</ele><time>2026-04-03T15:04:19Z</time></trkpt><trkpt lat="45.77090996939824" lon="13.630806007956432"><ele>11.25</ele><time>2026-04-03T15:04:21Z</time></trkpt><trkpt lat="45.770884530052314" lon="13.630892701558334"><ele>5.0</ele><time>2026-04-03T15:04:33Z</time></trkpt><trkpt lat="45.770643689780535" lon="13.630761742058917"><ele>5.0</ele><time>2026-04-03T15:04:59Z</time></trkpt><trkpt lat="45.77065458700351" lon="13.630880538749139"><ele>5.0</ele><time>2026-04-03T15:05:23.999Z</time></trkpt><trkpt lat="45.77062395969554" lon="13.630781024012899"><ele>5.0</ele><time>2026-04-03T15:12:15Z</time></trkpt><trkpt lat="45.77068987038742" lon="13.630751690072318"><ele>5.0</ele><time>2026-04-03T15:25:51Z</time></trkpt><trkpt lat="45.7707586162056" lon="13.630810393170373"><ele>5.0</ele><time>2026-04-03T15:25:54Z</time></trkpt><trkpt lat="45.77082160833876" lon="13.630931680200057"><ele>5.0</ele><time>2026-04-03T15:25:56Z</time></trkpt><trkpt lat="45.7709151332382" lon="13.631002452330785"><ele>9.0</ele><time>2026-04-03T15:25:57Z</time></trkpt><trkpt lat="45.77105722678778" lon="13.631096660392467"><ele>13.0</ele><time>2026-04-03T15:25:58Z</time></trkpt><trkpt lat="45.771199982768294" lon="13.631205965506354"><ele>17.0</ele><time>2026-04-03T15:25:59Z</time></trkpt><trkpt lat="45.77130576920965" lon="13.631293234024014"><ele>21.0</ele><time>2026-04-03T15:26:00Z</time></trkpt><trkpt lat="45.77137607606462" lon="13.631352879940122"><ele>19.400000000000002</ele><time>2026-04-03T15:26:01Z</time></trkpt><trkpt lat="45.77141587849819" lon="13.631492516923693"><ele>17.8</ele><time>2026-04-03T15:26:03Z</time></trkpt><trkpt lat="45.771375368544476" lon="13.631568250667094"><ele>16.200000000000003</ele><time>2026-04-03T15:26:04Z</time></trkpt><trkpt lat="45.77127142204379" lon="13.631666680634222"><ele>14.600000000000001</ele><time>2026-04-03T15:26:05Z</time></trkpt><trkpt lat="45.77112707518288" lon="13.63172775213992"><ele>13.0</ele><time>2026-04-03T15:26:06Z</time></trkpt><trkpt lat="45.77093837641409" lon="13.631851503572017"><ele>13.0</ele><time>2026-04-03T15:26:07Z</time></trkpt><trkpt lat="45.77074988887165" lon="13.631970704077203"><ele>13.0</ele><time>2026-04-03T15:26:08Z</time></trkpt><trkpt lat="45.77057159880751" lon="13.63210413435573"><ele>13.0</ele><time>2026-04-03T15:26:09Z</time></trkpt><trkpt lat="45.77041289180547" lon="13.632252295594945"><ele>16.666666666666664</ele><time>2026-04-03T15:26:10Z</time></trkpt><trkpt lat="45.77032764138094" lon="13.632462509676628"><ele>20.333333333333332</ele><time>2026-04-03T15:26:11Z</time></trkpt><trkpt lat="45.77020892176825" lon="13.632695524819317"><ele>24.0</ele><time>2026-04-03T15:26:12Z</time></trkpt><trkpt lat="45.7701154374598" lon="13.632951181766655"><ele>24.0</ele><time>2026-04-03T15:26:13Z</time></trkpt><trkpt lat="45.76998193689064" lon="13.633200229433818"><ele>24.0</ele><time>2026-04-03T15:26:14Z</time></trkpt><trkpt lat="45.76986681366072" lon="13.633430871581638"><ele>24.0</ele><time>2026-04-03T15:26:15Z</time></trkpt><trkpt lat="45.769784758543146" lon="13.633591607531908"><ele>28.2</ele><time>2026-04-03T15:26:16Z</time></trkpt><trkpt lat="45.769689848428875" lon="13.633771715093644"><ele>32.4</ele><time>2026-04-03T15:26:17Z</time></trkpt><trkpt lat="45.76963152413366" lon="13.633882702589005"><ele>36.6</ele><time>2026-04-03T15:26:18Z</time></trkpt><trkpt lat="45.769583481542384" lon="13.633974138264241"><ele>40.8</ele><time>2026-04-03T15:26:19Z</time></trkpt><trkpt lat="45.76953602576792" lon="13.634052514067992"><ele>45.0</ele><time>2026-04-03T15:26:20Z</time></trkpt><trkpt lat="45.76941411727912" lon="13.634097676384675"><ele>44.833333333333336</ele><time>2026-04-03T15:26:22Z</time></trkpt><trkpt lat="45.76934133212668" lon="13.634100616452601"><ele>44.666666666666664</ele><time>2026-04-03T15:26:23Z</time></trkpt><trkpt lat="45.76926140062127" lon="13.634083382019115"><ele>44.5</ele><time>2026-04-03T15:26:24Z</time></trkpt><trkpt lat="45.769187915056385" lon="13.63404310543505"><ele>44.33333333333333</ele><time>2026-04-03T15:26:25Z</time></trkpt><trkpt lat="45.76911731012633" lon="13.63398994485184"><ele>44.166666666666664</ele><time>2026-04-03T15:26:26Z</time></trkpt><trkpt lat="45.769051748818086" lon="13.633924496363992"><ele>44.0</ele><time>2026-04-03T15:26:27Z</time></trkpt><trkpt lat="45.76899662233996" lon="13.63387750170381"><ele>44.0</ele><time>2026-04-03T15:26:28Z</time></trkpt><trkpt lat="45.76891624119201" lon="13.633816228430645"><ele>44.0</ele><time>2026-04-03T15:26:30Z</time></trkpt><trkpt lat="45.7688091214263" lon="13.633832081350379"><ele>44.0</ele><time>2026-04-03T15:26:32Z</time></trkpt><trkpt lat="45.76877235050158" lon="13.633910892972558"><ele>44.0</ele><time>2026-04-03T15:26:33Z</time></trkpt><trkpt lat="45.76877459189841" lon="13.634018367052882"><ele>44.0</ele><time>2026-04-03T15:26:34Z</time></trkpt><trkpt lat="45.76881471678126" lon="13.634092618560217"><ele>44.0</ele><time>2026-04-03T15:26:35Z</time></trkpt><trkpt lat="45.76889664761948" lon="13.634129156299183"><ele>44.0</ele><time>2026-04-03T15:26:36Z</time></trkpt><trkpt lat="45.76900426508074" lon="13.634166629586687"><ele>44.0</ele><time>2026-04-03T15:26:37Z</time></trkpt><trkpt lat="45.769104298379354" lon="13.63422338149439"><ele>44.0</ele><time>2026-04-03T15:26:38Z</time></trkpt><trkpt lat="45.769213680653024" lon="13.634281673260661"><ele>44.0</ele><time>2026-04-03T15:26:39Z</time></trkpt><trkpt lat="45.76933697088579" lon="13.63433871971219"><ele>44.2</ele><time>2026-04-03T15:26:40Z</time></trkpt><trkpt lat="45.76944657809076" lon="13.634371684391349"><ele>44.400000000000006</ele><time>2026-04-03T15:26:41Z</time></trkpt><trkpt lat="45.76955195709909" lon="13.634365633652582"><ele>44.6</ele><time>2026-04-03T15:26:42Z</time></trkpt><trkpt lat="45.76966630655672" lon="13.634358986987372"><ele>44.8</ele><time>2026-04-03T15:26:43Z</time></trkpt><trkpt lat="45.76976559703036" lon="13.634359103260298"><ele>45.0</ele><time>2026-04-03T15:26:44Z</time></trkpt><trkpt lat="45.76988516962868" lon="13.634358579419493"><ele>45.0</ele><time>2026-04-03T15:26:45Z</time></trkpt><trkpt lat="45.7700070821028" lon="13.6343680164852"><ele>45.0</ele><time>2026-04-03T15:26:46Z</time></trkpt><trkpt lat="45.77011365680603" lon="13.634364283633943"><ele>45.0</ele><time>2026-04-03T15:26:47Z</time></trkpt><trkpt lat="45.77021276732318" lon="13.634361063200416"><ele>45.0</ele><time>2026-04-03T15:26:48Z</time></trkpt><trkpt lat="45.770315146182206" lon="13.634367062960425"><ele>45.0</ele><time>2026-04-03T15:26:49Z</time></trkpt><trkpt lat="45.77041671110837" lon="13.634387495229745"><ele>45.2</ele><time>2026-04-03T15:26:50Z</time></trkpt><trkpt lat="45.77052202104702" lon="13.634411847775501"><ele>45.4</ele><time>2026-04-03T15:26:51Z</time></trkpt><trkpt lat="45.77062561461713" lon="13.634436018809883"><ele>45.599999999999994</ele><time>2026-04-03T15:26:52Z</time></trkpt><trkpt lat="45.770722335085196" lon="13.634456225537892"><ele>45.8</ele><time>2026-04-03T15:26:53Z</time></trkpt><trkpt lat="45.77079861822606" lon="13.634472335343766"><ele>46.0</ele><time>2026-04-03T15:26:54Z</time></trkpt><trkpt lat="45.77086770493714" lon="13.63449960260017"><ele>47.599999999999994</ele><time>2026-04-03T15:26:55Z</time></trkpt><trkpt lat="45.77094119145468" lon="13.634538253547486"><ele>49.2</ele><time>2026-04-03T15:26:56Z</time></trkpt><trkpt lat="45.771022891118236" lon="13.634607078706"><ele>50.800000000000004</ele><time>2026-04-03T15:26:57Z</time></trkpt><trkpt lat="45.77109086531542" lon="13.634688008849151"><ele>52.400000000000006</ele><time>2026-04-03T15:26:58Z</time></trkpt><trkpt lat="45.77116295648815" lon="13.634821662559933"><ele>54.0</ele><time>2026-04-03T15:26:59Z</time></trkpt><trkpt lat="45.77124678606713" lon="13.634942418338971"><ele>54.0</ele><time>2026-04-03T15:27:00Z</time></trkpt><trkpt lat="45.77134195205896" lon="13.635016815482153"><ele>54.0</ele><time>2026-04-03T15:27:01Z</time></trkpt><trkpt lat="45.77144713216449" lon="13.635077764151621"><ele>54.0</ele><time>2026-04-03T15:27:02Z</time></trkpt><trkpt lat="45.771567530153504" lon="13.635094068143644"><ele>54.0</ele><time>2026-04-03T15:27:03Z</time></trkpt><trkpt lat="45.77167563971357" lon="13.63507888873348"><ele>54.0</ele><time>2026-04-03T15:27:04Z</time></trkpt><trkpt lat="45.77177786662146" lon="13.635040328425642"><ele>54.00000000000001</ele><time>2026-04-03T15:27:05Z</time></trkpt><trkpt lat="45.771882139438944" lon="13.634992308247265"><ele>54.00000000000001</ele><time>2026-04-03T15:27:06Z</time></trkpt><trkpt lat="45.771978029032994" lon="13.63496307823383"><ele>54.0</ele><time>2026-04-03T15:27:07Z</time></trkpt><trkpt lat="45.772073946160184" lon="13.634930540236653"><ele>54.0</ele><time>2026-04-03T15:27:08Z</time></trkpt><trkpt lat="45.772171764845154" lon="13.634901162878334"><ele>56.400000000000006</ele><time>2026-04-03T15:27:09Z</time></trkpt><trkpt lat="45.772272082060795" lon="13.634868902675928"><ele>58.800000000000004</ele><time>2026-04-03T15:27:10Z</time></trkpt><trkpt lat="45.77236764606994" lon="13.634833721103266"><ele>61.199999999999996</ele><time>2026-04-03T15:27:11Z</time></trkpt><trkpt lat="45.77246150044166" lon="13.634798672539553"><ele>63.599999999999994</ele><time>2026-04-03T15:27:12Z</time></trkpt><trkpt lat="45.772551037258296" lon="13.634742735622872"><ele>66.0</ele><time>2026-04-03T15:27:13Z</time></trkpt><trkpt lat="45.772634322131424" lon="13.634674567146487"><ele>66.8</ele><time>2026-04-03T15:27:14Z</time></trkpt><trkpt lat="45.77271396397319" lon="13.634595623794013"><ele>67.6</ele><time>2026-04-03T15:27:15Z</time></trkpt><trkpt lat="45.77278833020452" lon="13.634513022925553"><ele>68.4</ele><time>2026-04-03T15:27:16Z</time></trkpt><trkpt lat="45.772858518402586" lon="13.634417804974461"><ele>69.2</ele><time>2026-04-03T15:27:17Z</time></trkpt><trkpt lat="45.77293077595867" lon="13.634316848308993"><ele>70.0</ele><time>2026-04-03T15:27:18Z</time></trkpt><trkpt lat="45.77300707783155" lon="13.634228120837951"><ele>70.0</ele><time>2026-04-03T15:27:19Z</time></trkpt><trkpt lat="45.773082452816986" lon="13.634140420495063"><ele>70.0</ele><time>2026-04-03T15:27:20Z</time></trkpt><trkpt lat="45.773146706724035" lon="13.634059826816463"><ele>70.0</ele><time>2026-04-03T15:27:21Z</time></trkpt><trkpt lat="45.773202595875375" lon="13.633976745947603"><ele>70.0</ele><time>2026-04-03T15:27:22Z</time></trkpt><trkpt lat="45.7732617964523" lon="13.63389928830701"><ele>70.0</ele><time>2026-04-03T15:27:23Z</time></trkpt><trkpt lat="45.77330080171451" lon="13.633808375948847"><ele>70.0</ele><time>2026-04-03T15:27:24Z</time></trkpt><trkpt lat="45.77332192892215" lon="13.633704548024415"><ele>69.5</ele><time>2026-04-03T15:27:25Z</time></trkpt><trkpt lat="45.773339143306735" lon="13.633593874677619"><ele>69.0</ele><time>2026-04-03T15:27:26Z</time></trkpt><trkpt lat="45.77330781817439" lon="13.633488141684076"><ele>68.5</ele><time>2026-04-03T15:27:27Z</time></trkpt><trkpt lat="45.77327410407883" lon="13.63338732828651"><ele>68.0</ele><time>2026-04-03T15:27:28Z</time></trkpt><trkpt lat="45.77324191687976" lon="13.633280529493954"><ele>67.5</ele><time>2026-04-03T15:27:29Z</time></trkpt><trkpt lat="45.77319674212138" lon="13.633181619825697"><ele>67.0</ele><time>2026-04-03T15:27:30Z</time></trkpt><trkpt lat="45.773145515553956" lon="13.633102969267771"><ele>67.0</ele><time>2026-04-03T15:27:31Z</time></trkpt><trkpt lat="45.77309903497002" lon="13.633008548615695"><ele>67.0</ele><time>2026-04-03T15:27:32Z</time></trkpt><trkpt lat="45.77305592815209" lon="13.632914024258781"><ele>67.0</ele><time>2026-04-03T15:27:33Z</time></trkpt><trkpt lat="45.77301229497451" lon="13.6328154706514"><ele>67.0</ele><time>2026-04-03T15:27:34Z</time></trkpt><trkpt lat="45.7729683092669" lon="13.632718248376777"><ele>67.0</ele><time>2026-04-03T15:27:35Z</time></trkpt><trkpt lat="45.77292003411963" lon="13.632618169905324"><ele>67.0</ele><time>2026-04-03T15:27:36Z</time></trkpt><trkpt lat="45.77286639574392" lon="13.632502093110697"><ele>67.0</ele><time>2026-04-03T15:27:37Z</time></trkpt><trkpt lat="45.77282550387775" lon="13.632370085005059"><ele>67.0</ele><time>2026-04-03T15:27:38Z</time></trkpt><trkpt lat="45.772800070049094" lon="13.632247895304644"><ele>67.0</ele><time>2026-04-03T15:27:39Z</time></trkpt><trkpt lat="45.77278992229605" lon="13.632127317856627"><ele>67.0</ele><time>2026-04-03T15:27:40Z</time></trkpt><trkpt lat="45.77278835883227" lon="13.631998455559074"><ele>67.0</ele><time>2026-04-03T15:27:41Z</time></trkpt><trkpt lat="45.772787906068686" lon="13.631871050241749"><ele>67.0</ele><time>2026-04-03T15:27:42Z</time></trkpt><trkpt lat="45.77278190301336" lon="13.631734896190334"><ele>67.0</ele><time>2026-04-03T15:27:43Z</time></trkpt><trkpt lat="45.7727685155226" lon="13.63158560387123"><ele>67.0</ele><time>2026-04-03T15:27:44Z</time></trkpt><trkpt lat="45.772759553088505" lon="13.631432584256657"><ele>67.0</ele><time>2026-04-03T15:27:45Z</time></trkpt><trkpt lat="45.77274479359379" lon="13.631299250976506"><ele>67.0</ele><time>2026-04-03T15:27:46Z</time></trkpt><trkpt lat="45.77273048566607" lon="13.631160850694021"><ele>67.0</ele><time>2026-04-03T15:27:47Z</time></trkpt><trkpt lat="45.77272551155551" lon="13.631026317188345"><ele>67.0</ele><time>2026-04-03T15:27:48Z</time></trkpt><trkpt lat="45.77273292855969" lon="13.630902658859911"><ele>67.0</ele><time>2026-04-03T15:27:49Z</time></trkpt><trkpt lat="45.77274449626064" lon="13.63078348112034"><ele>67.0</ele><time>2026-04-03T15:27:50Z</time></trkpt><trkpt lat="45.77275572386404" lon="13.630675057150642"><ele>67.0</ele><time>2026-04-03T15:27:51Z</time></trkpt><trkpt lat="45.77276652764001" lon="13.630568660922085"><ele>67.0</ele><time>2026-04-03T15:27:52Z</time></trkpt><trkpt lat="45.77278221284099" lon="13.630453544332466"><ele>67.0</ele><time>2026-04-03T15:27:53Z</time></trkpt><trkpt lat="45.7727936742616" lon="13.630332558904346"><ele>67.0</ele><time>2026-04-03T15:27:54Z</time></trkpt><trkpt lat="45.772793233950665" lon="13.630200550211965"><ele>67.0</ele><time>2026-04-03T15:27:55Z</time></trkpt><trkpt lat="45.7727868822871" lon="13.63005642899625"><ele>67.0</ele><time>2026-04-03T15:27:56Z</time></trkpt><trkpt lat="45.77276588818577" lon="13.62991041516431"><ele>67.0</ele><time>2026-04-03T15:27:57Z</time></trkpt><trkpt lat="45.77272756553478" lon="13.62976933421667"><ele>66.6</ele><time>2026-04-03T15:27:58Z</time></trkpt><trkpt lat="45.77269826915784" lon="13.629638616048267"><ele>66.2</ele><time>2026-04-03T15:27:59Z</time></trkpt><trkpt lat="45.772673492470844" lon="13.629509144663542"><ele>65.8</ele><time>2026-04-03T15:28:00Z</time></trkpt><trkpt lat="45.77264997377063" lon="13.62937624252455"><ele>65.4</ele><time>2026-04-03T15:28:01Z</time></trkpt><trkpt lat="45.7726298015217" lon="13.629240377071673"><ele>65.0</ele><time>2026-04-03T15:28:02Z</time></trkpt><trkpt lat="45.772604063028744" lon="13.629105188491364"><ele>63.6</ele><time>2026-04-03T15:28:03Z</time></trkpt><trkpt lat="45.77257578360383" lon="13.62896772765057"><ele>62.2</ele><time>2026-04-03T15:28:04Z</time></trkpt><trkpt lat="45.772543466103066" lon="13.628829710533788"><ele>60.8</ele><time>2026-04-03T15:28:05Z</time></trkpt><trkpt lat="45.77251395471595" lon="13.628692134682257"><ele>59.4</ele><time>2026-04-03T15:28:06Z</time></trkpt><trkpt lat="45.772493775386316" lon="13.628559637493632"><ele>58.0</ele><time>2026-04-03T15:28:07Z</time></trkpt><trkpt lat="45.772474078844276" lon="13.628442719955707"><ele>58.0</ele><time>2026-04-03T15:28:08Z</time></trkpt><trkpt lat="45.772454400538955" lon="13.628338112709098"><ele>58.0</ele><time>2026-04-03T15:28:09Z</time></trkpt><trkpt lat="45.77244380918518" lon="13.628233636374832"><ele>58.0</ele><time>2026-04-03T15:28:10Z</time></trkpt><trkpt lat="45.77243463316102" lon="13.628081499426951"><ele>58.0</ele><time>2026-04-03T15:28:12Z</time></trkpt><trkpt lat="45.772439829840984" lon="13.627867117388949"><ele>58.0</ele><time>2026-04-03T15:28:14Z</time></trkpt><trkpt lat="45.77245068775364" lon="13.627759428467153"><ele>57.99999999999999</ele><time>2026-04-03T15:28:15Z</time></trkpt><trkpt lat="45.77247996568505" lon="13.627675322956648"><ele>58.0</ele><time>2026-04-03T15:28:16Z</time></trkpt><trkpt lat="45.772546223027064" lon="13.627602444662681"><ele>58.0</ele><time>2026-04-03T15:28:17Z</time></trkpt><trkpt lat="45.7726515120581" lon="13.627539136740195"><ele>58.0</ele><time>2026-04-03T15:28:18Z</time></trkpt><trkpt lat="45.77273555133262" lon="13.6274932704355"><ele>57.99999999999999</ele><time>2026-04-03T15:28:19Z</time></trkpt><trkpt lat="45.77276584494116" lon="13.627412410367086"><ele>58.0</ele><time>2026-04-03T15:28:38Z</time></trkpt><trkpt lat="45.77281568188074" lon="13.627286202042374"><ele>57.666666666666664</ele><time>2026-04-03T15:28:39Z</time></trkpt><trkpt lat="45.77278669092088" lon="13.627073440012143"><ele>57.33333333333333</ele><time>2026-04-03T15:28:40Z</time></trkpt><trkpt lat="45.772781496852225" lon="13.626790424352915"><ele>57.0</ele><time>2026-04-03T15:28:41Z</time></trkpt><trkpt lat="45.772787972405325" lon="13.626458200678902"><ele>59.0</ele><time>2026-04-03T15:28:42Z</time></trkpt><trkpt lat="45.77282868099615" lon="13.626097609071158"><ele>61.0</ele><time>2026-04-03T15:28:43Z</time></trkpt><trkpt lat="45.77286978487146" lon="13.625721337730623"><ele>61.0</ele><time>2026-04-03T15:28:44Z</time></trkpt><trkpt lat="45.7728921744928" lon="13.625390184435053"><ele>61.0</ele><time>2026-04-03T15:28:45Z</time></trkpt><trkpt lat="45.77292681268011" lon="13.625098818897225"><ele>61.0</ele><time>2026-04-03T15:28:46Z</time></trkpt><trkpt lat="45.772957446642295" lon="13.624828934191427"><ele>61.33333333333333</ele><time>2026-04-03T15:28:47Z</time></trkpt><trkpt lat="45.772986309522565" lon="13.624579645997892"><ele>61.66666666666667</ele><time>2026-04-03T15:28:48Z</time></trkpt><trkpt lat="45.77301314522165" lon="13.624354714226884"><ele>62.0</ele><time>2026-04-03T15:28:49Z</time></trkpt><trkpt lat="45.7730350803207" lon="13.624163463645019"><ele>62.0</ele><time>2026-04-03T15:28:50Z</time></trkpt><trkpt lat="45.77305557664605" lon="13.623983047244579"><ele>62.0</ele><time>2026-04-03T15:28:51Z</time></trkpt><trkpt lat="45.77308057293405" lon="13.623803895736376"><ele>62.0</ele><time>2026-04-03T15:28:52Z</time></trkpt><trkpt lat="45.77309873843049" lon="13.623595423091059"><ele>62.0</ele><time>2026-04-03T15:28:53Z</time></trkpt><trkpt lat="45.773108393961955" lon="13.623353568127433"><ele>61.66666666666667</ele><time>2026-04-03T15:28:54Z</time></trkpt><trkpt lat="45.77312179285964" lon="13.623127023465385"><ele>61.33333333333333</ele><time>2026-04-03T15:28:55Z</time></trkpt><trkpt lat="45.773136419209905" lon="13.622917396157222"><ele>61.0</ele><time>2026-04-03T15:28:56Z</time></trkpt><trkpt lat="45.77314723749275" lon="13.622702901462668"><ele>60.33333333333333</ele><time>2026-04-03T15:28:57Z</time></trkpt><trkpt lat="45.77316575015584" lon="13.622490067046641"><ele>59.66666666666667</ele><time>2026-04-03T15:28:58Z</time></trkpt><trkpt lat="45.77319029992585" lon="13.622273257262144"><ele>59.0</ele><time>2026-04-03T15:28:59Z</time></trkpt><trkpt lat="45.77321023697783" lon="13.622051740322624"><ele>59.66666666666667</ele><time>2026-04-03T15:29:00Z</time></trkpt><trkpt lat="45.77323340080382" lon="13.621835010782428"><ele>60.33333333333333</ele><time>2026-04-03T15:29:01Z</time></trkpt><trkpt lat="45.77326463765787" lon="13.621598523425256"><ele>61.0</ele><time>2026-04-03T15:29:02.001Z</time></trkpt><trkpt lat="45.77328578363706" lon="13.621372558884921"><ele>61.0</ele><time>2026-04-03T15:29:03Z</time></trkpt><trkpt lat="45.773299944731015" lon="13.621164209627981"><ele>61.0</ele><time>2026-04-03T15:29:04Z</time></trkpt><trkpt lat="45.77331858354566" lon="13.620956980250472"><ele>61.0</ele><time>2026-04-03T15:29:05Z</time></trkpt><trkpt lat="45.7733356730277" lon="13.620748184150777"><ele>61.0</ele><time>2026-04-03T15:29:06Z</time></trkpt><trkpt lat="45.773350081074575" lon="13.620542171752962"><ele>61.0</ele><time>2026-04-03T15:29:07Z</time></trkpt><trkpt lat="45.77336283193884" lon="13.620334218135008"><ele>61.0</ele><time>2026-04-03T15:29:08Z</time></trkpt><trkpt lat="45.77337751949604" lon="13.620125462921237"><ele>61.0</ele><time>2026-04-03T15:29:09Z</time></trkpt><trkpt lat="45.77339208656303" lon="13.619915328198624"><ele>61.0</ele><time>2026-04-03T15:29:10Z</time></trkpt><trkpt lat="45.77340890711629" lon="13.619705416046774"><ele>61.33333333333333</ele><time>2026-04-03T15:29:11Z</time></trkpt><trkpt lat="45.773425076957764" lon="13.61948719503199"><ele>61.66666666666667</ele><time>2026-04-03T15:29:12Z</time></trkpt><trkpt lat="45.77343854658302" lon="13.619265931815907"><ele>62.0</ele><time>2026-04-03T15:29:13Z</time></trkpt><trkpt lat="45.773456558292054" lon="13.619041667295173"><ele>61.0</ele><time>2026-04-03T15:29:14Z</time></trkpt><trkpt lat="45.77346725123023" lon="13.61884700987238"><ele>60.0</ele><time>2026-04-03T15:29:15Z</time></trkpt><trkpt lat="45.77348229760599" lon="13.618653393797532"><ele>59.0</ele><time>2026-04-03T15:29:16Z</time></trkpt><trkpt lat="45.77349537505009" lon="13.618457031443807"><ele>58.0</ele><time>2026-04-03T15:29:17Z</time></trkpt><trkpt lat="45.773509683530584" lon="13.61826365415711"><ele>57.75</ele><time>2026-04-03T15:29:18Z</time></trkpt><trkpt lat="45.7735267119502" lon="13.618074036411437"><ele>57.5</ele><time>2026-04-03T15:29:19Z</time></trkpt><trkpt lat="45.773541438361725" lon="13.617882729238097"><ele>57.25</ele><time>2026-04-03T15:29:20Z</time></trkpt><trkpt lat="45.773555846842825" lon="13.617690337432954"><ele>57.0</ele><time>2026-04-03T15:29:21Z</time></trkpt><trkpt lat="45.77357154082409" lon="13.61749621786709"><ele>57.0</ele><time>2026-04-03T15:29:22Z</time></trkpt><trkpt lat="45.77359687388769" lon="13.617308894722873"><ele>57.0</ele><time>2026-04-03T15:29:23Z</time></trkpt><trkpt lat="45.77363376697723" lon="13.617119797328527"><ele>57.0</ele><time>2026-04-03T15:29:24Z</time></trkpt><trkpt lat="45.77368298766235" lon="13.61693912346951"><ele>57.0</ele><time>2026-04-03T15:29:25Z</time></trkpt><trkpt lat="45.77374665974847" lon="13.61676604882167"><ele>57.75</ele><time>2026-04-03T15:29:26Z</time></trkpt><trkpt lat="45.7738146504825" lon="13.616593502296636"><ele>58.5</ele><time>2026-04-03T15:29:27Z</time></trkpt><trkpt lat="45.77388345258187" lon="13.616416997394094"><ele>59.25</ele><time>2026-04-03T15:29:28Z</time></trkpt><trkpt lat="45.77395114873311" lon="13.616244684313328"><ele>60.0</ele><time>2026-04-03T15:29:29Z</time></trkpt><trkpt lat="45.77401743882616" lon="13.616065623648916"><ele>60.5</ele><time>2026-04-03T15:29:30Z</time></trkpt><trkpt lat="45.77408302413061" lon="13.615883384088354"><ele>61.0</ele><time>2026-04-03T15:29:31Z</time></trkpt><trkpt lat="45.7741546020473" lon="13.615697194652219"><ele>61.5</ele><time>2026-04-03T15:29:32Z</time></trkpt><trkpt lat="45.77423105967665" lon="13.615503832760817"><ele>62.0</ele><time>2026-04-03T15:29:33Z</time></trkpt><trkpt lat="45.774308236071604" lon="13.615301566001621"><ele>61.333333333333336</ele><time>2026-04-03T15:29:34Z</time></trkpt><trkpt lat="45.774382149667034" lon="13.615095162173292"><ele>60.66666666666667</ele><time>2026-04-03T15:29:35Z</time></trkpt><trkpt lat="45.77445104422013" lon="13.614885883797614"><ele>60.0</ele><time>2026-04-03T15:29:36Z</time></trkpt><trkpt lat="45.774515792978264" lon="13.614670577330994"><ele>60.0</ele><time>2026-04-03T15:29:37Z</time></trkpt><trkpt lat="45.77457680586586" lon="13.614451828703091"><ele>60.0</ele><time>2026-04-03T15:29:38Z</time></trkpt><trkpt lat="45.774630383772504" lon="13.614227808985461"><ele>60.0</ele><time>2026-04-03T15:29:39Z</time></trkpt><trkpt lat="45.7746659915283" lon="13.614004081905557"><ele>60.0</ele><time>2026-04-03T15:29:40Z</time></trkpt><trkpt lat="45.774689033336784" lon="13.613790677463042"><ele>60.0</ele><time>2026-04-03T15:29:41Z</time></trkpt><trkpt lat="45.77470128827206" lon="13.613589114652829"><ele>60.0</ele><time>2026-04-03T15:29:42Z</time></trkpt><trkpt lat="45.774717297454416" lon="13.613401265941393"><ele>60.0</ele><time>2026-04-03T15:29:43Z</time></trkpt><trkpt lat="45.77473101048382" lon="13.613227254580293"><ele>59.6</ele><time>2026-04-03T15:29:44Z</time></trkpt><trkpt lat="45.77474008644571" lon="13.613064478309498"><ele>59.2</ele><time>2026-04-03T15:29:45Z</time></trkpt><trkpt lat="45.77474734025678" lon="13.612915047944126"><ele>58.8</ele><time>2026-04-03T15:29:46Z</time></trkpt><trkpt lat="45.7747537815031" lon="13.612782345340625"><ele>58.4</ele><time>2026-04-03T15:29:47Z</time></trkpt><trkpt lat="45.77476353317836" lon="13.61265325600238"><ele>58.0</ele><time>2026-04-03T15:29:48Z</time></trkpt><trkpt lat="45.774777987858556" lon="13.612512874642908"><ele>57.75</ele><time>2026-04-03T15:29:49Z</time></trkpt><trkpt lat="45.774793651013404" lon="13.612360660234666"><ele>57.5</ele><time>2026-04-03T15:29:50Z</time></trkpt><trkpt lat="45.774804394526" lon="13.612203051497199"><ele>57.25</ele><time>2026-04-03T15:29:51Z</time></trkpt><trkpt lat="45.774814285017655" lon="13.612040375655122"><ele>57.0</ele><time>2026-04-03T15:29:52Z</time></trkpt><trkpt lat="45.77482637758804" lon="13.611871721578533"><ele>56.75</ele><time>2026-04-03T15:29:53Z</time></trkpt><trkpt lat="45.77483201543546" lon="13.611697358137008"><ele>56.5</ele><time>2026-04-03T15:29:54Z</time></trkpt><trkpt lat="45.77482762364972" lon="13.611514957841981"><ele>56.25</ele><time>2026-04-03T15:29:55Z</time></trkpt><trkpt lat="45.77481016152011" lon="13.611332792099454"><ele>56.0</ele><time>2026-04-03T15:29:56Z</time></trkpt><trkpt lat="45.774782861860686" lon="13.611166466234653"><ele>56.25</ele><time>2026-04-03T15:29:57Z</time></trkpt><trkpt lat="45.77475637910978" lon="13.611009386675333"><ele>56.5</ele><time>2026-04-03T15:29:58Z</time></trkpt><trkpt lat="45.77473142786716" lon="13.610840706595674"><ele>56.75</ele><time>2026-04-03T15:29:59Z</time></trkpt><trkpt lat="45.77470827266919" lon="13.610663034368137"><ele>57.0</ele><time>2026-04-03T15:30:00Z</time></trkpt><trkpt lat="45.77468235243298" lon="13.610502131422177"><ele>57.0</ele><time>2026-04-03T15:30:01Z</time></trkpt><trkpt lat="45.77465676197874" lon="13.610349763055478"><ele>57.0</ele><time>2026-04-03T15:30:02Z</time></trkpt><trkpt lat="45.77463775050023" lon="13.610232707069974"><ele>57.0</ele><time>2026-04-03T15:30:03Z</time></trkpt><trkpt lat="45.77461474363732" lon="13.610086304508767"><ele>57.0</ele><time>2026-04-03T15:30:05Z</time></trkpt><trkpt lat="45.77456616411916" lon="13.609973955102904"><ele>57.0</ele><time>2026-04-03T15:30:10Z</time></trkpt><trkpt lat="45.77454854953738" lon="13.609807190821334"><ele>55.75</ele><time>2026-04-03T15:30:12Z</time></trkpt><trkpt lat="45.77453951733194" lon="13.609661790588444"><ele>54.5</ele><time>2026-04-03T15:30:24Z</time></trkpt><trkpt lat="45.77453004978557" lon="13.609503589108378"><ele>53.25</ele><time>2026-04-03T15:30:25Z</time></trkpt><trkpt lat="45.774528528281806" lon="13.609300388561323"><ele>52.0</ele><time>2026-04-03T15:30:26Z</time></trkpt><trkpt lat="45.77454605437274" lon="13.609089018240518"><ele>51.33333333333333</ele><time>2026-04-03T15:30:27Z</time></trkpt><trkpt lat="45.77456902510015" lon="13.608831686482675"><ele>50.66666666666667</ele><time>2026-04-03T15:30:28Z</time></trkpt><trkpt lat="45.77462415384613" lon="13.608514587708179"><ele>50.0</ele><time>2026-04-03T15:30:29Z</time></trkpt><trkpt lat="45.774716547949474" lon="13.608182012703134"><ele>49.5</ele><time>2026-04-03T15:30:30Z</time></trkpt><trkpt lat="45.77480859566383" lon="13.607903062959133"><ele>49.0</ele><time>2026-04-03T15:30:31Z</time></trkpt><trkpt lat="45.774849978451" lon="13.607760380473456"><ele>48.5</ele><time>2026-04-03T15:30:32Z</time></trkpt><trkpt lat="45.77489276943895" lon="13.607644904581942"><ele>48.0</ele><time>2026-04-03T15:30:33Z</time></trkpt><trkpt lat="45.77492574731278" lon="13.607521704787215"><ele>48.0</ele><time>2026-04-03T15:30:34Z</time></trkpt><trkpt lat="45.77497633873428" lon="13.607368084751343"><ele>48.0</ele><time>2026-04-03T15:30:35Z</time></trkpt><trkpt lat="45.77504127769432" lon="13.60714602783541"><ele>48.0</ele><time>2026-04-03T15:30:36Z</time></trkpt><trkpt lat="45.77513290289252" lon="13.606876180325104"><ele>48.0</ele><time>2026-04-03T15:30:37Z</time></trkpt><trkpt lat="45.77521092277923" lon="13.606640931082962"><ele>48.0</ele><time>2026-04-03T15:30:38Z</time></trkpt><trkpt lat="45.77527142642964" lon="13.60644687333072"><ele>48.0</ele><time>2026-04-03T15:30:39Z</time></trkpt><trkpt lat="45.77532117150432" lon="13.606301067084141"><ele>48.0</ele><time>2026-04-03T15:30:40Z</time></trkpt><trkpt lat="45.7753653380926" lon="13.606167662665616"><ele>47.0</ele><time>2026-04-03T15:30:41Z</time></trkpt><trkpt lat="45.7754099553146" lon="13.606026035243941"><ele>46.0</ele><time>2026-04-03T15:30:42Z</time></trkpt><trkpt lat="45.775466278140115" lon="13.605855780471034"><ele>45.0</ele><time>2026-04-03T15:30:43Z</time></trkpt><trkpt lat="45.775540755687736" lon="13.605626028468146"><ele>44.0</ele><time>2026-04-03T15:30:44Z</time></trkpt><trkpt lat="45.77563393654634" lon="13.605374875558377"><ele>43.0</ele><time>2026-04-03T15:30:45Z</time></trkpt><trkpt lat="45.77572053122907" lon="13.605113837207162"><ele>42.0</ele><time>2026-04-03T15:30:46Z</time></trkpt><trkpt lat="45.7757982579008" lon="13.604849214231091"><ele>41.0</ele><time>2026-04-03T15:30:47Z</time></trkpt><trkpt lat="45.77587902376534" lon="13.604591909951248"><ele>40.666666666666664</ele><time>2026-04-03T15:30:48Z</time></trkpt><trkpt lat="45.77595872648244" lon="13.604342660076348"><ele>40.333333333333336</ele><time>2026-04-03T15:30:49Z</time></trkpt><trkpt lat="45.77602758594678" lon="13.604096401116761"><ele>40.0</ele><time>2026-04-03T15:30:50Z</time></trkpt><trkpt lat="45.77609965620241" lon="13.603861885430776"><ele>39.333333333333336</ele><time>2026-04-03T15:30:51Z</time></trkpt><trkpt lat="45.77618668701124" lon="13.603624471148446"><ele>38.666666666666664</ele><time>2026-04-03T15:30:52Z</time></trkpt><trkpt lat="45.77627228051477" lon="13.60337406939091"><ele>38.0</ele><time>2026-04-03T15:30:53Z</time></trkpt><trkpt lat="45.77634676386077" lon="13.603118098462836"><ele>38.0</ele><time>2026-04-03T15:30:54Z</time></trkpt><trkpt lat="45.77642812688633" lon="13.602868279866835"><ele>38.0</ele><time>2026-04-03T15:30:55Z</time></trkpt><trkpt lat="45.77651104056266" lon="13.602615663425453"><ele>38.0</ele><time>2026-04-03T15:30:56Z</time></trkpt><trkpt lat="45.77659316974669" lon="13.602364232493814"><ele>36.666666666666664</ele><time>2026-04-03T15:30:57Z</time></trkpt><trkpt lat="45.776675748133435" lon="13.602108005348507"><ele>35.333333333333336</ele><time>2026-04-03T15:30:58Z</time></trkpt><trkpt lat="45.77675803048155" lon="13.601852792452284"><ele>34.0</ele><time>2026-04-03T15:30:59Z</time></trkpt><trkpt lat="45.7768408116791" lon="13.60160038797134"><ele>34.333333333333336</ele><time>2026-04-03T15:31:00Z</time></trkpt><trkpt lat="45.77692838230264" lon="13.60135112120703"><ele>34.666666666666664</ele><time>2026-04-03T15:31:01Z</time></trkpt><trkpt lat="45.77702784133147" lon="13.601114165178513"><ele>35.0</ele><time>2026-04-03T15:31:02Z</time></trkpt><trkpt lat="45.77714731167569" lon="13.600897718762079"><ele>36.33333333333333</ele><time>2026-04-03T15:31:03.001Z</time></trkpt><trkpt lat="45.77728113870213" lon="13.600700766547787"><ele>37.666666666666664</ele><time>2026-04-03T15:31:04.001Z</time></trkpt><trkpt lat="45.77742158295105" lon="13.600519126643437"><ele>39.0</ele><time>2026-04-03T15:31:05.001Z</time></trkpt><trkpt lat="45.777568387622395" lon="13.600349209153313"><ele>39.0</ele><time>2026-04-03T15:31:06.001Z</time></trkpt><trkpt lat="45.77771851148736" lon="13.600183733836044"><ele>39.0</ele><time>2026-04-03T15:31:07.001Z</time></trkpt><trkpt lat="45.777865366671946" lon="13.600010335886932"><ele>39.0</ele><time>2026-04-03T15:31:08.001Z</time></trkpt><trkpt lat="45.77800891090846" lon="13.599830345564223"><ele>39.0</ele><time>2026-04-03T15:31:09.001Z</time></trkpt><trkpt lat="45.77815678095891" lon="13.599656569175831"><ele>39.0</ele><time>2026-04-03T15:31:10.001Z</time></trkpt><trkpt lat="45.77830974075516" lon="13.599490365162985"><ele>39.0</ele><time>2026-04-03T15:31:11.001Z</time></trkpt><trkpt lat="45.778459484242774" lon="13.599327509845919"><ele>37.333333333333336</ele><time>2026-04-03T15:31:12.001Z</time></trkpt><trkpt lat="45.77859722754662" lon="13.599166343351309"><ele>35.66666666666667</ele><time>2026-04-03T15:31:13.001Z</time></trkpt><trkpt lat="45.77873251636615" lon="13.599004685903635"><ele>34.0</ele><time>2026-04-03T15:31:14.001Z</time></trkpt><trkpt lat="45.77887490394367" lon="13.598844207905236"><ele>34.0</ele><time>2026-04-03T15:31:15.001Z</time></trkpt><trkpt lat="45.779018327766295" lon="13.598681323170064"><ele>34.0</ele><time>2026-04-03T15:31:16.001Z</time></trkpt><trkpt lat="45.779161657902776" lon="13.598516625862333"><ele>34.0</ele><time>2026-04-03T15:31:17.001Z</time></trkpt><trkpt lat="45.77930452567239" lon="13.59834815937381"><ele>33.66666666666667</ele><time>2026-04-03T15:31:18.001Z</time></trkpt><trkpt lat="45.77944888120586" lon="13.598181197593997"><ele>33.333333333333336</ele><time>2026-04-03T15:31:19.001Z</time></trkpt><trkpt lat="45.77959569777881" lon="13.598013130511989"><ele>33.0</ele><time>2026-04-03T15:31:20.001Z</time></trkpt><trkpt lat="45.77974128715871" lon="13.597843729208352"><ele>32.333333333333336</ele><time>2026-04-03T15:31:21.001Z</time></trkpt><trkpt lat="45.779881509836805" lon="13.597681417808943"><ele>31.666666666666668</ele><time>2026-04-03T15:31:22.001Z</time></trkpt><trkpt lat="45.780014846141476" lon="13.597531606618809"><ele>31.0</ele><time>2026-04-03T15:31:23Z</time></trkpt><trkpt lat="45.78014113918967" lon="13.597398790546972"><ele>31.333333333333336</ele><time>2026-04-03T15:31:24Z</time></trkpt><trkpt lat="45.78027017604557" lon="13.5972841543722"><ele>31.666666666666664</ele><time>2026-04-03T15:31:25Z</time></trkpt><trkpt lat="45.780405542103416" lon="13.597197186696118"><ele>32.0</ele><time>2026-04-03T15:31:26Z</time></trkpt><trkpt lat="45.780546831135595" lon="13.597127278497881"><ele>32.0</ele><time>2026-04-03T15:31:27Z</time></trkpt><trkpt lat="45.78069189907222" lon="13.597073348201185"><ele>32.0</ele><time>2026-04-03T15:31:28Z</time></trkpt><trkpt lat="45.780847466247785" lon="13.597041700464093"><ele>32.0</ele><time>2026-04-03T15:31:29Z</time></trkpt><trkpt lat="45.78100597809096" lon="13.597032572312727"><ele>30.666666666666664</ele><time>2026-04-03T15:31:30Z</time></trkpt><trkpt lat="45.78116013113674" lon="13.59703223840855"><ele>29.333333333333336</ele><time>2026-04-03T15:31:31Z</time></trkpt><trkpt lat="45.78131192205049" lon="13.59701129963594"><ele>28.0</ele><time>2026-04-03T15:31:32Z</time></trkpt><trkpt lat="45.78147063162283" lon="13.597006360846402"><ele>26.5</ele><time>2026-04-03T15:31:33Z</time></trkpt><trkpt lat="45.781618194024134" lon="13.597001734027835"><ele>25.0</ele><time>2026-04-03T15:31:34Z</time></trkpt><trkpt lat="45.78175931409675" lon="13.596996550666544"><ele>23.5</ele><time>2026-04-03T15:31:35Z</time></trkpt><trkpt lat="45.78189826807643" lon="13.59698955788566"><ele>22.0</ele><time>2026-04-03T15:31:36Z</time></trkpt><trkpt lat="45.78203774596563" lon="13.59698284163369"><ele>21.75</ele><time>2026-04-03T15:31:37Z</time></trkpt><trkpt lat="45.782176011384266" lon="13.596975045274885"><ele>21.5</ele><time>2026-04-03T15:31:38Z</time></trkpt><trkpt lat="45.78230733121553" lon="13.596968872114497"><ele>21.25</ele><time>2026-04-03T15:31:39Z</time></trkpt><trkpt lat="45.782441068688875" lon="13.596965826129658"><ele>21.0</ele><time>2026-04-03T15:31:40Z</time></trkpt><trkpt lat="45.78257332219628" lon="13.596958988652299"><ele>21.5</ele><time>2026-04-03T15:31:41Z</time></trkpt><trkpt lat="45.782702489297805" lon="13.596955242168288"><ele>22.0</ele><time>2026-04-03T15:31:42Z</time></trkpt><trkpt lat="45.782827184851065" lon="13.59694768416"><ele>22.5</ele><time>2026-04-03T15:31:43Z</time></trkpt><trkpt lat="45.782956716588316" lon="13.596938394846957"><ele>23.0</ele><time>2026-04-03T15:31:44Z</time></trkpt><trkpt lat="45.78308268381945" lon="13.596929836856422"><ele>23.0</ele><time>2026-04-03T15:31:45Z</time></trkpt><trkpt lat="45.783203969943166" lon="13.596917761346067"><ele>23.0</ele><time>2026-04-03T15:31:46Z</time></trkpt><trkpt lat="45.783326102694744" lon="13.596899800435695"><ele>23.0</ele><time>2026-04-03T15:31:47Z</time></trkpt><trkpt lat="45.78344767302743" lon="13.596862124158754"><ele>23.0</ele><time>2026-04-03T15:31:48Z</time></trkpt><trkpt lat="45.78356463448954" lon="13.596804978597447"><ele>23.0</ele><time>2026-04-03T15:31:49Z</time></trkpt><trkpt lat="45.78367463368974" lon="13.59674411831177"><ele>23.0</ele><time>2026-04-03T15:31:50Z</time></trkpt><trkpt lat="45.78377639988927" lon="13.596672397499164"><ele>23.0</ele><time>2026-04-03T15:31:51Z</time></trkpt><trkpt lat="45.783890747716626" lon="13.596576869301243"><ele>23.0</ele><time>2026-04-03T15:31:52Z</time></trkpt><trkpt lat="45.78401530103905" lon="13.596456120802934"><ele>23.0</ele><time>2026-04-03T15:31:53Z</time></trkpt><trkpt lat="45.784154319235775" lon="13.596274461144155"><ele>23.0</ele><time>2026-04-03T15:31:54Z</time></trkpt><trkpt lat="45.784295723703806" lon="13.596064223249487"><ele>23.0</ele><time>2026-04-03T15:31:55Z</time></trkpt><trkpt lat="45.78442266628318" lon="13.595796610746822"><ele>23.333333333333336</ele><time>2026-04-03T15:31:56Z</time></trkpt><trkpt lat="45.78451534700016" lon="13.595525773585335"><ele>23.666666666666668</ele><time>2026-04-03T15:31:57Z</time></trkpt><trkpt lat="45.78459420437553" lon="13.595293239639325"><ele>24.0</ele><time>2026-04-03T15:31:58Z</time></trkpt><trkpt lat="45.784673143121466" lon="13.595095684806061"><ele>23.25</ele><time>2026-04-03T15:31:59Z</time></trkpt><trkpt lat="45.784752568877344" lon="13.594903866136214"><ele>22.5</ele><time>2026-04-03T15:32:00Z</time></trkpt><trkpt lat="45.78482644518674" lon="13.594734383710339"><ele>21.75</ele><time>2026-04-03T15:32:01Z</time></trkpt><trkpt lat="45.78489371405867" lon="13.594582451681099"><ele>21.0</ele><time>2026-04-03T15:32:02Z</time></trkpt><trkpt lat="45.7849616836686" lon="13.594434925314689"><ele>20.5</ele><time>2026-04-03T15:32:03Z</time></trkpt><trkpt lat="45.7850415467384" lon="13.594289441307396"><ele>20.0</ele><time>2026-04-03T15:32:04Z</time></trkpt><trkpt lat="45.78514546804976" lon="13.59415439787875"><ele>19.5</ele><time>2026-04-03T15:32:05Z</time></trkpt><trkpt lat="45.78527227887876" lon="13.594041534898068"><ele>19.0</ele><time>2026-04-03T15:32:06Z</time></trkpt><trkpt lat="45.785404470337994" lon="13.593953932286944"><ele>19.0</ele><time>2026-04-03T15:32:07Z</time></trkpt><trkpt lat="45.785537147094175" lon="13.59390232871181"><ele>19.0</ele><time>2026-04-03T15:32:08Z</time></trkpt><trkpt lat="45.7856690569368" lon="13.593886220271026"><ele>19.0</ele><time>2026-04-03T15:32:09Z</time></trkpt><trkpt lat="45.78579591917405" lon="13.593889751043065"><ele>19.0</ele><time>2026-04-03T15:32:10Z</time></trkpt><trkpt lat="45.78592041890667" lon="13.593883590869414"><ele>19.25</ele><time>2026-04-03T15:32:11Z</time></trkpt><trkpt lat="45.7860465038698" lon="13.593866625090056"><ele>19.5</ele><time>2026-04-03T15:32:12Z</time></trkpt><trkpt lat="45.78617428461119" lon="13.593832525884347"><ele>19.75</ele><time>2026-04-03T15:32:13Z</time></trkpt><trkpt lat="45.78629899723702" lon="13.59377597337249"><ele>20.0</ele><time>2026-04-03T15:32:14Z</time></trkpt><trkpt lat="45.786425105327" lon="13.59369274956046"><ele>19.0</ele><time>2026-04-03T15:32:15Z</time></trkpt><trkpt lat="45.78655062445993" lon="13.593602196512432"><ele>18.0</ele><time>2026-04-03T15:32:16Z</time></trkpt><trkpt lat="45.786666115812274" lon="13.593507632542451"><ele>17.0</ele><time>2026-04-03T15:32:17Z</time></trkpt><trkpt lat="45.786770709882425" lon="13.593390473325982"><ele>16.0</ele><time>2026-04-03T15:32:18Z</time></trkpt><trkpt lat="45.78686405911039" lon="13.593252644250306"><ele>16.0</ele><time>2026-04-03T15:32:19Z</time></trkpt><trkpt lat="45.786954017673686" lon="13.5931261497709"><ele>16.0</ele><time>2026-04-03T15:32:20Z</time></trkpt><trkpt lat="45.78704584146779" lon="13.593011047900466"><ele>16.0</ele><time>2026-04-03T15:32:21Z</time></trkpt><trkpt lat="45.787135983484276" lon="13.592898362631805"><ele>16.0</ele><time>2026-04-03T15:32:22Z</time></trkpt><trkpt lat="45.787229546306634" lon="13.592780693460695"><ele>14.25</ele><time>2026-04-03T15:32:23Z</time></trkpt><trkpt lat="45.787323680827" lon="13.592659039689005"><ele>12.5</ele><time>2026-04-03T15:32:24Z</time></trkpt><trkpt lat="45.78741879239302" lon="13.592541471492567"><ele>10.75</ele><time>2026-04-03T15:32:25Z</time></trkpt><trkpt lat="45.78750671873903" lon="13.592432958314747"><ele>9.0</ele><time>2026-04-03T15:32:26Z</time></trkpt><trkpt lat="45.7875910451678" lon="13.592325875851639"><ele>8.25</ele><time>2026-04-03T15:32:27Z</time></trkpt><trkpt lat="45.78768024994322" lon="13.592213586925538"><ele>7.5</ele><time>2026-04-03T15:32:28Z</time></trkpt><trkpt lat="45.78777959604793" lon="13.592091921313182"><ele>6.75</ele><time>2026-04-03T15:32:29Z</time></trkpt><trkpt lat="45.7878968680964" lon="13.591938123706315"><ele>6.0</ele><time>2026-04-03T15:32:30Z</time></trkpt><trkpt lat="45.78804098124195" lon="13.59177482398207"><ele>6.0</ele><time>2026-04-03T15:32:31Z</time></trkpt><trkpt lat="45.78820312616912" lon="13.591588362292267"><ele>6.0</ele><time>2026-04-03T15:32:32Z</time></trkpt><trkpt lat="45.78836479330343" lon="13.591382879256633"><ele>6.0</ele><time>2026-04-03T15:32:33Z</time></trkpt><trkpt lat="45.78852124762878" lon="13.59117956490218"><ele>7.666666666666666</ele><time>2026-04-03T15:32:34Z</time></trkpt><trkpt lat="45.78866856994326" lon="13.590978759686333"><ele>9.333333333333332</ele><time>2026-04-03T15:32:35Z</time></trkpt><trkpt lat="45.78881197153209" lon="13.590771981889281"><ele>11.0</ele><time>2026-04-03T15:32:36Z</time></trkpt><trkpt lat="45.788952409441954" lon="13.590564486771035"><ele>11.0</ele><time>2026-04-03T15:32:37Z</time></trkpt><trkpt lat="45.78909276877956" lon="13.590355652988745"><ele>11.0</ele><time>2026-04-03T15:32:38Z</time></trkpt><trkpt lat="45.78923385661975" lon="13.590143837455603"><ele>11.0</ele><time>2026-04-03T15:32:39Z</time></trkpt><trkpt lat="45.78937070172186" lon="13.589935959166272"><ele>10.666666666666666</ele><time>2026-04-03T15:32:40Z</time></trkpt><trkpt lat="45.78951470174837" lon="13.589713251131577"><ele>10.333333333333334</ele><time>2026-04-03T15:32:41Z</time></trkpt><trkpt lat="45.78967522467362" lon="13.589481382557736"><ele>10.0</ele><time>2026-04-03T15:32:42Z</time></trkpt><trkpt lat="45.7898496907826" lon="13.58920933733462"><ele>10.0</ele><time>2026-04-03T15:32:43Z</time></trkpt><trkpt lat="45.790021092696584" lon="13.588947165627795"><ele>10.0</ele><time>2026-04-03T15:32:44Z</time></trkpt><trkpt lat="45.79017761715254" lon="13.58871281853595"><ele>8.0</ele><time>2026-04-03T15:32:45Z</time></trkpt><trkpt lat="45.79032335609132" lon="13.588494666466682"><ele>6.0</ele><time>2026-04-03T15:32:46Z</time></trkpt><trkpt lat="45.79045214784259" lon="13.588287754123098"><ele>4.0</ele><time>2026-04-03T15:32:47Z</time></trkpt><trkpt lat="45.790590754964455" lon="13.588083358902013"><ele>4.0</ele><time>2026-04-03T15:32:48Z</time></trkpt><trkpt lat="45.790717626301" lon="13.587894932096637"><ele>4.0</ele><time>2026-04-03T15:32:49Z</time></trkpt><trkpt lat="45.79083950517024" lon="13.587713151597393"><ele>4.0</ele><time>2026-04-03T15:32:50Z</time></trkpt><trkpt lat="45.79096388004605" lon="13.587530101026383"><ele>4.666666666666666</ele><time>2026-04-03T15:32:51Z</time></trkpt><trkpt lat="45.79109207687285" lon="13.587347295842527"><ele>5.333333333333333</ele><time>2026-04-03T15:32:52Z</time></trkpt><trkpt lat="45.79122206307834" lon="13.587162862416195"><ele>6.0</ele><time>2026-04-03T15:32:53Z</time></trkpt><trkpt lat="45.79135539981045" lon="13.586981605765727"><ele>6.0</ele><time>2026-04-03T15:32:54Z</time></trkpt><trkpt lat="45.79149507878831" lon="13.58680500684127"><ele>6.0</ele><time>2026-04-03T15:32:55Z</time></trkpt><trkpt lat="45.79163340723322" lon="13.586631759193732"><ele>6.0</ele><time>2026-04-03T15:32:56Z</time></trkpt><trkpt lat="45.7917757292801" lon="13.586463545735807"><ele>6.333333333333334</ele><time>2026-04-03T15:32:57Z</time></trkpt><trkpt lat="45.79192027200105" lon="13.586305501731083"><ele>6.666666666666667</ele><time>2026-04-03T15:32:58Z</time></trkpt><trkpt lat="45.792069401316326" lon="13.586152740697832"><ele>7.0</ele><time>2026-04-03T15:32:59Z</time></trkpt><trkpt lat="45.79221446240697" lon="13.585998592023243"><ele>7.0</ele><time>2026-04-03T15:33:00Z</time></trkpt><trkpt lat="45.792361176804135" lon="13.585846570571979"><ele>7.0</ele><time>2026-04-03T15:33:01Z</time></trkpt><trkpt lat="45.79251320015608" lon="13.585700953300496"><ele>7.0</ele><time>2026-04-03T15:33:02Z</time></trkpt><trkpt lat="45.79265642287009" lon="13.585558080889829"><ele>6.666666666666667</ele><time>2026-04-03T15:33:03Z</time></trkpt><trkpt lat="45.79279833924844" lon="13.585409499729296"><ele>6.333333333333334</ele><time>2026-04-03T15:33:04Z</time></trkpt><trkpt lat="45.79294463559083" lon="13.58526846929827"><ele>6.0</ele><time>2026-04-03T15:33:05Z</time></trkpt><trkpt lat="45.79309013217602" lon="13.58512201296624"><ele>6.0</ele><time>2026-04-03T15:33:06Z</time></trkpt><trkpt lat="45.79323204927704" lon="13.584972292597525"><ele>6.0</ele><time>2026-04-03T15:33:07Z</time></trkpt><trkpt lat="45.79337347555399" lon="13.58482456732278"><ele>6.0</ele><time>2026-04-03T15:33:08Z</time></trkpt><trkpt lat="45.793518743889734" lon="13.584678508146292"><ele>6.0</ele><time>2026-04-03T15:33:09.001Z</time></trkpt><trkpt lat="45.79366166527559" lon="13.584534017828947"><ele>6.0</ele><time>2026-04-03T15:33:10.001Z</time></trkpt><trkpt lat="45.793801705410075" lon="13.584390234464754"><ele>6.0</ele><time>2026-04-03T15:33:11.001Z</time></trkpt><trkpt lat="45.79395079647694" lon="13.584232243288445"><ele>6.0</ele><time>2026-04-03T15:33:12.001Z</time></trkpt><trkpt lat="45.794099813336594" lon="13.58409135705359"><ele>6.0</ele><time>2026-04-03T15:33:13.001Z</time></trkpt><trkpt lat="45.79424222164124" lon="13.58394366468982"><ele>6.0</ele><time>2026-04-03T15:33:14.001Z</time></trkpt><trkpt lat="45.794386638881186" lon="13.583793345586622"><ele>6.0</ele><time>2026-04-03T15:33:15.001Z</time></trkpt><trkpt lat="45.79453543068946" lon="13.583641399101095"><ele>6.0</ele><time>2026-04-03T15:33:16.001Z</time></trkpt><trkpt lat="45.794685885510724" lon="13.583493396670889"><ele>6.0</ele><time>2026-04-03T15:33:17.001Z</time></trkpt><trkpt lat="45.794839296528444" lon="13.583351730872968"><ele>6.0</ele><time>2026-04-03T15:33:18.001Z</time></trkpt><trkpt lat="45.79499232258767" lon="13.583208013509429"><ele>6.0</ele><time>2026-04-03T15:33:19.001Z</time></trkpt><trkpt lat="45.795134033005326" lon="13.5830695570016"><ele>6.0</ele><time>2026-04-03T15:33:20.001Z</time></trkpt><trkpt lat="45.79526570654891" lon="13.582933032115097"><ele>4.333333333333333</ele><time>2026-04-03T15:33:21.001Z</time></trkpt><trkpt lat="45.795399664957834" lon="13.58278792325229"><ele>2.6666666666666665</ele><time>2026-04-03T15:33:22.001Z</time></trkpt><trkpt lat="45.79554104294115" lon="13.582634290356474"><ele>1.0</ele><time>2026-04-03T15:33:23.001Z</time></trkpt><trkpt lat="45.79569223050168" lon="13.582483025717398"><ele>1.0</ele><time>2026-04-03T15:33:24.001Z</time></trkpt><trkpt lat="45.79584876940828" lon="13.582330202129643"><ele>1.0</ele><time>2026-04-03T15:33:25.001Z</time></trkpt><trkpt lat="45.79600675578882" lon="13.582171756689554"><ele>1.0</ele><time>2026-04-03T15:33:26.001Z</time></trkpt><trkpt lat="45.79616523770549" lon="13.582010192923162"><ele>1.3333333333333333</ele><time>2026-04-03T15:33:27.001Z</time></trkpt><trkpt lat="45.796324442176484" lon="13.581845685535766"><ele>1.6666666666666665</ele><time>2026-04-03T15:33:28.001Z</time></trkpt><trkpt lat="45.79648742995025" lon="13.581683922171283"><ele>2.0</ele><time>2026-04-03T15:33:29.001Z</time></trkpt><trkpt lat="45.7966491008033" lon="13.581520311407411"><ele>2.0</ele><time>2026-04-03T15:33:30.001Z</time></trkpt><trkpt lat="45.79681061019008" lon="13.581359462504112"><ele>2.0</ele><time>2026-04-03T15:33:31.001Z</time></trkpt><trkpt lat="45.796971295783024" lon="13.581196177256045"><ele>2.0</ele><time>2026-04-03T15:33:32.001Z</time></trkpt><trkpt lat="45.79712378423224" lon="13.581019041834846"><ele>4.0</ele><time>2026-04-03T15:33:33.001Z</time></trkpt><trkpt lat="45.79726608834375" lon="13.580830049137644"><ele>6.0</ele><time>2026-04-03T15:33:34.001Z</time></trkpt><trkpt lat="45.7974043355384" lon="13.580636158590265"><ele>8.0</ele><time>2026-04-03T15:33:35.001Z</time></trkpt><trkpt lat="45.79753830195687" lon="13.580438129690334"><ele>6.333333333333333</ele><time>2026-04-03T15:33:36.001Z</time></trkpt><trkpt lat="45.79766539138371" lon="13.580230040321405"><ele>4.666666666666666</ele><time>2026-04-03T15:33:37.001Z</time></trkpt><trkpt lat="45.79778746329632" lon="13.580016941602553"><ele>3.0</ele><time>2026-04-03T15:33:38.001Z</time></trkpt><trkpt lat="45.79790435521149" lon="13.579798675622479"><ele>4.666666666666666</ele><time>2026-04-03T15:33:39.001Z</time></trkpt><trkpt lat="45.798013224649196" lon="13.579575554295209"><ele>6.333333333333333</ele><time>2026-04-03T15:33:40Z</time></trkpt><trkpt lat="45.79811429929742" lon="13.579345283989777"><ele>8.0</ele><time>2026-04-03T15:33:41Z</time></trkpt><trkpt lat="45.79820306180335" lon="13.579105201723728"><ele>8.0</ele><time>2026-04-03T15:33:42Z</time></trkpt><trkpt lat="45.798282662835916" lon="13.578863237992497"><ele>8.0</ele><time>2026-04-03T15:33:43Z</time></trkpt><trkpt lat="45.798363680187265" lon="13.578623200644097"><ele>8.0</ele><time>2026-04-03T15:33:44Z</time></trkpt><trkpt lat="45.79844900009468" lon="13.578383578154222"><ele>9.0</ele><time>2026-04-03T15:33:45Z</time></trkpt><trkpt lat="45.79853503257707" lon="13.57815219974168"><ele>10.0</ele><time>2026-04-03T15:33:46Z</time></trkpt><trkpt lat="45.79861260645348" lon="13.577925407544564"><ele>11.0</ele><time>2026-04-03T15:33:47Z</time></trkpt><trkpt lat="45.79868997838377" lon="13.577706430161253"><ele>11.0</ele><time>2026-04-03T15:33:48Z</time></trkpt><trkpt lat="45.79876667942561" lon="13.5774940089973"><ele>11.0</ele><time>2026-04-03T15:33:49Z</time></trkpt><trkpt lat="45.798840864093236" lon="13.577281560725144"><ele>11.0</ele><time>2026-04-03T15:33:50Z</time></trkpt><trkpt lat="45.798913118799035" lon="13.57707408825507"><ele>10.666666666666666</ele><time>2026-04-03T15:33:51Z</time></trkpt><trkpt lat="45.798982019056176" lon="13.576867544148966"><ele>10.333333333333334</ele><time>2026-04-03T15:33:52Z</time></trkpt><trkpt lat="45.799049564185076" lon="13.576663718088753"><ele>10.0</ele><time>2026-04-03T15:33:53Z</time></trkpt><trkpt lat="45.79911666941451" lon="13.576468979229029"><ele>10.0</ele><time>2026-04-03T15:33:54Z</time></trkpt><trkpt lat="45.79918406024892" lon="13.576271568464577"><ele>10.0</ele><time>2026-04-03T15:33:55Z</time></trkpt><trkpt lat="45.799250427082505" lon="13.576079742985247"><ele>10.0</ele><time>2026-04-03T15:33:56Z</time></trkpt><trkpt lat="45.79931910515546" lon="13.575888837904468"><ele>10.75</ele><time>2026-04-03T15:33:57Z</time></trkpt><trkpt lat="45.79938619730695" lon="13.575695414712484"><ele>11.5</ele><time>2026-04-03T15:33:58Z</time></trkpt><trkpt lat="45.79945124529862" lon="13.575504174921853"><ele>12.25</ele><time>2026-04-03T15:33:59Z</time></trkpt><trkpt lat="45.79951681006673" lon="13.575314041245939"><ele>13.0</ele><time>2026-04-03T15:34:00Z</time></trkpt><trkpt lat="45.79958430594458" lon="13.575122486813692"><ele>13.0</ele><time>2026-04-03T15:34:01Z</time></trkpt><trkpt lat="45.79965088227591" lon="13.574932823251682"><ele>13.0</ele><time>2026-04-03T15:34:02Z</time></trkpt><trkpt lat="45.79971598946705" lon="13.574741699923385"><ele>13.0</ele><time>2026-04-03T15:34:03Z</time></trkpt><trkpt lat="45.79978058891443" lon="13.57455978959851"><ele>13.0</ele><time>2026-04-03T15:34:04Z</time></trkpt><trkpt lat="45.7998429918277" lon="13.574374960227107"><ele>10.75</ele><time>2026-04-03T15:34:05Z</time></trkpt><trkpt lat="45.799907142819166" lon="13.574184291112486"><ele>8.5</ele><time>2026-04-03T15:34:06Z</time></trkpt><trkpt lat="45.7999773504657" lon="13.573996206175611"><ele>6.25</ele><time>2026-04-03T15:34:07Z</time></trkpt><trkpt lat="45.80004328381244" lon="13.573801044454854"><ele>4.0</ele><time>2026-04-03T15:34:08Z</time></trkpt><trkpt lat="45.800108970635705" lon="13.573606307397522"><ele>5.333333333333333</ele><time>2026-04-03T15:34:09Z</time></trkpt><trkpt lat="45.800173983143644" lon="13.573413976960033"><ele>6.666666666666666</ele><time>2026-04-03T15:34:10Z</time></trkpt><trkpt lat="45.800233172396574" lon="13.573218475492764"><ele>8.0</ele><time>2026-04-03T15:34:11Z</time></trkpt><trkpt lat="45.80028800634312" lon="13.573014758209341"><ele>7.666666666666666</ele><time>2026-04-03T15:34:12Z</time></trkpt><trkpt lat="45.80033951264089" lon="13.572808115267273"><ele>7.333333333333334</ele><time>2026-04-03T15:34:13Z</time></trkpt><trkpt lat="45.800385893123874" lon="13.572604766306583"><ele>7.0</ele><time>2026-04-03T15:34:14Z</time></trkpt><trkpt lat="45.80042247659017" lon="13.572392345799928"><ele>7.0</ele><time>2026-04-03T15:34:15Z</time></trkpt><trkpt lat="45.800454263046475" lon="13.57216965392972"><ele>7.0</ele><time>2026-04-03T15:34:16Z</time></trkpt><trkpt lat="45.80048521125382" lon="13.571947383828768"><ele>7.0</ele><time>2026-04-03T15:34:17Z</time></trkpt><trkpt lat="45.80051224185345" lon="13.571720347592777"><ele>6.666666666666667</ele><time>2026-04-03T15:34:18Z</time></trkpt><trkpt lat="45.80053606626299" lon="13.571493146633834"><ele>6.333333333333334</ele><time>2026-04-03T15:34:19Z</time></trkpt><trkpt lat="45.80055191350131" lon="13.571264421697574"><ele>6.0</ele><time>2026-04-03T15:34:20Z</time></trkpt><trkpt lat="45.80056186435872" lon="13.571036959430328"><ele>5.666666666666667</ele><time>2026-04-03T15:34:21Z</time></trkpt><trkpt lat="45.80057254049248" lon="13.570805418806422"><ele>5.333333333333334</ele><time>2026-04-03T15:34:22Z</time></trkpt><trkpt lat="45.8005907568338" lon="13.57057079321187"><ele>5.0</ele><time>2026-04-03T15:34:23Z</time></trkpt><trkpt lat="45.80061107723128" lon="13.570337479426673"><ele>4.666666666666667</ele><time>2026-04-03T15:34:24Z</time></trkpt><trkpt lat="45.80062991226229" lon="13.570105339347219"><ele>4.333333333333333</ele><time>2026-04-03T15:34:25Z</time></trkpt><trkpt lat="45.80064901750813" lon="13.569877912918846"><ele>4.0</ele><time>2026-04-03T15:34:26Z</time></trkpt><trkpt lat="45.80066728028687" lon="13.569657115432912"><ele>4.333333333333333</ele><time>2026-04-03T15:34:27Z</time></trkpt><trkpt lat="45.800681340980816" lon="13.569440339229578"><ele>4.666666666666667</ele><time>2026-04-03T15:34:28Z</time></trkpt><trkpt lat="45.80069477982371" lon="13.569222388025732"><ele>5.0</ele><time>2026-04-03T15:34:29Z</time></trkpt><trkpt lat="45.800706470026434" lon="13.569009322229478"><ele>5.0</ele><time>2026-04-03T15:34:30Z</time></trkpt><trkpt lat="45.80071773387961" lon="13.56879803050347"><ele>5.0</ele><time>2026-04-03T15:34:31Z</time></trkpt><trkpt lat="45.800731465714165" lon="13.568585907607146"><ele>5.0</ele><time>2026-04-03T15:34:32Z</time></trkpt><trkpt lat="45.80074726005173" lon="13.568376688276855"><ele>5.0</ele><time>2026-04-03T15:34:33Z</time></trkpt><trkpt lat="45.80075891002695" lon="13.568169685523916"><ele>5.25</ele><time>2026-04-03T15:34:34Z</time></trkpt><trkpt lat="45.800765713448506" lon="13.567965578098976"><ele>5.5</ele><time>2026-04-03T15:34:35Z</time></trkpt><trkpt lat="45.80077854248881" lon="13.567761389878255"><ele>5.75</ele><time>2026-04-03T15:34:36Z</time></trkpt><trkpt lat="45.80078934270756" lon="13.567562936658685"><ele>6.0</ele><time>2026-04-03T15:34:37Z</time></trkpt><trkpt lat="45.80080196961552" lon="13.56736443084413"><ele>6.25</ele><time>2026-04-03T15:34:38Z</time></trkpt><trkpt lat="45.800813634524076" lon="13.567168403822194"><ele>6.5</ele><time>2026-04-03T15:34:39Z</time></trkpt><trkpt lat="45.80082357535334" lon="13.566974652543754"><ele>6.75</ele><time>2026-04-03T15:34:40Z</time></trkpt><trkpt lat="45.800834218177044" lon="13.566777869073627"><ele>7.0</ele><time>2026-04-03T15:34:41Z</time></trkpt><trkpt lat="45.80084617204645" lon="13.56658132936967"><ele>6.5</ele><time>2026-04-03T15:34:42Z</time></trkpt><trkpt lat="45.800857254916885" lon="13.566383909732473"><ele>6.0</ele><time>2026-04-03T15:34:43Z</time></trkpt><trkpt lat="45.80086755839751" lon="13.56619908653723"><ele>5.5</ele><time>2026-04-03T15:34:44Z</time></trkpt><trkpt lat="45.800877304719066" lon="13.566021746396371"><ele>5.0</ele><time>2026-04-03T15:34:45Z</time></trkpt><trkpt lat="45.80088615178898" lon="13.56584832935823"><ele>5.0</ele><time>2026-04-03T15:34:46Z</time></trkpt><trkpt lat="45.80089592806483" lon="13.565672001033443"><ele>5.0</ele><time>2026-04-03T15:34:47Z</time></trkpt><trkpt lat="45.80090712716748" lon="13.565493359836301"><ele>5.0</ele><time>2026-04-03T15:34:48Z</time></trkpt><trkpt lat="45.800920917242294" lon="13.565316539194171"><ele>5.0</ele><time>2026-04-03T15:34:49Z</time></trkpt><trkpt lat="45.800931691142715" lon="13.565140905644398"><ele>4.75</ele><time>2026-04-03T15:34:50Z</time></trkpt><trkpt lat="45.800943087580976" lon="13.564969465900672"><ele>4.5</ele><time>2026-04-03T15:34:51Z</time></trkpt><trkpt lat="45.800955439475906" lon="13.564801192597697"><ele>4.25</ele><time>2026-04-03T15:34:52Z</time></trkpt><trkpt lat="45.800966789154664" lon="13.56463426365464"><ele>4.0</ele><time>2026-04-03T15:34:53Z</time></trkpt><trkpt lat="45.80097689450047" lon="13.564471074872827"><ele>3.75</ele><time>2026-04-03T15:34:54Z</time></trkpt><trkpt lat="45.800984302553886" lon="13.564307630156602"><ele>3.5</ele><time>2026-04-03T15:34:55Z</time></trkpt><trkpt lat="45.800991404354775" lon="13.564139742426304"><ele>3.25</ele><time>2026-04-03T15:34:56Z</time></trkpt><trkpt lat="45.80100215812153" lon="13.563965322936324"><ele>3.0</ele><time>2026-04-03T15:34:57Z</time></trkpt><trkpt lat="45.80101551553465" lon="13.563786515132545"><ele>4.75</ele><time>2026-04-03T15:34:58Z</time></trkpt><trkpt lat="45.80102819252793" lon="13.56360514042982"><ele>6.5</ele><time>2026-04-03T15:34:59Z</time></trkpt><trkpt lat="45.80103931350148" lon="13.563419447340669"><ele>8.25</ele><time>2026-04-03T15:35:00Z</time></trkpt><trkpt lat="45.80104961437155" lon="13.563235170778881"><ele>10.0</ele><time>2026-04-03T15:35:01Z</time></trkpt><trkpt lat="45.80105839026475" lon="13.563053749584483"><ele>10.0</ele><time>2026-04-03T15:35:02Z</time></trkpt><trkpt lat="45.801070218593864" lon="13.562873751385395"><ele>10.0</ele><time>2026-04-03T15:35:03Z</time></trkpt><trkpt lat="45.801082090073855" lon="13.56269546449628"><ele>10.0</ele><time>2026-04-03T15:35:04Z</time></trkpt><trkpt lat="45.80109297086555" lon="13.562520144164964"><ele>10.0</ele><time>2026-04-03T15:35:05Z</time></trkpt><trkpt lat="45.80110445589613" lon="13.562346023073177"><ele>9.75</ele><time>2026-04-03T15:35:06Z</time></trkpt><trkpt lat="45.8011105282821" lon="13.562172985866793"><ele>9.5</ele><time>2026-04-03T15:35:07Z</time></trkpt><trkpt lat="45.80112261619508" lon="13.561999745891391"><ele>9.25</ele><time>2026-04-03T15:35:08Z</time></trkpt><trkpt lat="45.801135954642746" lon="13.561828236638984"><ele>9.0</ele><time>2026-04-03T15:35:09Z</time></trkpt><trkpt lat="45.80114574126741" lon="13.561658096364258"><ele>8.75</ele><time>2026-04-03T15:35:10Z</time></trkpt><trkpt lat="45.801154481720836" lon="13.561492194439941"><ele>8.5</ele><time>2026-04-03T15:35:11Z</time></trkpt><trkpt lat="45.801165234691545" lon="13.561332815993675"><ele>8.25</ele><time>2026-04-03T15:35:12Z</time></trkpt><trkpt lat="45.80117569603161" lon="13.561179484336359"><ele>8.0</ele><time>2026-04-03T15:35:13Z</time></trkpt><trkpt lat="45.80118736770588" lon="13.561014998930775"><ele>7.800000000000001</ele><time>2026-04-03T15:35:14.001Z</time></trkpt><trkpt lat="45.801197231557666" lon="13.560846629643423"><ele>7.6000000000000005</ele><time>2026-04-03T15:35:15.001Z</time></trkpt><trkpt lat="45.801208140789036" lon="13.56068619978581"><ele>7.3999999999999995</ele><time>2026-04-03T15:35:16.001Z</time></trkpt><trkpt lat="45.80122213074189" lon="13.560537757966875"><ele>7.199999999999999</ele><time>2026-04-03T15:35:17.001Z</time></trkpt><trkpt lat="45.80124130270043" lon="13.560403515888126"><ele>7.0</ele><time>2026-04-03T15:35:18.001Z</time></trkpt><trkpt lat="45.801265590116635" lon="13.560290722215255"><ele>7.000000000000001</ele><time>2026-04-03T15:35:19.001Z</time></trkpt><trkpt lat="45.80128922644677" lon="13.560193180276087"><ele>7.0</ele><time>2026-04-03T15:35:20.001Z</time></trkpt><trkpt lat="45.80131343731643" lon="13.560105208908702"><ele>7.0</ele><time>2026-04-03T15:35:21.001Z</time></trkpt><trkpt lat="45.801338782280276" lon="13.560003373438814"><ele>7.0</ele><time>2026-04-03T15:35:22.001Z</time></trkpt><trkpt lat="45.80134015124246" lon="13.559870389152758"><ele>7.000000000000001</ele><time>2026-04-03T15:35:23.001Z</time></trkpt><trkpt lat="45.801327506406324" lon="13.559757834255127"><ele>7.0</ele><time>2026-04-03T15:35:24.001Z</time></trkpt><trkpt lat="45.801308725636474" lon="13.55964334630867"><ele>6.6</ele><time>2026-04-03T15:35:25.001Z</time></trkpt><trkpt lat="45.80129300262678" lon="13.559507244039972"><ele>6.199999999999999</ele><time>2026-04-03T15:35:26.001Z</time></trkpt><trkpt lat="45.80130417221799" lon="13.55935204258192"><ele>5.8</ele><time>2026-04-03T15:35:27.001Z</time></trkpt><trkpt lat="45.80131066021523" lon="13.55919591990494"><ele>5.4</ele><time>2026-04-03T15:35:28.001Z</time></trkpt><trkpt lat="45.80131702285658" lon="13.559031723656561"><ele>5.0</ele><time>2026-04-03T15:35:29.001Z</time></trkpt><trkpt lat="45.80132889181586" lon="13.558874361778125"><ele>5.0</ele><time>2026-04-03T15:35:30.001Z</time></trkpt><trkpt lat="45.8013401157296" lon="13.558720675132664"><ele>5.0</ele><time>2026-04-03T15:35:31.001Z</time></trkpt><trkpt lat="45.80134679641453" lon="13.558556122682107"><ele>5.0</ele><time>2026-04-03T15:35:32.001Z</time></trkpt><trkpt lat="45.80135356088638" lon="13.558384980509775"><ele>5.0</ele><time>2026-04-03T15:35:33.001Z</time></trkpt><trkpt lat="45.80136619757426" lon="13.558210469046113"><ele>4.5</ele><time>2026-04-03T15:35:34.001Z</time></trkpt><trkpt lat="45.80137624688048" lon="13.558029906563425"><ele>4.0</ele><time>2026-04-03T15:35:35.001Z</time></trkpt><trkpt lat="45.801383356429966" lon="13.557854903869483"><ele>3.5</ele><time>2026-04-03T15:35:36.001Z</time></trkpt><trkpt lat="45.8013989375006" lon="13.5576753919431"><ele>3.0</ele><time>2026-04-03T15:35:37.001Z</time></trkpt><trkpt lat="45.80141320206108" lon="13.557495233055263"><ele>2.75</ele><time>2026-04-03T15:35:38.001Z</time></trkpt><trkpt lat="45.80142146139096" lon="13.557311497290884"><ele>2.5</ele><time>2026-04-03T15:35:39Z</time></trkpt><trkpt lat="45.801433202702185" lon="13.557125408245371"><ele>2.25</ele><time>2026-04-03T15:35:40Z</time></trkpt><trkpt lat="45.80144580243086" lon="13.55693915429417"><ele>2.0</ele><time>2026-04-03T15:35:41Z</time></trkpt><trkpt lat="45.801460164830985" lon="13.556749293121372"><ele>2.0</ele><time>2026-04-03T15:35:42Z</time></trkpt><trkpt lat="45.80147346157487" lon="13.556559183817862"><ele>2.0</ele><time>2026-04-03T15:35:43Z</time></trkpt><trkpt lat="45.801486117214004" lon="13.556368246455355"><ele>2.0</ele><time>2026-04-03T15:35:44Z</time></trkpt><trkpt lat="45.80149931193241" lon="13.556174286430968"><ele>2.0</ele><time>2026-04-03T15:35:45Z</time></trkpt><trkpt lat="45.80151061799717" lon="13.555984212677501"><ele>2.0</ele><time>2026-04-03T15:35:46Z</time></trkpt><trkpt lat="45.801522055004234" lon="13.55581002415669"><ele>2.0</ele><time>2026-04-03T15:35:47Z</time></trkpt><trkpt lat="45.8015309000945" lon="13.555635501855049"><ele>2.0</ele><time>2026-04-03T15:35:48Z</time></trkpt><trkpt lat="45.80154129937565" lon="13.555461174973765"><ele>2.0</ele><time>2026-04-03T15:35:49Z</time></trkpt><trkpt lat="45.80155511174972" lon="13.55528559958303"><ele>1.75</ele><time>2026-04-03T15:35:50Z</time></trkpt><trkpt lat="45.80156388145326" lon="13.555108694029489"><ele>1.5</ele><time>2026-04-03T15:35:51Z</time></trkpt><trkpt lat="45.80157588150634" lon="13.554930844422339"><ele>1.25</ele><time>2026-04-03T15:35:52Z</time></trkpt><trkpt lat="45.80158416796979" lon="13.55475173939377"><ele>1.0</ele><time>2026-04-03T15:35:53Z</time></trkpt><trkpt lat="45.80159800632335" lon="13.554570202795686"><ele>1.0</ele><time>2026-04-03T15:35:54Z</time></trkpt><trkpt lat="45.801610404783595" lon="13.554386951666267"><ele>1.0</ele><time>2026-04-03T15:35:55Z</time></trkpt><trkpt lat="45.80162436960586" lon="13.55420383593978"><ele>1.0</ele><time>2026-04-03T15:35:56Z</time></trkpt><trkpt lat="45.801635151579" lon="13.554027672386674"><ele>1.0</ele><time>2026-04-03T15:35:57Z</time></trkpt><trkpt lat="45.80164464222861" lon="13.553864028401039"><ele>1.0</ele><time>2026-04-03T15:35:58Z</time></trkpt><trkpt lat="45.80165361799003" lon="13.553707112479765"><ele>1.0</ele><time>2026-04-03T15:35:59Z</time></trkpt><trkpt lat="45.801662315935296" lon="13.553557524096238"><ele>1.0</ele><time>2026-04-03T15:36:00Z</time></trkpt><trkpt lat="45.801670686071944" lon="13.553414686354314"><ele>1.0</ele><time>2026-04-03T15:36:01Z</time></trkpt><trkpt lat="45.80167666653647" lon="13.553277330880293"><ele>1.0</ele><time>2026-04-03T15:36:02Z</time></trkpt><trkpt lat="45.801679434933774" lon="13.553144859414267"><ele>1.3333333333333333</ele><time>2026-04-03T15:36:03Z</time></trkpt><trkpt lat="45.801679881828036" lon="13.553021987815887"><ele>1.6666666666666665</ele><time>2026-04-03T15:36:04Z</time></trkpt><trkpt lat="45.80167520039496" lon="13.552913220071263"><ele>2.0</ele><time>2026-04-03T15:36:05Z</time></trkpt><trkpt lat="45.80166361853761" lon="13.552824238832754"><ele>2.3333333333333335</ele><time>2026-04-03T15:36:06Z</time></trkpt><trkpt lat="45.80165043295881" lon="13.55270304329589"><ele>2.6666666666666665</ele><time>2026-04-03T15:36:08Z</time></trkpt><trkpt lat="45.80164427623376" lon="13.552593359405513"><ele>3.0</ele><time>2026-04-03T15:36:12Z</time></trkpt><trkpt lat="45.801656369970296" lon="13.552440883015239"><ele>3.0</ele><time>2026-04-03T15:36:14Z</time></trkpt><trkpt lat="45.801651011853124" lon="13.55233545055721"><ele>3.0</ele><time>2026-04-03T15:36:15Z</time></trkpt><trkpt lat="45.80164724155274" lon="13.5522437715931"><ele>3.0</ele><time>2026-04-03T15:36:16Z</time></trkpt><trkpt lat="45.80165161856546" lon="13.552137425606768"><ele>3.0</ele><time>2026-04-03T15:36:17Z</time></trkpt><trkpt lat="45.801671644365925" lon="13.5519943250138"><ele>3.0</ele><time>2026-04-03T15:36:18Z</time></trkpt><trkpt lat="45.801711677652015" lon="13.551876462555995"><ele>3.0</ele><time>2026-04-03T15:36:19Z</time></trkpt><trkpt lat="45.80173574069215" lon="13.55177595896541"><ele>3.0</ele><time>2026-04-03T15:36:20Z</time></trkpt><trkpt lat="45.80175778590549" lon="13.551685612493584"><ele>3.0</ele><time>2026-04-03T15:36:21Z</time></trkpt><trkpt lat="45.801773686039084" lon="13.551506328002898"><ele>3.0</ele><time>2026-04-03T15:36:23Z</time></trkpt><trkpt lat="45.80178246797953" lon="13.551397078958018"><ele>3.0</ele><time>2026-04-03T15:36:24Z</time></trkpt><trkpt lat="45.801787144518265" lon="13.551264204595713"><ele>3.0</ele><time>2026-04-03T15:36:25Z</time></trkpt><trkpt lat="45.801796500917376" lon="13.551102965286193"><ele>3.0</ele><time>2026-04-03T15:36:26Z</time></trkpt><trkpt lat="45.80180750160658" lon="13.550968211870117"><ele>3.0</ele><time>2026-04-03T15:36:27Z</time></trkpt><trkpt lat="45.80181807670253" lon="13.550825462152597"><ele>3.0</ele><time>2026-04-03T15:36:28Z</time></trkpt><trkpt lat="45.801826951134416" lon="13.550666779309976"><ele>3.0</ele><time>2026-04-03T15:36:29Z</time></trkpt><trkpt lat="45.80183744131694" lon="13.550487741660106"><ele>3.0</ele><time>2026-04-03T15:36:30Z</time></trkpt><trkpt lat="45.80185243630436" lon="13.550291626699686"><ele>3.0</ele><time>2026-04-03T15:36:31Z</time></trkpt><trkpt lat="45.801863825044244" lon="13.550102366239132"><ele>3.0</ele><time>2026-04-03T15:36:32Z</time></trkpt><trkpt lat="45.8018710073541" lon="13.549923639634871"><ele>3.0</ele><time>2026-04-03T15:36:33Z</time></trkpt><trkpt lat="45.80187891256837" lon="13.549737993211602"><ele>3.0</ele><time>2026-04-03T15:36:34Z</time></trkpt><trkpt lat="45.801889950245545" lon="13.549547170419993"><ele>3.0</ele><time>2026-04-03T15:36:35Z</time></trkpt><trkpt lat="45.80190577950886" lon="13.549356680469597"><ele>3.0</ele><time>2026-04-03T15:36:36Z</time></trkpt><trkpt lat="45.80192074013969" lon="13.54918602429626"><ele>3.0</ele><time>2026-04-03T15:36:37Z</time></trkpt><trkpt lat="45.801931552574956" lon="13.54906026362886"><ele>3.0</ele><time>2026-04-03T15:36:38Z</time></trkpt><trkpt lat="45.801945214454705" lon="13.548966664495802"><ele>3.0</ele><time>2026-04-03T15:36:39Z</time></trkpt><trkpt lat="45.801987561802186" lon="13.548795224966769"><ele>3.3333333333333335</ele><time>2026-04-03T15:36:41Z</time></trkpt><trkpt lat="45.80200972378992" lon="13.548709498495516"><ele>3.666666666666667</ele><time>2026-04-03T15:36:42Z</time></trkpt><trkpt lat="45.80201526229633" lon="13.548616331767827"><ele>4.0</ele><time>2026-04-03T15:36:43Z</time></trkpt><trkpt lat="45.8020021450754" lon="13.548511832006229"><ele>4.333333333333334</ele><time>2026-04-03T15:36:44Z</time></trkpt><trkpt lat="45.8019886389937" lon="13.548405960591506"><ele>4.666666666666667</ele><time>2026-04-03T15:36:45Z</time></trkpt><trkpt lat="45.801983570643955" lon="13.548292141358289"><ele>5.0</ele><time>2026-04-03T15:36:46Z</time></trkpt><trkpt lat="45.80199791773382" lon="13.548156109298272"><ele>5.0</ele><time>2026-04-03T15:36:47Z</time></trkpt><trkpt lat="45.80200754831398" lon="13.548029169873338"><ele>5.0</ele><time>2026-04-03T15:36:48Z</time></trkpt><trkpt lat="45.80201211179357" lon="13.547877711479432"><ele>5.0</ele><time>2026-04-03T15:36:49Z</time></trkpt><trkpt lat="45.802019702510165" lon="13.54772530097916"><ele>5.0</ele><time>2026-04-03T15:36:50Z</time></trkpt><trkpt lat="45.80203272456875" lon="13.547577350814688"><ele>5.0</ele><time>2026-04-03T15:36:51Z</time></trkpt><trkpt lat="45.802041921467286" lon="13.547430910654848"><ele>4.6</ele><time>2026-04-03T15:36:52Z</time></trkpt><trkpt lat="45.80205167826524" lon="13.547285376836232"><ele>4.2</ele><time>2026-04-03T15:36:53Z</time></trkpt><trkpt lat="45.80206298908307" lon="13.547146173387294"><ele>3.8</ele><time>2026-04-03T15:36:54Z</time></trkpt><trkpt lat="45.80206906329913" lon="13.547005832524007"><ele>3.4</ele><time>2026-04-03T15:36:55Z</time></trkpt><trkpt lat="45.80207865547105" lon="13.546867354385832"><ele>3.0</ele><time>2026-04-03T15:36:56Z</time></trkpt><trkpt lat="45.80208690392117" lon="13.546728436956098"><ele>2.8</ele><time>2026-04-03T15:36:57Z</time></trkpt><trkpt lat="45.80209722923204" lon="13.54659237324476"><ele>2.5999999999999996</ele><time>2026-04-03T15:36:58Z</time></trkpt><trkpt lat="45.80210618195267" lon="13.54645667566512"><ele>2.4000000000000004</ele><time>2026-04-03T15:36:59Z</time></trkpt><trkpt lat="45.802117755224565" lon="13.546316965764515"><ele>2.2</ele><time>2026-04-03T15:37:00Z</time></trkpt><trkpt lat="45.80213145030099" lon="13.546180585724446"><ele>2.0</ele><time>2026-04-03T15:37:01Z</time></trkpt><trkpt lat="45.80214389459027" lon="13.546058209328937"><ele>1.9999999999999998</ele><time>2026-04-03T15:37:02Z</time></trkpt><trkpt lat="45.80216401508393" lon="13.545953505145132"><ele>2.0</ele><time>2026-04-03T15:37:03Z</time></trkpt><trkpt lat="45.80218345445468" lon="13.545850819860387"><ele>2.0</ele><time>2026-04-03T15:37:04Z</time></trkpt><trkpt lat="45.80220467905408" lon="13.545756831440343"><ele>2.0</ele><time>2026-04-03T15:37:05Z</time></trkpt><trkpt lat="45.802240447432645" lon="13.545652331781667"><ele>1.9999999999999998</ele><time>2026-04-03T15:37:06Z</time></trkpt><trkpt lat="45.80229620116847" lon="13.545568408286455"><ele>2.0</ele><time>2026-04-03T15:37:07Z</time></trkpt><trkpt lat="45.80232247551797" lon="13.54547028211633"><ele>3.1666666666666665</ele><time>2026-04-03T15:37:08Z</time></trkpt><trkpt lat="45.80231073148386" lon="13.54536229659008"><ele>4.333333333333333</ele><time>2026-04-03T15:37:09Z</time></trkpt><trkpt lat="45.8022803443644" lon="13.545259077329822"><ele>5.5</ele><time>2026-04-03T15:37:10Z</time></trkpt><trkpt lat="45.80224557435843" lon="13.545146881438457"><ele>6.666666666666667</ele><time>2026-04-03T15:37:11Z</time></trkpt><trkpt lat="45.8022194436689" lon="13.545017173921693"><ele>7.833333333333333</ele><time>2026-04-03T15:37:12Z</time></trkpt><trkpt lat="45.80221244955532" lon="13.544881870510865"><ele>9.0</ele><time>2026-04-03T15:37:13Z</time></trkpt><trkpt lat="45.802223526527506" lon="13.544734124270814"><ele>9.0</ele><time>2026-04-03T15:37:14Z</time></trkpt><trkpt lat="45.80222966662844" lon="13.544594443240568"><ele>9.0</ele><time>2026-04-03T15:37:15Z</time></trkpt><trkpt lat="45.802234262665614" lon="13.544443266256861"><ele>9.0</ele><time>2026-04-03T15:37:16Z</time></trkpt><trkpt lat="45.802239637816854" lon="13.544283164624495"><ele>9.0</ele><time>2026-04-03T15:37:17Z</time></trkpt><trkpt lat="45.80225001359578" lon="13.544113627403117"><ele>9.0</ele><time>2026-04-03T15:37:18Z</time></trkpt><trkpt lat="45.80225995734059" lon="13.543932461594602"><ele>8.8</ele><time>2026-04-03T15:37:19Z</time></trkpt><trkpt lat="45.80227294114138" lon="13.54376338461827"><ele>8.600000000000001</ele><time>2026-04-03T15:37:20.001Z</time></trkpt><trkpt lat="45.80228364698286" lon="13.543620282230227"><ele>8.4</ele><time>2026-04-03T15:37:21.001Z</time></trkpt><trkpt lat="45.802291511120075" lon="13.543493540420457"><ele>8.200000000000001</ele><time>2026-04-03T15:37:22.001Z</time></trkpt><trkpt lat="45.8022988996392" lon="13.543364610164883"><ele>8.0</ele><time>2026-04-03T15:37:23.001Z</time></trkpt><trkpt lat="45.802311091385015" lon="13.543236007174027"><ele>7.499999999999999</ele><time>2026-04-03T15:37:24.001Z</time></trkpt><trkpt lat="45.802322144038556" lon="13.543123707299992"><ele>7.0</ele><time>2026-04-03T15:37:25.001Z</time></trkpt><trkpt lat="45.802326733931096" lon="13.543023684780708"><ele>6.5</ele><time>2026-04-03T15:37:26.001Z</time></trkpt><trkpt lat="45.802334535887795" lon="13.54291926697119"><ele>6.0</ele><time>2026-04-03T15:37:27.001Z</time></trkpt><trkpt lat="45.80234176781709" lon="13.54281881089339"><ele>5.5</ele><time>2026-04-03T15:37:28.001Z</time></trkpt><trkpt lat="45.80235056580317" lon="13.542645363367082"><ele>5.0</ele><time>2026-04-03T15:37:30.001Z</time></trkpt><trkpt lat="45.8023580679222" lon="13.54254366077263"><ele>5.0</ele><time>2026-04-03T15:37:31.001Z</time></trkpt><trkpt lat="45.8023664120427" lon="13.542424004814151"><ele>5.0</ele><time>2026-04-03T15:37:32.001Z</time></trkpt><trkpt lat="45.80236616202612" lon="13.542257893296753"><ele>5.0</ele><time>2026-04-03T15:37:33.001Z</time></trkpt><trkpt lat="45.80237956424612" lon="13.542091882980223"><ele>5.0</ele><time>2026-04-03T15:37:34.001Z</time></trkpt><trkpt lat="45.802389264843974" lon="13.541930510894375"><ele>5.0</ele><time>2026-04-03T15:37:35.001Z</time></trkpt><trkpt lat="45.80240087978185" lon="13.541773368848219"><ele>4.4</ele><time>2026-04-03T15:37:36.001Z</time></trkpt><trkpt lat="45.802415463184154" lon="13.541619211570218"><ele>3.8</ele><time>2026-04-03T15:37:37.001Z</time></trkpt><trkpt lat="45.802423808247795" lon="13.54146925566563"><ele>3.2</ele><time>2026-04-03T15:37:38.001Z</time></trkpt><trkpt lat="45.80243719102222" lon="13.541318791114454"><ele>2.6</ele><time>2026-04-03T15:37:39.001Z</time></trkpt><trkpt lat="45.80244869767516" lon="13.54117111758563"><ele>2.0</ele><time>2026-04-03T15:37:40.001Z</time></trkpt><trkpt lat="45.80247413910604" lon="13.541008600222955"><ele>2.0</ele><time>2026-04-03T15:37:41.001Z</time></trkpt><trkpt lat="45.80249327589961" lon="13.540835108492127"><ele>2.0</ele><time>2026-04-03T15:37:42.001Z</time></trkpt><trkpt lat="45.80252248435545" lon="13.540657609292568"><ele>2.0</ele><time>2026-04-03T15:37:43.001Z</time></trkpt><trkpt lat="45.802548921638035" lon="13.540492737487485"><ele>2.0</ele><time>2026-04-03T15:37:44.001Z</time></trkpt><trkpt lat="45.80257793283796" lon="13.540335071283174"><ele>1.8</ele><time>2026-04-03T15:37:45Z</time></trkpt><trkpt lat="45.80260306095707" lon="13.54017491776343"><ele>1.6</ele><time>2026-04-03T15:37:46Z</time></trkpt><trkpt lat="45.8026325340691" lon="13.540035914596853"><ele>1.4000000000000001</ele><time>2026-04-03T15:37:47Z</time></trkpt><trkpt lat="45.80266278658014" lon="13.539889474690955"><ele>1.2000000000000002</ele><time>2026-04-03T15:37:48Z</time></trkpt><trkpt lat="45.80270020889862" lon="13.539751195205758"><ele>1.0</ele><time>2026-04-03T15:37:49Z</time></trkpt><trkpt lat="45.80274363482002" lon="13.539614387156522"><ele>0.5</ele><time>2026-04-03T15:37:50Z</time></trkpt><trkpt lat="45.802781632829685" lon="13.539472083374749"><ele>0.0</ele><time>2026-04-03T15:37:51Z</time></trkpt><trkpt lat="45.802828226060925" lon="13.539325680778086"><ele>-0.5</ele><time>2026-04-03T15:37:52Z</time></trkpt><trkpt lat="45.80288210948093" lon="13.539176865327535"><ele>-1.0</ele><time>2026-04-03T15:37:53Z</time></trkpt><trkpt lat="45.80293157039041" lon="13.539019272107701"><ele>-1.0</ele><time>2026-04-03T15:37:54Z</time></trkpt><trkpt lat="45.80298772323841" lon="13.538864892390666"><ele>-1.0</ele><time>2026-04-03T15:37:55Z</time></trkpt><trkpt lat="45.80304183386568" lon="13.538710769008746"><ele>-1.0</ele><time>2026-04-03T15:37:56Z</time></trkpt><trkpt lat="45.80309867123909" lon="13.538557647313958"><ele>-1.0</ele><time>2026-04-03T15:37:57Z</time></trkpt><trkpt lat="45.80315720907715" lon="13.53837846021602"><ele>-1.3333333333333333</ele><time>2026-04-03T15:37:58Z</time></trkpt><trkpt lat="45.80322819040135" lon="13.538151686907167"><ele>-1.6666666666666665</ele><time>2026-04-03T15:37:59Z</time></trkpt><trkpt lat="45.803318105631895" lon="13.53790235216963"><ele>-2.0</ele><time>2026-04-03T15:38:00Z</time></trkpt><trkpt lat="45.803425079502105" lon="13.537620029210428"><ele>-1.0</ele><time>2026-04-03T15:38:01Z</time></trkpt><trkpt lat="45.80352731813139" lon="13.537361308089709"><ele>0.0</ele><time>2026-04-03T15:38:02Z</time></trkpt><trkpt lat="45.80361425808105" lon="13.537120463796423"><ele>1.0</ele><time>2026-04-03T15:38:03Z</time></trkpt><trkpt lat="45.80369891383173" lon="13.536892664969342"><ele>1.3333333333333333</ele><time>2026-04-03T15:38:04Z</time></trkpt><trkpt lat="45.80378173382765" lon="13.536675656924729"><ele>1.6666666666666665</ele><time>2026-04-03T15:38:05Z</time></trkpt><trkpt lat="45.80385950169861" lon="13.53646522471184"><ele>2.0</ele><time>2026-04-03T15:38:06Z</time></trkpt><trkpt lat="45.803933782709066" lon="13.536271345315397"><ele>2.0</ele><time>2026-04-03T15:38:07Z</time></trkpt><trkpt lat="45.80400279711314" lon="13.536086559534846"><ele>2.0</ele><time>2026-04-03T15:38:08Z</time></trkpt><trkpt lat="45.80407510692657" lon="13.535896504923729"><ele>2.0</ele><time>2026-04-03T15:38:09Z</time></trkpt><trkpt lat="45.804146910235644" lon="13.535706628620497"><ele>2.0</ele><time>2026-04-03T15:38:10Z</time></trkpt><trkpt lat="45.80421668944843" lon="13.535514033214943"><ele>3.0</ele><time>2026-04-03T15:38:11Z</time></trkpt><trkpt lat="45.804281459611666" lon="13.535314977614524"><ele>4.0</ele><time>2026-04-03T15:38:12Z</time></trkpt><trkpt lat="45.80434340430066" lon="13.535121090039334"><ele>5.0</ele><time>2026-04-03T15:38:13Z</time></trkpt><trkpt lat="45.804410481899374" lon="13.534930043908172"><ele>5.25</ele><time>2026-04-03T15:38:14Z</time></trkpt><trkpt lat="45.80447999404736" lon="13.53474881913928"><ele>5.5</ele><time>2026-04-03T15:38:15Z</time></trkpt><trkpt lat="45.80453895968002" lon="13.534580293876953"><ele>5.75</ele><time>2026-04-03T15:38:16Z</time></trkpt><trkpt lat="45.80459487052599" lon="13.534421708851777"><ele>6.0</ele><time>2026-04-03T15:38:17Z</time></trkpt><trkpt lat="45.80464843668428" lon="13.534276676908565"><ele>6.0</ele><time>2026-04-03T15:38:18Z</time></trkpt><trkpt lat="45.80469808163465" lon="13.534136719968526"><ele>6.0</ele><time>2026-04-03T15:38:19Z</time></trkpt><trkpt lat="45.80474418556167" lon="13.534004296788344"><ele>6.0</ele><time>2026-04-03T15:38:20Z</time></trkpt><trkpt lat="45.8047879097541" lon="13.533883219499568"><ele>6.0</ele><time>2026-04-03T15:38:21Z</time></trkpt><trkpt lat="45.80483382889896" lon="13.53376291171505"><ele>6.0</ele><time>2026-04-03T15:38:22Z</time></trkpt><trkpt lat="45.80487945563395" lon="13.533643091663778"><ele>5.333333333333333</ele><time>2026-04-03T15:38:23Z</time></trkpt><trkpt lat="45.80491160725786" lon="13.533542953787112"><ele>4.666666666666667</ele><time>2026-04-03T15:38:24Z</time></trkpt><trkpt lat="45.804949819777704" lon="13.533462769392488"><ele>4.0</ele><time>2026-04-03T15:38:25Z</time></trkpt><trkpt lat="45.80502253118752" lon="13.533371773671938"><ele>3.333333333333333</ele><time>2026-04-03T15:38:26Z</time></trkpt><trkpt lat="45.805067316882656" lon="13.533284721231926"><ele>2.6666666666666665</ele><time>2026-04-03T15:38:27Z</time></trkpt><trkpt lat="45.805070110370714" lon="13.533174452064815"><ele>2.0</ele><time>2026-04-03T15:38:28Z</time></trkpt><trkpt lat="45.80502823717813" lon="13.533089311998781"><ele>2.0</ele><time>2026-04-03T15:38:29Z</time></trkpt><trkpt lat="45.80495362324161" lon="13.533045578074978"><ele>2.0</ele><time>2026-04-03T15:38:30Z</time></trkpt><trkpt lat="45.80485022443446" lon="13.533035335621152"><ele>2.0</ele><time>2026-04-03T15:38:31Z</time></trkpt><trkpt lat="45.80473796055753" lon="13.532997230164883"><ele>2.0</ele><time>2026-04-03T15:38:32Z</time></trkpt><trkpt lat="45.80463507000492" lon="13.532917196805386"><ele>2.0</ele><time>2026-04-03T15:38:33Z</time></trkpt><trkpt lat="45.80453906528476" lon="13.532833271632267"><ele>2.4000000000000004</ele><time>2026-04-03T15:38:34Z</time></trkpt><trkpt lat="45.804440007350856" lon="13.532756958368353"><ele>2.8000000000000003</ele><time>2026-04-03T15:38:35Z</time></trkpt><trkpt lat="45.80434101072682" lon="13.53267877636301"><ele>3.2</ele><time>2026-04-03T15:38:36Z</time></trkpt><trkpt lat="45.804242521776054" lon="13.532601260778204"><ele>3.6</ele><time>2026-04-03T15:38:37Z</time></trkpt><trkpt lat="45.804144982829825" lon="13.532524418149448"><ele>4.0</ele><time>2026-04-03T15:38:38Z</time></trkpt><trkpt lat="45.80404915310091" lon="13.53245119636673"><ele>4.0</ele><time>2026-04-03T15:38:39Z</time></trkpt><trkpt lat="45.80395681400332" lon="13.532378881339021"><ele>4.0</ele><time>2026-04-03T15:38:40Z</time></trkpt><trkpt lat="45.8038673089019" lon="13.532306055903776"><ele>4.0</ele><time>2026-04-03T15:38:41Z</time></trkpt><trkpt lat="45.80377778221401" lon="13.53223549894571"><ele>4.0</ele><time>2026-04-03T15:38:42Z</time></trkpt><trkpt lat="45.803688761963855" lon="13.532167115083514"><ele>4.0</ele><time>2026-04-03T15:38:43Z</time></trkpt><trkpt lat="45.80360119167301" lon="13.532098939425785"><ele>4.4</ele><time>2026-04-03T15:38:44Z</time></trkpt><trkpt lat="45.80351356957321" lon="13.532033834310202"><ele>4.800000000000001</ele><time>2026-04-03T15:38:45Z</time></trkpt><trkpt lat="45.80342692808158" lon="13.53196732718597"><ele>5.199999999999999</ele><time>2026-04-03T15:38:46Z</time></trkpt><trkpt lat="45.803341051116206" lon="13.531901158944805"><ele>5.6</ele><time>2026-04-03T15:38:47Z</time></trkpt><trkpt lat="45.80325426807012" lon="13.531837190522"><ele>6.0</ele><time>2026-04-03T15:38:48Z</time></trkpt><trkpt lat="45.80316620129835" lon="13.531774967025795"><ele>4.8</ele><time>2026-04-03T15:38:49Z</time></trkpt><trkpt lat="45.80307851900822" lon="13.531710333402946"><ele>3.5999999999999996</ele><time>2026-04-03T15:38:50Z</time></trkpt><trkpt lat="45.80299120035104" lon="13.531644485618706"><ele>2.4</ele><time>2026-04-03T15:38:51Z</time></trkpt><trkpt lat="45.80290374803894" lon="13.53157773290915"><ele>1.2</ele><time>2026-04-03T15:38:52Z</time></trkpt><trkpt lat="45.80281513330921" lon="13.531512281553978"><ele>0.0</ele><time>2026-04-03T15:38:53Z</time></trkpt><trkpt lat="45.802727143965086" lon="13.53144590328165"><ele>0.4</ele><time>2026-04-03T15:38:54Z</time></trkpt><trkpt lat="45.802639730706765" lon="13.531377903399612"><ele>0.8</ele><time>2026-04-03T15:38:55Z</time></trkpt><trkpt lat="45.80255450224906" lon="13.531314636745636"><ele>1.2000000000000002</ele><time>2026-04-03T15:38:56Z</time></trkpt><trkpt lat="45.80248111821704" lon="13.531261094277811"><ele>1.6</ele><time>2026-04-03T15:38:57Z</time></trkpt><trkpt lat="45.802418388396205" lon="13.531211146547534"><ele>2.0</ele><time>2026-04-03T15:38:58Z</time></trkpt><trkpt lat="45.802322833688024" lon="13.531142930845407"><ele>2.2</ele><time>2026-04-03T15:39:00Z</time></trkpt><trkpt lat="45.80224800422276" lon="13.531087242419463"><ele>2.4000000000000004</ele><time>2026-04-03T15:39:03Z</time></trkpt><trkpt lat="45.80214167213407" lon="13.531006356760678"><ele>2.5999999999999996</ele><time>2026-04-03T15:39:05Z</time></trkpt><trkpt lat="45.802065336103254" lon="13.530953124751946"><ele>2.8</ele><time>2026-04-03T15:39:06Z</time></trkpt><trkpt lat="45.80199167043834" lon="13.530898073093026"><ele>3.0</ele><time>2026-04-03T15:39:07Z</time></trkpt><trkpt lat="45.80191076752625" lon="13.530838757137314"><ele>3.0</ele><time>2026-04-03T15:39:08Z</time></trkpt><trkpt lat="45.80182669418605" lon="13.530775402697122"><ele>3.0</ele><time>2026-04-03T15:39:09Z</time></trkpt><trkpt lat="45.80173914113817" lon="13.5307058785583"><ele>3.0</ele><time>2026-04-03T15:39:10Z</time></trkpt><trkpt lat="45.80165925547121" lon="13.530647145614736"><ele>3.0</ele><time>2026-04-03T15:39:11Z</time></trkpt><trkpt lat="45.80158721227538" lon="13.530592182664522"><ele>3.0</ele><time>2026-04-03T15:39:12Z</time></trkpt><trkpt lat="45.80152623703206" lon="13.530546654017472"><ele>3.0</ele><time>2026-04-03T15:39:13Z</time></trkpt><trkpt lat="45.80145839154678" lon="13.530483277652538"><ele>2.8</ele><time>2026-04-03T15:39:15Z</time></trkpt><trkpt lat="45.801370811563636" lon="13.530351913717189"><ele>2.5999999999999996</ele><time>2026-04-03T15:39:18Z</time></trkpt><trkpt lat="45.801325029316416" lon="13.530263577561463"><ele>2.4000000000000004</ele><time>2026-04-03T15:39:19Z</time></trkpt><trkpt lat="45.80124999435962" lon="13.530226836391572"><ele>2.2</ele><time>2026-04-03T15:39:20Z</time></trkpt><trkpt lat="45.80116521053381" lon="13.530239413482558"><ele>2.0</ele><time>2026-04-03T15:39:21Z</time></trkpt><trkpt lat="45.80107542516462" lon="13.53028739816538"><ele>1.5</ele><time>2026-04-03T15:39:22Z</time></trkpt><trkpt lat="45.80096599421734" lon="13.530313598058664"><ele>1.0</ele><time>2026-04-03T15:39:23Z</time></trkpt><trkpt lat="45.800846226061445" lon="13.530310843791138"><ele>0.5</ele><time>2026-04-03T15:39:24Z</time></trkpt><trkpt lat="45.800731925550664" lon="13.530255022274046"><ele>0.0</ele><time>2026-04-03T15:39:25.001Z</time></trkpt><trkpt lat="45.80062679190964" lon="13.53018075131933"><ele>0.0</ele><time>2026-04-03T15:39:26.001Z</time></trkpt><trkpt lat="45.80053078882195" lon="13.53006793693045"><ele>0.0</ele><time>2026-04-03T15:39:27.001Z</time></trkpt><trkpt lat="45.800424464237615" lon="13.529950624588485"><ele>0.0</ele><time>2026-04-03T15:39:28.001Z</time></trkpt><trkpt lat="45.800310725123346" lon="13.529849903168445"><ele>0.0</ele><time>2026-04-03T15:39:29.001Z</time></trkpt><trkpt lat="45.80020967597105" lon="13.529739340162527"><ele>0.2</ele><time>2026-04-03T15:39:30.001Z</time></trkpt><trkpt lat="45.80013135636356" lon="13.529622898953555"><ele>0.4</ele><time>2026-04-03T15:39:31.001Z</time></trkpt><trkpt lat="45.800055132883" lon="13.529537943266506"><ele>0.6000000000000001</ele><time>2026-04-03T15:39:32.001Z</time></trkpt><trkpt lat="45.799991742700506" lon="13.529467896851589"><ele>0.8</ele><time>2026-04-03T15:39:33.001Z</time></trkpt><trkpt lat="45.79993709830122" lon="13.529407425376057"><ele>1.0</ele><time>2026-04-03T15:39:34.001Z</time></trkpt><trkpt lat="45.79985569227222" lon="13.529317318109742"><ele>0.6666666666666666</ele><time>2026-04-03T15:39:36.001Z</time></trkpt><trkpt lat="45.799779544098655" lon="13.52921348881346"><ele>0.3333333333333333</ele><time>2026-04-03T15:39:38.001Z</time></trkpt><trkpt lat="45.79974411610938" lon="13.529125121973987"><ele>0.0</ele><time>2026-04-03T15:39:39.001Z</time></trkpt><trkpt lat="45.79971730168366" lon="13.529013820492493"><ele>-0.3333333333333333</ele><time>2026-04-03T15:39:40.001Z</time></trkpt><trkpt lat="45.7997040995906" lon="13.52891250481444"><ele>-0.6666666666666666</ele><time>2026-04-03T15:39:41.001Z</time></trkpt><trkpt lat="45.79961211420421" lon="13.528845824560198"><ele>-1.0</ele><time>2026-04-03T15:39:42.001Z</time></trkpt><trkpt lat="45.79954591291397" lon="13.528764969452352"><ele>-1.2000000000000002</ele><time>2026-04-03T15:39:43.001Z</time></trkpt><trkpt lat="45.799494669726556" lon="13.528664635294456"><ele>-1.4000000000000001</ele><time>2026-04-03T15:39:44.001Z</time></trkpt><trkpt lat="45.79945374744729" lon="13.52854717587425"><ele>-1.6</ele><time>2026-04-03T15:39:45.001Z</time></trkpt><trkpt lat="45.79941574890753" lon="13.528416466735086"><ele>-1.8</ele><time>2026-04-03T15:39:46.001Z</time></trkpt><trkpt lat="45.799374278413744" lon="13.528281027432223"><ele>-2.0</ele><time>2026-04-03T15:39:47Z</time></trkpt><trkpt lat="45.799329486491246" lon="13.528141240183633"><ele>-2.0</ele><time>2026-04-03T15:39:48Z</time></trkpt><trkpt lat="45.79928275375696" lon="13.527997986414226"><ele>-2.0</ele><time>2026-04-03T15:39:49Z</time></trkpt><trkpt lat="45.79923969907627" lon="13.527847857940229"><ele>-2.0</ele><time>2026-04-03T15:39:50Z</time></trkpt><trkpt lat="45.799194851308286" lon="13.527699105843258"><ele>-2.0</ele><time>2026-04-03T15:39:51Z</time></trkpt><trkpt lat="45.799150718610335" lon="13.527545428368317"><ele>-1.5</ele><time>2026-04-03T15:39:52Z</time></trkpt><trkpt lat="45.79910725441003" lon="13.527390051933002"><ele>-1.0</ele><time>2026-04-03T15:39:53Z</time></trkpt><trkpt lat="45.7990607700692" lon="13.527230633330804"><ele>-0.5</ele><time>2026-04-03T15:39:54Z</time></trkpt><trkpt lat="45.79901043065769" lon="13.527062509869289"><ele>0.0</ele><time>2026-04-03T15:39:55Z</time></trkpt><trkpt lat="45.79895904012556" lon="13.526893797505918"><ele>0.25</ele><time>2026-04-03T15:39:56Z</time></trkpt><trkpt lat="45.798907745936575" lon="13.526729177007168"><ele>0.5</ele><time>2026-04-03T15:39:57Z</time></trkpt><trkpt lat="45.79885661272695" lon="13.526562682499591"><ele>0.75</ele><time>2026-04-03T15:39:58Z</time></trkpt><trkpt lat="45.798803916371476" lon="13.526390645677537"><ele>1.0</ele><time>2026-04-03T15:39:59Z</time></trkpt><trkpt lat="45.798753598276384" lon="13.526210855690357"><ele>1.25</ele><time>2026-04-03T15:40:00Z</time></trkpt><trkpt lat="45.798705151341075" lon="13.526028867203173"><ele>1.5</ele><time>2026-04-03T15:40:01Z</time></trkpt><trkpt lat="45.79866142177636" lon="13.525841217851031"><ele>1.75</ele><time>2026-04-03T15:40:02Z</time></trkpt><trkpt lat="45.79861979220205" lon="13.525650961691188"><ele>2.0</ele><time>2026-04-03T15:40:03Z</time></trkpt><trkpt lat="45.79857314013558" lon="13.525464562882272"><ele>2.333333333333333</ele><time>2026-04-03T15:40:04Z</time></trkpt><trkpt lat="45.798514886319694" lon="13.525246477377076"><ele>2.6666666666666665</ele><time>2026-04-03T15:40:05Z</time></trkpt><trkpt lat="45.798444825062305" lon="13.524974146597414"><ele>3.0</ele><time>2026-04-03T15:40:06Z</time></trkpt><trkpt lat="45.798381657492484" lon="13.52469211291112"><ele>3.25</ele><time>2026-04-03T15:40:07Z</time></trkpt><trkpt lat="45.79833036998398" lon="13.524458555111941"><ele>3.5</ele><time>2026-04-03T15:40:08Z</time></trkpt><trkpt lat="45.79829526419054" lon="13.524289307871863"><ele>3.75</ele><time>2026-04-03T15:40:09Z</time></trkpt><trkpt lat="45.79828477796659" lon="13.52414262717431"><ele>4.0</ele><time>2026-04-03T15:40:10Z</time></trkpt><trkpt lat="45.79828341193603" lon="13.524002194245483"><ele>4.0</ele><time>2026-04-03T15:40:11Z</time></trkpt><trkpt lat="45.79825703493793" lon="13.523845297853809"><ele>4.0</ele><time>2026-04-03T15:40:12Z</time></trkpt><trkpt lat="45.7981450537489" lon="13.523662643985539"><ele>4.0</ele><time>2026-04-03T15:40:13Z</time></trkpt><trkpt lat="45.79809727500198" lon="13.523412489553316"><ele>3.6666666666666665</ele><time>2026-04-03T15:40:14Z</time></trkpt><trkpt lat="45.798026681441925" lon="13.523176330813875"><ele>3.333333333333333</ele><time>2026-04-03T15:40:15Z</time></trkpt><trkpt lat="45.79797651923862" lon="13.522933226363353"><ele>3.0</ele><time>2026-04-03T15:40:16Z</time></trkpt><trkpt lat="45.79792105770568" lon="13.522695634675014"><ele>3.0</ele><time>2026-04-03T15:40:17Z</time></trkpt><trkpt lat="45.79786813624839" lon="13.522467111671226"><ele>3.0</ele><time>2026-04-03T15:40:18Z</time></trkpt><trkpt lat="45.79781563797737" lon="13.522238696333945"><ele>3.0</ele><time>2026-04-03T15:40:19Z</time></trkpt><trkpt lat="45.79776437766198" lon="13.522019645219475"><ele>2.3333333333333335</ele><time>2026-04-03T15:40:20Z</time></trkpt><trkpt lat="45.79771231946504" lon="13.521800008304593"><ele>1.6666666666666665</ele><time>2026-04-03T15:40:21Z</time></trkpt><trkpt lat="45.79766265122082" lon="13.521586024837434"><ele>1.0</ele><time>2026-04-03T15:40:22Z</time></trkpt><trkpt lat="45.79761462254737" lon="13.521374963861307"><ele>1.25</ele><time>2026-04-03T15:40:23Z</time></trkpt><trkpt lat="45.79756753979382" lon="13.521171136508283"><ele>1.5</ele><time>2026-04-03T15:40:24Z</time></trkpt><trkpt lat="45.797518854056925" lon="13.520967362902358"><ele>1.75</ele><time>2026-04-03T15:40:25Z</time></trkpt><trkpt lat="45.797471053751124" lon="13.520768494716824"><ele>2.0</ele><time>2026-04-03T15:40:26Z</time></trkpt><trkpt lat="45.79742227971659" lon="13.520571641951337"><ele>2.0</ele><time>2026-04-03T15:40:27Z</time></trkpt><trkpt lat="45.797377647909535" lon="13.520380460449225"><ele>2.0</ele><time>2026-04-03T15:40:28Z</time></trkpt><trkpt lat="45.79733037621259" lon="13.520177987587283"><ele>2.0</ele><time>2026-04-03T15:40:29Z</time></trkpt><trkpt lat="45.79728151016091" lon="13.51997728370549"><ele>2.0</ele><time>2026-04-03T15:40:30Z</time></trkpt><trkpt lat="45.79723404804264" lon="13.519778137448432"><ele>2.0</ele><time>2026-04-03T15:40:31Z</time></trkpt><trkpt lat="45.79718771230255" lon="13.519584578790926"><ele>2.0</ele><time>2026-04-03T15:40:32Z</time></trkpt><trkpt lat="45.79714379603673" lon="13.519393499271949"><ele>2.0</ele><time>2026-04-03T15:40:33Z</time></trkpt><trkpt lat="45.79710042185455" lon="13.519205514334665"><ele>2.0</ele><time>2026-04-03T15:40:34Z</time></trkpt><trkpt lat="45.79705855898091" lon="13.519020065230338"><ele>1.5</ele><time>2026-04-03T15:40:35Z</time></trkpt><trkpt lat="45.79701645324164" lon="13.518836681021401"><ele>1.0</ele><time>2026-04-03T15:40:36Z</time></trkpt><trkpt lat="45.796973818120804" lon="13.518656457177103"><ele>0.5</ele><time>2026-04-03T15:40:37Z</time></trkpt><trkpt lat="45.79693301791046" lon="13.518480194344576"><ele>0.0</ele><time>2026-04-03T15:40:38Z</time></trkpt><trkpt lat="45.79689845615095" lon="13.518317316170926"><ele>0.0</ele><time>2026-04-03T15:40:39Z</time></trkpt><trkpt lat="45.796864300290665" lon="13.518160454308346"><ele>0.0</ele><time>2026-04-03T15:40:40Z</time></trkpt><trkpt lat="45.79682449348389" lon="13.517997858155798"><ele>0.0</ele><time>2026-04-03T15:40:41Z</time></trkpt><trkpt lat="45.79678313600704" lon="13.517826991162059"><ele>0.0</ele><time>2026-04-03T15:40:42Z</time></trkpt><trkpt lat="45.79674586280301" lon="13.517663675396598"><ele>0.0</ele><time>2026-04-03T15:40:43Z</time></trkpt><trkpt lat="45.796713478239575" lon="13.51751883331597"><ele>0.0</ele><time>2026-04-03T15:40:44Z</time></trkpt><trkpt lat="45.79668283507541" lon="13.51738404563084"><ele>0.0</ele><time>2026-04-03T15:40:45Z</time></trkpt><trkpt lat="45.79665436702237" lon="13.51727009084017"><ele>0.0</ele><time>2026-04-03T15:40:46Z</time></trkpt><trkpt lat="45.79663238180597" lon="13.517174462912317"><ele>0.0</ele><time>2026-04-03T15:40:47Z</time></trkpt><trkpt lat="45.79661332916661" lon="13.517083507145477"><ele>0.0</ele><time>2026-04-03T15:40:48Z</time></trkpt><trkpt lat="45.79659509956872" lon="13.516981829136709"><ele>0.0</ele><time>2026-04-03T15:40:49Z</time></trkpt><trkpt lat="45.79658709046448" lon="13.516865601690156"><ele>0.0</ele><time>2026-04-03T15:40:50Z</time></trkpt><trkpt lat="45.7966126574332" lon="13.516733840343749"><ele>0.0</ele><time>2026-04-03T15:40:51Z</time></trkpt><trkpt lat="45.79663589304223" lon="13.516620356135883"><ele>0.0</ele><time>2026-04-03T15:40:52Z</time></trkpt><trkpt lat="45.796608247623595" lon="13.516520591768733"><ele>0.0</ele><time>2026-04-03T15:40:53Z</time></trkpt><trkpt lat="45.796563119300735" lon="13.516401900566843"><ele>0.0</ele><time>2026-04-03T15:40:54Z</time></trkpt><trkpt lat="45.79646352471786" lon="13.516324815650965"><ele>0.25</ele><time>2026-04-03T15:40:55Z</time></trkpt><trkpt lat="45.79639965896846" lon="13.516202873427314"><ele>0.5</ele><time>2026-04-03T15:40:56Z</time></trkpt><trkpt lat="45.796391117798855" lon="13.516027675737067"><ele>0.75</ele><time>2026-04-03T15:40:57Z</time></trkpt><trkpt lat="45.79634949549768" lon="13.515849868786106"><ele>1.0</ele><time>2026-04-03T15:40:58Z</time></trkpt><trkpt lat="45.79630445629148" lon="13.515658448642549"><ele>1.0</ele><time>2026-04-03T15:40:59Z</time></trkpt><trkpt lat="45.79625935252246" lon="13.515466753877293"><ele>1.0</ele><time>2026-04-03T15:41:00Z</time></trkpt><trkpt lat="45.796214814776796" lon="13.515277464837025"><ele>1.0</ele><time>2026-04-03T15:41:01Z</time></trkpt><trkpt lat="45.79616821972901" lon="13.51507943205614"><ele>1.0</ele><time>2026-04-03T15:41:02Z</time></trkpt><trkpt lat="45.796119379421015" lon="13.51487185675836"><ele>1.3333333333333333</ele><time>2026-04-03T15:41:03Z</time></trkpt><trkpt lat="45.79606514231945" lon="13.514640886307804"><ele>1.6666666666666665</ele><time>2026-04-03T15:41:04Z</time></trkpt><trkpt lat="45.796010450767184" lon="13.514405206845378"><ele>2.0</ele><time>2026-04-03T15:41:05Z</time></trkpt><trkpt lat="45.79595412170534" lon="13.514162470825267"><ele>2.333333333333333</ele><time>2026-04-03T15:41:06Z</time></trkpt><trkpt lat="45.79589689055552" lon="13.513915847691194"><ele>2.6666666666666665</ele><time>2026-04-03T15:41:07Z</time></trkpt><trkpt lat="45.795837845043486" lon="13.513663176524382"><ele>3.0</ele><time>2026-04-03T15:41:08Z</time></trkpt><trkpt lat="45.795778483129844" lon="13.513411201386562"><ele>2.0</ele><time>2026-04-03T15:41:09Z</time></trkpt><trkpt lat="45.79571977361049" lon="13.513162085168272"><ele>1.0</ele><time>2026-04-03T15:41:10Z</time></trkpt><trkpt lat="45.795661316468795" lon="13.512915539259408"><ele>0.0</ele><time>2026-04-03T15:41:11Z</time></trkpt><trkpt lat="45.79560280393177" lon="13.512668759679247"><ele>0.0</ele><time>2026-04-03T15:41:12Z</time></trkpt><trkpt lat="45.79554554312725" lon="13.512427259306516"><ele>0.0</ele><time>2026-04-03T15:41:13Z</time></trkpt><trkpt lat="45.79548945114599" lon="13.51219029384989"><ele>0.0</ele><time>2026-04-03T15:41:14Z</time></trkpt><trkpt lat="45.795435029315556" lon="13.511959316226944"><ele>0.6666666666666666</ele><time>2026-04-03T15:41:15Z</time></trkpt><trkpt lat="45.79538252944324" lon="13.511736588630985"><ele>1.3333333333333333</ele><time>2026-04-03T15:41:16Z</time></trkpt><trkpt lat="45.79533014198956" lon="13.51151254617969"><ele>2.0</ele><time>2026-04-03T15:41:17Z</time></trkpt><trkpt lat="45.79527830449092" lon="13.51129085602429"><ele>2.0</ele><time>2026-04-03T15:41:18Z</time></trkpt><trkpt lat="45.79523090742726" lon="13.51108815623227"><ele>2.0</ele><time>2026-04-03T15:41:19Z</time></trkpt><trkpt lat="45.79518578236248" lon="13.510895172099934"><ele>2.0</ele><time>2026-04-03T15:41:20Z</time></trkpt><trkpt lat="45.795140895768974" lon="13.510703507569312"><ele>2.0</ele><time>2026-04-03T15:41:21Z</time></trkpt><trkpt lat="45.79509734615513" lon="13.510520306172728"><ele>1.75</ele><time>2026-04-03T15:41:22Z</time></trkpt><trkpt lat="45.79505581186671" lon="13.51034540569598"><ele>1.5</ele><time>2026-04-03T15:41:23Z</time></trkpt><trkpt lat="45.795016313499254" lon="13.510177105529397"><ele>1.25</ele><time>2026-04-03T15:41:24Z</time></trkpt><trkpt lat="45.79496525980456" lon="13.510015464899501"><ele>1.0</ele><time>2026-04-03T15:41:25Z</time></trkpt><trkpt lat="45.794928812900295" lon="13.509842411506094"><ele>1.0</ele><time>2026-04-03T15:41:26Z</time></trkpt><trkpt lat="45.794893088910904" lon="13.509674411457098"><ele>1.0</ele><time>2026-04-03T15:41:27Z</time></trkpt><trkpt lat="45.794855391457496" lon="13.509500291246175"><ele>1.0</ele><time>2026-04-03T15:41:28Z</time></trkpt><trkpt lat="45.794817767168134" lon="13.50932306917742"><ele>1.0</ele><time>2026-04-03T15:41:29Z</time></trkpt><trkpt lat="45.79478234080367" lon="13.50914261130596"><ele>0.75</ele><time>2026-04-03T15:41:30Z</time></trkpt><trkpt lat="45.7947505900167" lon="13.508959473182442"><ele>0.5</ele><time>2026-04-03T15:41:31.001Z</time></trkpt><trkpt lat="45.79471959409788" lon="13.508769578939422"><ele>0.25</ele><time>2026-04-03T15:41:32.001Z</time></trkpt><trkpt lat="45.7946870550605" lon="13.508573997510114"><ele>0.0</ele><time>2026-04-03T15:41:33.001Z</time></trkpt><trkpt lat="45.79465655747861" lon="13.508364558572431"><ele>0.75</ele><time>2026-04-03T15:41:34.001Z</time></trkpt><trkpt lat="45.79462233672423" lon="13.50816942560973"><ele>1.5</ele><time>2026-04-03T15:41:35.001Z</time></trkpt><trkpt lat="45.794586635747656" lon="13.507975817447683"><ele>2.25</ele><time>2026-04-03T15:41:36.001Z</time></trkpt><trkpt lat="45.794555881494254" lon="13.507775596816876"><ele>3.0</ele><time>2026-04-03T15:41:37.001Z</time></trkpt><trkpt lat="45.79452597129511" lon="13.507569895468139"><ele>3.0</ele><time>2026-04-03T15:41:38.001Z</time></trkpt><trkpt lat="45.79449771502416" lon="13.507356691181155"><ele>3.0</ele><time>2026-04-03T15:41:39.001Z</time></trkpt><trkpt lat="45.79447589713213" lon="13.507137500520642"><ele>3.0</ele><time>2026-04-03T15:41:40.001Z</time></trkpt><trkpt lat="45.79445588061622" lon="13.506918703738288"><ele>2.3333333333333335</ele><time>2026-04-03T15:41:41.001Z</time></trkpt><trkpt lat="45.79443837029135" lon="13.50670009749148"><ele>1.6666666666666665</ele><time>2026-04-03T15:41:42.001Z</time></trkpt><trkpt lat="45.79442374233481" lon="13.506478812524142"><ele>1.0</ele><time>2026-04-03T15:41:43.001Z</time></trkpt><trkpt lat="45.79440876767158" lon="13.506270053008658"><ele>1.0</ele><time>2026-04-03T15:41:44.001Z</time></trkpt><trkpt lat="45.79440118779974" lon="13.506073854540425"><ele>1.0</ele><time>2026-04-03T15:41:45.001Z</time></trkpt><trkpt lat="45.79439537057526" lon="13.505889264902738"><ele>1.0</ele><time>2026-04-03T15:41:46.001Z</time></trkpt><trkpt lat="45.794394085166" lon="13.50571394329908"><ele>1.0</ele><time>2026-04-03T15:41:47.001Z</time></trkpt><trkpt lat="45.79438840420271" lon="13.50554407764055"><ele>1.5</ele><time>2026-04-03T15:41:48.001Z</time></trkpt><trkpt lat="45.79438267841039" lon="13.505364469296241"><ele>2.0</ele><time>2026-04-03T15:41:49Z</time></trkpt><trkpt lat="45.79438043349391" lon="13.505178422824239"><ele>2.5</ele><time>2026-04-03T15:41:50Z</time></trkpt><trkpt lat="45.79438107581834" lon="13.504988710962468"><ele>3.0</ele><time>2026-04-03T15:41:51Z</time></trkpt><trkpt lat="45.79438264203144" lon="13.504794969548575"><ele>3.0</ele><time>2026-04-03T15:41:52Z</time></trkpt><trkpt lat="45.79438206717459" lon="13.504596980637974"><ele>3.0</ele><time>2026-04-03T15:41:53Z</time></trkpt><trkpt lat="45.79440145005313" lon="13.504393928683816"><ele>3.0</ele><time>2026-04-03T15:41:54Z</time></trkpt><trkpt lat="45.7943890685544" lon="13.504203583804486"><ele>3.0</ele><time>2026-04-03T15:41:55Z</time></trkpt><trkpt lat="45.79439102971725" lon="13.504021468470237"><ele>3.0</ele><time>2026-04-03T15:41:56Z</time></trkpt><trkpt lat="45.79441027637111" lon="13.503829267210733"><ele>3.0</ele><time>2026-04-03T15:41:57Z</time></trkpt><trkpt lat="45.79439846043299" lon="13.503630266739494"><ele>3.0</ele><time>2026-04-03T15:41:58Z</time></trkpt><trkpt lat="45.794403866288484" lon="13.503425795168885"><ele>3.0</ele><time>2026-04-03T15:41:59Z</time></trkpt><trkpt lat="45.79440725382854" lon="13.503217752301264"><ele>3.0</ele><time>2026-04-03T15:42:00Z</time></trkpt><trkpt lat="45.794410844381375" lon="13.503006296075194"><ele>3.0</ele><time>2026-04-03T15:42:01Z</time></trkpt><trkpt lat="45.79441601193215" lon="13.502798727008697"><ele>3.0</ele><time>2026-04-03T15:42:02Z</time></trkpt><trkpt lat="45.79442035374595" lon="13.502594886789781"><ele>3.0</ele><time>2026-04-03T15:42:03Z</time></trkpt><trkpt lat="45.79442581865434" lon="13.5023956615258"><ele>2.75</ele><time>2026-04-03T15:42:04Z</time></trkpt><trkpt lat="45.79443111379409" lon="13.50220552539444"><ele>2.5</ele><time>2026-04-03T15:42:05Z</time></trkpt><trkpt lat="45.794432422553" lon="13.502014188049"><ele>2.25</ele><time>2026-04-03T15:42:06Z</time></trkpt><trkpt lat="45.79443208865865" lon="13.501810108339413"><ele>2.0</ele><time>2026-04-03T15:42:07Z</time></trkpt><trkpt lat="45.79443713999103" lon="13.501598724576686"><ele>1.6666666666666665</ele><time>2026-04-03T15:42:08Z</time></trkpt><trkpt lat="45.79443882385263" lon="13.501378718173138"><ele>1.3333333333333333</ele><time>2026-04-03T15:42:09Z</time></trkpt><trkpt lat="45.79445867232126" lon="13.501157748985095"><ele>1.0</ele><time>2026-04-03T15:42:10Z</time></trkpt><trkpt lat="45.79444746409059" lon="13.500934156763309"><ele>1.0</ele><time>2026-04-03T15:42:11Z</time></trkpt><trkpt lat="45.794453338985" lon="13.500704106814828"><ele>1.0</ele><time>2026-04-03T15:42:12Z</time></trkpt><trkpt lat="45.7944579906819" lon="13.500474934172226"><ele>1.0</ele><time>2026-04-03T15:42:13Z</time></trkpt><trkpt lat="45.79446121397648" lon="13.500248960148003"><ele>1.0</ele><time>2026-04-03T15:42:14Z</time></trkpt><trkpt lat="45.794464670582585" lon="13.500021023307047"><ele>1.0</ele><time>2026-04-03T15:42:15Z</time></trkpt><trkpt lat="45.794468549845575" lon="13.499793202576447"><ele>1.0</ele><time>2026-04-03T15:42:16Z</time></trkpt><trkpt lat="45.79447201567772" lon="13.499559401880715"><ele>1.0</ele><time>2026-04-03T15:42:17Z</time></trkpt><trkpt lat="45.794475800768105" lon="13.499317359722403"><ele>1.0</ele><time>2026-04-03T15:42:18Z</time></trkpt><trkpt lat="45.79447968560147" lon="13.499078997591974"><ele>1.0</ele><time>2026-04-03T15:42:19Z</time></trkpt><trkpt lat="45.79448332958808" lon="13.498827616909434"><ele>1.6666666666666665</ele><time>2026-04-03T15:42:20Z</time></trkpt><trkpt lat="45.79448490704339" lon="13.498573215396402"><ele>2.3333333333333335</ele><time>2026-04-03T15:42:21Z</time></trkpt><trkpt lat="45.79448249897598" lon="13.498317744152116"><ele>3.0</ele><time>2026-04-03T15:42:22Z</time></trkpt><trkpt lat="45.79447580925677" lon="13.498059228553224"><ele>2.6666666666666665</ele><time>2026-04-03T15:42:23Z</time></trkpt><trkpt lat="45.79446601328844" lon="13.497804862904871"><ele>2.333333333333333</ele><time>2026-04-03T15:42:24Z</time></trkpt><trkpt lat="45.79445676726718" lon="13.497551385301577"><ele>2.0</ele><time>2026-04-03T15:42:25Z</time></trkpt><trkpt lat="45.794451210884105" lon="13.497297183961177"><ele>2.0</ele><time>2026-04-03T15:42:26Z</time></trkpt><trkpt lat="45.794442199651584" lon="13.497037044706541"><ele>2.0</ele><time>2026-04-03T15:42:27Z</time></trkpt><trkpt lat="45.794426593848826" lon="13.49675657213461"><ele>2.0</ele><time>2026-04-03T15:42:28Z</time></trkpt><trkpt lat="45.79441019671911" lon="13.496492760891389"><ele>1.3333333333333333</ele><time>2026-04-03T15:42:29Z</time></trkpt><trkpt lat="45.794393364127394" lon="13.496231459254064"><ele>0.6666666666666666</ele><time>2026-04-03T15:42:30Z</time></trkpt><trkpt lat="45.794375841798" lon="13.495975208065941"><ele>0.0</ele><time>2026-04-03T15:42:31Z</time></trkpt><trkpt lat="45.79435651155891" lon="13.495720112225783"><ele>0.0</ele><time>2026-04-03T15:42:32Z</time></trkpt><trkpt lat="45.79433506634015" lon="13.495468051125387"><ele>0.0</ele><time>2026-04-03T15:42:33Z</time></trkpt><trkpt lat="45.79431386364873" lon="13.495213720349485"><ele>0.0</ele><time>2026-04-03T15:42:34Z</time></trkpt><trkpt lat="45.79429290317224" lon="13.494960684573211"><ele>0.6666666666666666</ele><time>2026-04-03T15:42:35Z</time></trkpt><trkpt lat="45.79427070501218" lon="13.49471130623128"><ele>1.3333333333333333</ele><time>2026-04-03T15:42:36Z</time></trkpt><trkpt lat="45.794248073620814" lon="13.49446084893195"><ele>2.0</ele><time>2026-04-03T15:42:37Z</time></trkpt><trkpt lat="45.79422432626243" lon="13.494203505818016"><ele>2.333333333333333</ele><time>2026-04-03T15:42:38Z</time></trkpt><trkpt lat="45.79421582337769" lon="13.49394895449366"><ele>2.6666666666666665</ele><time>2026-04-03T15:42:39Z</time></trkpt><trkpt lat="45.794193353816716" lon="13.493709841202529"><ele>3.0</ele><time>2026-04-03T15:42:40Z</time></trkpt><trkpt lat="45.7941702120256" lon="13.493470216346132"><ele>2.3333333333333335</ele><time>2026-04-03T15:42:41Z</time></trkpt><trkpt lat="45.79413115830469" lon="13.493234289888216"><ele>1.6666666666666665</ele><time>2026-04-03T15:42:42Z</time></trkpt><trkpt lat="45.794123771313835" lon="13.492992274125811"><ele>1.0</ele><time>2026-04-03T15:42:43Z</time></trkpt><trkpt lat="45.79410076888662" lon="13.49275715694238"><ele>1.0</ele><time>2026-04-03T15:42:44Z</time></trkpt><trkpt lat="45.79406246240816" lon="13.49253499201324"><ele>1.0</ele><time>2026-04-03T15:42:45Z</time></trkpt><trkpt lat="45.794041113276975" lon="13.492314717975384"><ele>1.0</ele><time>2026-04-03T15:42:46Z</time></trkpt><trkpt lat="45.79401878819782" lon="13.49208717525153"><ele>0.3333333333333333</ele><time>2026-04-03T15:42:47Z</time></trkpt><trkpt lat="45.79399732793721" lon="13.491860672505526"><ele>-0.3333333333333333</ele><time>2026-04-03T15:42:48Z</time></trkpt><trkpt lat="45.79399205280397" lon="13.491643126669315"><ele>-1.0</ele><time>2026-04-03T15:42:49Z</time></trkpt><trkpt lat="45.793972772903516" lon="13.491440627652201"><ele>-1.0</ele><time>2026-04-03T15:42:50Z</time></trkpt><trkpt lat="45.79395665772742" lon="13.491270621087983"><ele>-1.0</ele><time>2026-04-03T15:42:51Z</time></trkpt><trkpt lat="45.79394064252494" lon="13.491104547370853"><ele>-1.0</ele><time>2026-04-03T15:42:52Z</time></trkpt><trkpt lat="45.79392385727334" lon="13.4909322802142"><ele>-1.0</ele><time>2026-04-03T15:42:53Z</time></trkpt><trkpt lat="45.793907769398395" lon="13.490767170360773"><ele>-0.8</ele><time>2026-04-03T15:42:54Z</time></trkpt><trkpt lat="45.79389287564365" lon="13.490614315594554"><ele>-0.6000000000000001</ele><time>2026-04-03T15:42:55Z</time></trkpt><trkpt lat="45.7938782315781" lon="13.490460751262997"><ele>-0.4</ele><time>2026-04-03T15:42:56Z</time></trkpt><trkpt lat="45.79386471649113" lon="13.490313479839646"><ele>-0.2</ele><time>2026-04-03T15:42:57Z</time></trkpt><trkpt lat="45.79385107149651" lon="13.490164793006443"><ele>0.0</ele><time>2026-04-03T15:42:58Z</time></trkpt><trkpt lat="45.79383647927417" lon="13.490005784288483"><ele>0.0</ele><time>2026-04-03T15:42:59Z</time></trkpt><trkpt lat="45.79380703669118" lon="13.489847551921502"><ele>0.0</ele><time>2026-04-03T15:43:00Z</time></trkpt><trkpt lat="45.79380477732345" lon="13.489717720957525"><ele>0.0</ele><time>2026-04-03T15:43:01Z</time></trkpt><trkpt lat="45.79380523621582" lon="13.48961584859859"><ele>0.0</ele><time>2026-04-03T15:43:02Z</time></trkpt><trkpt lat="45.79380577801642" lon="13.489520574553787"><ele>0.0</ele><time>2026-04-03T15:43:03Z</time></trkpt><trkpt lat="45.793811745733414" lon="13.489410057988152"><ele>0.0</ele><time>2026-04-03T15:43:04Z</time></trkpt><trkpt lat="45.79383674448415" lon="13.48928368200662"><ele>0.6666666666666666</ele><time>2026-04-03T15:43:05Z</time></trkpt><trkpt lat="45.79390310480501" lon="13.489142590008724"><ele>1.3333333333333333</ele><time>2026-04-03T15:43:06Z</time></trkpt><trkpt lat="45.79397993009473" lon="13.488972997126094"><ele>2.0</ele><time>2026-04-03T15:43:07Z</time></trkpt><trkpt lat="45.79416188784949" lon="13.48888056805413"><ele>1.0</ele><time>2026-04-03T15:43:08Z</time></trkpt><trkpt lat="45.794362260275605" lon="13.488826121711666"><ele>0.0</ele><time>2026-04-03T15:43:09Z</time></trkpt><trkpt lat="45.794609948260835" lon="13.488801491977638"><ele>0.0</ele><time>2026-04-03T15:43:10Z</time></trkpt><trkpt lat="45.794874554007535" lon="13.488765531846772"><ele>0.0</ele><time>2026-04-03T15:43:11Z</time></trkpt><trkpt lat="45.79516423333562" lon="13.48870223846392"><ele>-0.5</ele><time>2026-04-03T15:43:12Z</time></trkpt><trkpt lat="45.79547413937056" lon="13.488638379892576"><ele>-1.0</ele><time>2026-04-03T15:43:13Z</time></trkpt><trkpt lat="45.79579490444001" lon="13.488580371155894"><ele>-1.5</ele><time>2026-04-03T15:43:14Z</time></trkpt><trkpt lat="45.79612717778071" lon="13.488534858539182"><ele>-2.0</ele><time>2026-04-03T15:43:15Z</time></trkpt><trkpt lat="45.796435307487" lon="13.488539512091819"><ele>-2.0</ele><time>2026-04-03T15:43:16Z</time></trkpt><trkpt lat="45.7967160909086" lon="13.488590334978412"><ele>-2.0</ele><time>2026-04-03T15:43:17Z</time></trkpt><trkpt lat="45.79697632656636" lon="13.48866110627322"><ele>-2.0</ele><time>2026-04-03T15:43:18Z</time></trkpt><trkpt lat="45.797219919322345" lon="13.488738058529334"><ele>-2.0</ele><time>2026-04-03T15:43:19Z</time></trkpt><trkpt lat="45.797449520705676" lon="13.488820062283768"><ele>-0.5</ele><time>2026-04-03T15:43:20Z</time></trkpt><trkpt lat="45.79766969050538" lon="13.488912298336423"><ele>1.0</ele><time>2026-04-03T15:43:21Z</time></trkpt><trkpt lat="45.79789996793858" lon="13.489004385321962"><ele>1.0</ele><time>2026-04-03T15:43:22Z</time></trkpt><trkpt lat="45.7981700635455" lon="13.489066599169583"><ele>1.0</ele><time>2026-04-03T15:43:23Z</time></trkpt><trkpt lat="45.79847256806769" lon="13.489112125781727"><ele>1.0</ele><time>2026-04-03T15:43:24Z</time></trkpt><trkpt lat="45.79878543875782" lon="13.489147577956723"><ele>1.0</ele><time>2026-04-03T15:43:25Z</time></trkpt><trkpt lat="45.79912119431623" lon="13.489165926992495"><ele>2.0</ele><time>2026-04-03T15:43:26Z</time></trkpt><trkpt lat="45.799465297507105" lon="13.489160278297028"><ele>3.0</ele><time>2026-04-03T15:43:27Z</time></trkpt><trkpt lat="45.79981336393896" lon="13.4890883809837"><ele>1.0</ele><time>2026-04-03T15:43:28Z</time></trkpt><trkpt lat="45.80016714881156" lon="13.488941140010104"><ele>-1.0</ele><time>2026-04-03T15:43:29Z</time></trkpt><trkpt lat="45.80052244255711" lon="13.488769802152586"><ele>-0.5</ele><time>2026-04-03T15:43:30Z</time></trkpt><trkpt lat="45.800881470696716" lon="13.488606459253926"><ele>0.0</ele><time>2026-04-03T15:43:31Z</time></trkpt><trkpt lat="45.80125192030605" lon="13.488451975921192"><ele>0.0</ele><time>2026-04-03T15:43:32Z</time></trkpt><trkpt lat="45.80163289499581" lon="13.488334630784765"><ele>0.0</ele><time>2026-04-03T15:43:33Z</time></trkpt><trkpt lat="45.80202679028302" lon="13.488261015926588"><ele>0.5</ele><time>2026-04-03T15:43:34Z</time></trkpt><trkpt lat="45.80242897582047" lon="13.48821984547097"><ele>1.0</ele><time>2026-04-03T15:43:35Z</time></trkpt><trkpt lat="45.80282845861625" lon="13.488205162005148"><ele>1.5</ele><time>2026-04-03T15:43:36Z</time></trkpt><trkpt lat="45.80319373451501" lon="13.488208239671428"><ele>2.0</ele><time>2026-04-03T15:43:37.001Z</time></trkpt><trkpt lat="45.803499328810545" lon="13.488209330007738"><ele>2.0</ele><time>2026-04-03T15:43:38.001Z</time></trkpt><trkpt lat="45.803758481715995" lon="13.48820801352525"><ele>2.0</ele><time>2026-04-03T15:43:39.001Z</time></trkpt><trkpt lat="45.804013615784456" lon="13.488198784967166"><ele>2.0</ele><time>2026-04-03T15:43:40.001Z</time></trkpt><trkpt lat="45.80423264195321" lon="13.488177893411432"><ele>2.0</ele><time>2026-04-03T15:43:41.001Z</time></trkpt><trkpt lat="45.80441194881042" lon="13.488162204981581"><ele>2.0</ele><time>2026-04-03T15:43:42.001Z</time></trkpt><trkpt lat="45.804568519741885" lon="13.488157693884705"><ele>2.0</ele><time>2026-04-03T15:43:43.001Z</time></trkpt><trkpt lat="45.80471112432959" lon="13.488156628984283"><ele>2.0</ele><time>2026-04-03T15:43:44.001Z</time></trkpt><trkpt lat="45.80484159454386" lon="13.488152291646099"><ele>2.0</ele><time>2026-04-03T15:43:45.001Z</time></trkpt><trkpt lat="45.80493890463463" lon="13.488153756178406"><ele>2.0</ele><time>2026-04-03T15:43:46.001Z</time></trkpt><trkpt lat="45.805003563923684" lon="13.488159355251867"><ele>2.0</ele><time>2026-04-03T15:43:47.001Z</time></trkpt><trkpt lat="45.805114100767334" lon="13.488189159500324"><ele>2.2</ele><time>2026-04-03T15:43:49.001Z</time></trkpt><trkpt lat="45.80518716640664" lon="13.488223067569978"><ele>2.4000000000000004</ele><time>2026-04-03T15:43:51Z</time></trkpt><trkpt lat="45.805270501391576" lon="13.488302356602528"><ele>2.5999999999999996</ele><time>2026-04-03T15:43:53Z</time></trkpt><trkpt lat="45.80534966056427" lon="13.488382644659886"><ele>2.8</ele><time>2026-04-03T15:43:54Z</time></trkpt><trkpt lat="45.80543648198508" lon="13.488434940989098"><ele>3.0</ele><time>2026-04-03T15:43:55Z</time></trkpt><trkpt lat="45.80552880674687" lon="13.488416119721315"><ele>3.0</ele><time>2026-04-03T15:43:56Z</time></trkpt><trkpt lat="45.80561074481494" lon="13.488338535546994"><ele>3.0</ele><time>2026-04-03T15:43:57Z</time></trkpt><trkpt lat="45.80567510142197" lon="13.488222725596163"><ele>3.0</ele><time>2026-04-03T15:43:58Z</time></trkpt><trkpt lat="45.805661790061194" lon="13.488049740319902"><ele>3.0</ele><time>2026-04-03T15:43:59Z</time></trkpt><trkpt lat="45.805611199706384" lon="13.487886598348721"><ele>3.0</ele><time>2026-04-03T15:44:00Z</time></trkpt><trkpt lat="45.80550931023065" lon="13.48771680099014"><ele>3.333333333333333</ele><time>2026-04-03T15:44:01Z</time></trkpt><trkpt lat="45.805376888593855" lon="13.487502883331956"><ele>3.6666666666666665</ele><time>2026-04-03T15:44:02Z</time></trkpt><trkpt lat="45.80522282640086" lon="13.48726939762222"><ele>4.0</ele><time>2026-04-03T15:44:03Z</time></trkpt><trkpt lat="45.805023831609226" lon="13.487030924453249"><ele>3.0</ele><time>2026-04-03T15:44:04Z</time></trkpt><trkpt lat="45.80482123334868" lon="13.486772600094577"><ele>2.0</ele><time>2026-04-03T15:44:05Z</time></trkpt><trkpt lat="45.80459752843198" lon="13.486516937558092"><ele>2.5</ele><time>2026-04-03T15:44:06Z</time></trkpt><trkpt lat="45.804359880554024" lon="13.48624533961327"><ele>3.0</ele><time>2026-04-03T15:44:07Z</time></trkpt><trkpt lat="45.804144420928225" lon="13.485998271514006"><ele>4.0</ele><time>2026-04-03T15:44:08Z</time></trkpt><trkpt lat="45.80394793787144" lon="13.48577141642277"><ele>5.0</ele><time>2026-04-03T15:44:09Z</time></trkpt><trkpt lat="45.80376246888223" lon="13.48556021836128"><ele>5.333333333333334</ele><time>2026-04-03T15:44:10Z</time></trkpt><trkpt lat="45.803579727746765" lon="13.485379189876658"><ele>5.666666666666667</ele><time>2026-04-03T15:44:11Z</time></trkpt><trkpt lat="45.80344301453391" lon="13.48517438075467"><ele>6.0</ele><time>2026-04-03T15:44:12Z</time></trkpt><trkpt lat="45.80331623000837" lon="13.484996723953408"><ele>5.6</ele><time>2026-04-03T15:44:13Z</time></trkpt><trkpt lat="45.80321905956176" lon="13.484835470002118"><ele>5.199999999999999</ele><time>2026-04-03T15:44:14Z</time></trkpt><trkpt lat="45.80313959752458" lon="13.48471545108933"><ele>4.800000000000001</ele><time>2026-04-03T15:44:15Z</time></trkpt><trkpt lat="45.803092524285645" lon="13.484600256123047"><ele>4.4</ele><time>2026-04-03T15:44:16Z</time></trkpt><trkpt lat="45.80307443234181" lon="13.484503014512114"><ele>4.0</ele><time>2026-04-03T15:44:17Z</time></trkpt><trkpt lat="45.80288815509351" lon="13.484551312378787"><ele>3.9999999999999996</ele><time>2026-04-03T15:44:20Z</time></trkpt><trkpt lat="45.80283263553801" lon="13.484605147900941"><ele>4.0</ele><time>2026-04-03T15:44:23Z</time></trkpt><trkpt lat="45.80278380627738" lon="13.48468920424304"><ele>4.0</ele><time>2026-04-03T15:44:26Z</time></trkpt><trkpt lat="45.80271961833165" lon="13.484830317592671"><ele>4.0</ele><time>2026-04-03T15:44:28Z</time></trkpt><trkpt lat="45.80269654481228" lon="13.484933918186412"><ele>3.9999999999999996</ele><time>2026-04-03T15:44:30Z</time></trkpt><trkpt lat="45.80274896061167" lon="13.485016079113542"><ele>4.0</ele><time>2026-04-03T15:44:44Z</time></trkpt><trkpt lat="45.802797424548416" lon="13.485099815129729"><ele>3.9999999999999996</ele><time>2026-04-03T15:44:45Z</time></trkpt><trkpt lat="45.802861036490356" lon="13.48510127254145"><ele>4.0</ele><time>2026-04-03T15:44:46Z</time></trkpt><trkpt lat="45.80294028496626" lon="13.485106663066846"><ele>4.0</ele><time>2026-04-03T15:44:48Z</time></trkpt><trkpt lat="45.803058698375345" lon="13.485093428138281"><ele>4.0</ele><time>2026-04-03T15:44:53Z</time></trkpt><trkpt lat="45.803157907953256" lon="13.485072615902071"><ele>3.9999999999999996</ele><time>2026-04-03T15:44:54Z</time></trkpt><trkpt lat="45.80323466380988" lon="13.485079403215419"><ele>4.0</ele><time>2026-04-03T15:44:55Z</time></trkpt><trkpt lat="45.80333844783464" lon="13.4850336439625"><ele>4.0</ele><time>2026-04-03T15:44:57Z</time></trkpt><trkpt lat="45.8034536783383" lon="13.48525438562907"><ele>4.0</ele><time>2026-04-03T15:44:58Z</time></trkpt><trkpt lat="45.80356918091176" lon="13.485428968123916"><ele>4.0</ele><time>2026-04-03T15:44:59Z</time></trkpt><trkpt lat="45.80371717520049" lon="13.485601979319101"><ele>4.5</ele><time>2026-04-03T15:45:00Z</time></trkpt><trkpt lat="45.80389751382873" lon="13.485800330669793"><ele>5.0</ele><time>2026-04-03T15:45:01Z</time></trkpt><trkpt lat="45.804112371529115" lon="13.486037342454694"><ele>3.5</ele><time>2026-04-03T15:45:02Z</time></trkpt><trkpt lat="45.804338166051956" lon="13.486292690451137"><ele>2.0</ele><time>2026-04-03T15:45:03Z</time></trkpt><trkpt lat="45.804555582285055" lon="13.48654667506868"><ele>2.0</ele><time>2026-04-03T15:45:04Z</time></trkpt><trkpt lat="45.80473644112507" lon="13.486753530253845"><ele>2.0</ele><time>2026-04-03T15:45:05Z</time></trkpt><trkpt lat="45.80487115013589" lon="13.48690817057911"><ele>2.0</ele><time>2026-04-03T15:45:06Z</time></trkpt><trkpt lat="45.8049791753737" lon="13.48703477710171"><ele>2.0</ele><time>2026-04-03T15:45:07Z</time></trkpt><trkpt lat="45.80507813000246" lon="13.487149432416631"><ele>2.0</ele><time>2026-04-03T15:45:08Z</time></trkpt><trkpt lat="45.80517127463463" lon="13.487266059562666"><ele>2.0</ele><time>2026-04-03T15:45:09Z</time></trkpt><trkpt lat="45.80525113240315" lon="13.487379350441335"><ele>2.0</ele><time>2026-04-03T15:45:10Z</time></trkpt><trkpt lat="45.80530809371179" lon="13.487483113409521"><ele>2.1666666666666665</ele><time>2026-04-03T15:45:11Z</time></trkpt><trkpt lat="45.805337257917095" lon="13.487569906813821"><ele>2.333333333333333</ele><time>2026-04-03T15:45:12Z</time></trkpt><trkpt lat="45.80534677060945" lon="13.487730280158155"><ele>2.5</ele><time>2026-04-03T15:45:14Z</time></trkpt><trkpt lat="45.80532525685801" lon="13.487817129215053"><ele>2.6666666666666665</ele><time>2026-04-03T15:45:15Z</time></trkpt><trkpt lat="45.80530225639535" lon="13.487923446411317"><ele>2.8333333333333335</ele><time>2026-04-03T15:45:16Z</time></trkpt><trkpt lat="45.80524091595421" lon="13.48800925171411"><ele>3.0</ele><time>2026-04-03T15:45:17Z</time></trkpt><trkpt lat="45.80522725103876" lon="13.488108313988597"><ele>3.0</ele><time>2026-04-03T15:45:18Z</time></trkpt><trkpt lat="45.805257151140786" lon="13.48828791781976"><ele>3.0</ele><time>2026-04-03T15:45:20Z</time></trkpt><trkpt lat="45.805300935207555" lon="13.488373389326028"><ele>3.0</ele><time>2026-04-03T15:45:21Z</time></trkpt><trkpt lat="45.805353958374646" lon="13.488436037685707"><ele>3.0</ele><time>2026-04-03T15:45:22Z</time></trkpt><trkpt lat="45.80540191285568" lon="13.488510463965895"><ele>3.0</ele><time>2026-04-03T15:45:23Z</time></trkpt><trkpt lat="45.805444371899256" lon="13.488598108457309"><ele>3.0</ele><time>2026-04-03T15:45:24Z</time></trkpt><trkpt lat="45.80546864411262" lon="13.48869478541173"><ele>3.0</ele><time>2026-04-03T15:45:25Z</time></trkpt><trkpt lat="45.80547988326624" lon="13.488800892355258"><ele>3.0</ele><time>2026-04-03T15:45:26Z</time></trkpt><trkpt lat="45.80549467403768" lon="13.488920793401363"><ele>3.0</ele><time>2026-04-03T15:45:27Z</time></trkpt><trkpt lat="45.80550832075217" lon="13.489043712696766"><ele>3.0</ele><time>2026-04-03T15:45:28Z</time></trkpt><trkpt lat="45.8055201540749" lon="13.4891736231405"><ele>3.0</ele><time>2026-04-03T15:45:29Z</time></trkpt><trkpt lat="45.80553175148094" lon="13.489308544926986"><ele>3.0</ele><time>2026-04-03T15:45:30Z</time></trkpt><trkpt lat="45.80554380717539" lon="13.489448277807949"><ele>3.2</ele><time>2026-04-03T15:45:31Z</time></trkpt><trkpt lat="45.80555746899415" lon="13.48960146193178"><ele>3.4</ele><time>2026-04-03T15:45:32Z</time></trkpt><trkpt lat="45.80557297044803" lon="13.48977702070007"><ele>3.6000000000000005</ele><time>2026-04-03T15:45:33Z</time></trkpt><trkpt lat="45.80558870322094" lon="13.489933188991976"><ele>3.8000000000000003</ele><time>2026-04-03T15:45:34Z</time></trkpt><trkpt lat="45.80560120034855" lon="13.490083766298135"><ele>4.0</ele><time>2026-04-03T15:45:35Z</time></trkpt><trkpt lat="45.80561552486756" lon="13.490238327874826"><ele>4.0</ele><time>2026-04-03T15:45:36Z</time></trkpt><trkpt lat="45.80563032546434" lon="13.490401190834161"><ele>4.0</ele><time>2026-04-03T15:45:37Z</time></trkpt><trkpt lat="45.80564440942834" lon="13.490549300813093"><ele>4.0</ele><time>2026-04-03T15:45:38Z</time></trkpt><trkpt lat="45.80565749686627" lon="13.490697399844882"><ele>4.0</ele><time>2026-04-03T15:45:39Z</time></trkpt><trkpt lat="45.805673491081905" lon="13.490844087712135"><ele>4.0</ele><time>2026-04-03T15:45:40Z</time></trkpt><trkpt lat="45.80569043018907" lon="13.490991459080378"><ele>3.8000000000000003</ele><time>2026-04-03T15:45:41Z</time></trkpt><trkpt lat="45.80570541336259" lon="13.491147196111571"><ele>3.6000000000000005</ele><time>2026-04-03T15:45:42Z</time></trkpt><trkpt lat="45.80572276751551" lon="13.491305584572626"><ele>3.4</ele><time>2026-04-03T15:45:43.001Z</time></trkpt><trkpt lat="45.80573777959192" lon="13.491444467371322"><ele>3.2</ele><time>2026-04-03T15:45:44.001Z</time></trkpt><trkpt lat="45.80575230119197" lon="13.491584075337341"><ele>3.0</ele><time>2026-04-03T15:45:45.001Z</time></trkpt><trkpt lat="45.80576769908495" lon="13.491708772544358"><ele>3.0</ele><time>2026-04-03T15:45:46.001Z</time></trkpt><trkpt lat="45.805780526610526" lon="13.49181378230509"><ele>3.0</ele><time>2026-04-03T15:45:47.001Z</time></trkpt><trkpt lat="45.805790537992195" lon="13.491903233286017"><ele>3.0</ele><time>2026-04-03T15:45:48Z</time></trkpt><trkpt lat="45.80580420443294" lon="13.49201704946701"><ele>3.0</ele><time>2026-04-03T15:45:50Z</time></trkpt><trkpt lat="45.80581016347135" lon="13.492120377526813"><ele>3.0</ele><time>2026-04-03T15:45:55Z</time></trkpt><trkpt lat="45.80581894522125" lon="13.492212831597092"><ele>3.0</ele><time>2026-04-03T15:45:57Z</time></trkpt><trkpt lat="45.80583752471675" lon="13.49236184676532"><ele>3.1666666666666665</ele><time>2026-04-03T15:45:59Z</time></trkpt><trkpt lat="45.80584638101922" lon="13.492463677701984"><ele>3.333333333333333</ele><time>2026-04-03T15:46:00Z</time></trkpt><trkpt lat="45.80585726486589" lon="13.492567813171533"><ele>3.5</ele><time>2026-04-03T15:46:01Z</time></trkpt><trkpt lat="45.80587210346816" lon="13.492680239903844"><ele>3.6666666666666665</ele><time>2026-04-03T15:46:02Z</time></trkpt><trkpt lat="45.80588639657712" lon="13.492809699232549"><ele>3.833333333333333</ele><time>2026-04-03T15:46:03Z</time></trkpt><trkpt lat="45.80589893616092" lon="13.492942571096565"><ele>4.0</ele><time>2026-04-03T15:46:04Z</time></trkpt><trkpt lat="45.80591390153968" lon="13.493077278328888"><ele>4.0</ele><time>2026-04-03T15:46:05Z</time></trkpt><trkpt lat="45.805928286490165" lon="13.49321783792116"><ele>4.0</ele><time>2026-04-03T15:46:06Z</time></trkpt><trkpt lat="45.80594635107623" lon="13.493361083577811"><ele>4.0</ele><time>2026-04-03T15:46:07Z</time></trkpt><trkpt lat="45.80596486128216" lon="13.493506887341338"><ele>4.0</ele><time>2026-04-03T15:46:08Z</time></trkpt><trkpt lat="45.805980280864006" lon="13.49365642620874"><ele>4.0</ele><time>2026-04-03T15:46:09Z</time></trkpt><trkpt lat="45.80599691598956" lon="13.493811858980783"><ele>3.75</ele><time>2026-04-03T15:46:10Z</time></trkpt><trkpt lat="45.806013856762384" lon="13.493976844279118"><ele>3.5</ele><time>2026-04-03T15:46:11Z</time></trkpt><trkpt lat="45.80603138365768" lon="13.494140544664088"><ele>3.25</ele><time>2026-04-03T15:46:12Z</time></trkpt><trkpt lat="45.80605130395586" lon="13.494303771049786"><ele>3.0</ele><time>2026-04-03T15:46:13Z</time></trkpt><trkpt lat="45.80606355743846" lon="13.494471570218236"><ele>3.0</ele><time>2026-04-03T15:46:14Z</time></trkpt><trkpt lat="45.80605407861085" lon="13.494629745470734"><ele>3.0</ele><time>2026-04-03T15:46:15Z</time></trkpt><trkpt lat="45.80603677571891" lon="13.49479131875871"><ele>3.0</ele><time>2026-04-03T15:46:16Z</time></trkpt><trkpt lat="45.80601082629455" lon="13.49496024178822"><ele>3.0</ele><time>2026-04-03T15:46:17Z</time></trkpt><trkpt lat="45.80597644966946" lon="13.495126241094034"><ele>3.5</ele><time>2026-04-03T15:46:18Z</time></trkpt><trkpt lat="45.80593009597729" lon="13.495277139466907"><ele>4.0</ele><time>2026-04-03T15:46:19Z</time></trkpt><trkpt lat="45.80587851980941" lon="13.495424374307822"><ele>4.5</ele><time>2026-04-03T15:46:20Z</time></trkpt><trkpt lat="45.80582447020858" lon="13.495564588788769"><ele>5.0</ele><time>2026-04-03T15:46:21Z</time></trkpt><trkpt lat="45.80576900699889" lon="13.49570423070581"><ele>5.0</ele><time>2026-04-03T15:46:22Z</time></trkpt><trkpt lat="45.805712414301006" lon="13.495844175636533"><ele>5.0</ele><time>2026-04-03T15:46:23Z</time></trkpt><trkpt lat="45.805654895427836" lon="13.495985193225449"><ele>5.0</ele><time>2026-04-03T15:46:24Z</time></trkpt><trkpt lat="45.80559649051162" lon="13.496128108906921"><ele>5.0</ele><time>2026-04-03T15:46:25Z</time></trkpt><trkpt lat="45.80553880140551" lon="13.496272085857136"><ele>5.0</ele><time>2026-04-03T15:46:26Z</time></trkpt><trkpt lat="45.805480869105544" lon="13.496419145897796"><ele>5.0</ele><time>2026-04-03T15:46:27Z</time></trkpt><trkpt lat="45.805421312439094" lon="13.496572923604859"><ele>5.0</ele><time>2026-04-03T15:46:28Z</time></trkpt><trkpt lat="45.80536027798229" lon="13.496728036506328"><ele>5.0</ele><time>2026-04-03T15:46:29Z</time></trkpt><trkpt lat="45.805296231872056" lon="13.496879953634421"><ele>5.0</ele><time>2026-04-03T15:46:30Z</time></trkpt><trkpt lat="45.80523880876373" lon="13.497027716548168"><ele>5.0</ele><time>2026-04-03T15:46:31Z</time></trkpt><trkpt lat="45.805181893621" lon="13.497164195448573"><ele>5.0</ele><time>2026-04-03T15:46:32Z</time></trkpt><trkpt lat="45.8051207375908" lon="13.49730667573554"><ele>5.0</ele><time>2026-04-03T15:46:33Z</time></trkpt><trkpt lat="45.80504894156618" lon="13.497448160735697"><ele>5.0</ele><time>2026-04-03T15:46:34Z</time></trkpt><trkpt lat="45.804978291724545" lon="13.497584723407945"><ele>5.0</ele><time>2026-04-03T15:46:35Z</time></trkpt><trkpt lat="45.80491334592259" lon="13.49771293450396"><ele>5.0</ele><time>2026-04-03T15:46:36Z</time></trkpt><trkpt lat="45.8048455217416" lon="13.497841679555663"><ele>5.0</ele><time>2026-04-03T15:46:37Z</time></trkpt><trkpt lat="45.80477732783692" lon="13.49797617197192"><ele>4.8</ele><time>2026-04-03T15:46:38Z</time></trkpt><trkpt lat="45.804707287276976" lon="13.4981157156492"><ele>4.6</ele><time>2026-04-03T15:46:39Z</time></trkpt><trkpt lat="45.80463947987194" lon="13.498250591565096"><ele>4.4</ele><time>2026-04-03T15:46:40Z</time></trkpt><trkpt lat="45.80457587226086" lon="13.498375527724729"><ele>4.2</ele><time>2026-04-03T15:46:41Z</time></trkpt><trkpt lat="45.80451659871952" lon="13.498492710109284"><ele>4.0</ele><time>2026-04-03T15:46:42Z</time></trkpt><trkpt lat="45.80446089182732" lon="13.498608597536643"><ele>4.0</ele><time>2026-04-03T15:46:43Z</time></trkpt><trkpt lat="45.804400596065726" lon="13.498727672377813"><ele>4.0</ele><time>2026-04-03T15:46:44Z</time></trkpt><trkpt lat="45.804342028394615" lon="13.498848999332496"><ele>4.0</ele><time>2026-04-03T15:46:45Z</time></trkpt><trkpt lat="45.80428755950022" lon="13.498970560316097"><ele>4.0</ele><time>2026-04-03T15:46:46Z</time></trkpt><trkpt lat="45.804240009604435" lon="13.499088380155541"><ele>4.0</ele><time>2026-04-03T15:46:47Z</time></trkpt><trkpt lat="45.804195456038734" lon="13.499216952713448"><ele>3.8000000000000003</ele><time>2026-04-03T15:46:48Z</time></trkpt><trkpt lat="45.804154819753435" lon="13.499351525317048"><ele>3.6000000000000005</ele><time>2026-04-03T15:46:49Z</time></trkpt><trkpt lat="45.80411658637202" lon="13.499490010223289"><ele>3.4</ele><time>2026-04-03T15:46:50Z</time></trkpt><trkpt lat="45.804086002925956" lon="13.499630833910073"><ele>3.2</ele><time>2026-04-03T15:46:51Z</time></trkpt><trkpt lat="45.80406337610771" lon="13.499779445268455"><ele>3.0</ele><time>2026-04-03T15:46:52Z</time></trkpt><trkpt lat="45.80404539054838" lon="13.49993505681895"><ele>3.0</ele><time>2026-04-03T15:46:53Z</time></trkpt><trkpt lat="45.804012887177294" lon="13.500125773424752"><ele>3.0</ele><time>2026-04-03T15:46:54Z</time></trkpt><trkpt lat="45.80401092578427" lon="13.500325351194729"><ele>3.0</ele><time>2026-04-03T15:46:55Z</time></trkpt><trkpt lat="45.80400039211868" lon="13.500500130807492"><ele>3.0</ele><time>2026-04-03T15:46:56Z</time></trkpt><trkpt lat="45.804010098989544" lon="13.500647896955728"><ele>3.0</ele><time>2026-04-03T15:46:57Z</time></trkpt><trkpt lat="45.8040197623531" lon="13.500746207518327"><ele>3.0</ele><time>2026-04-03T15:46:58Z</time></trkpt><trkpt lat="45.80402603384267" lon="13.500868897225805"><ele>3.0</ele><time>2026-04-03T15:47:00Z</time></trkpt><trkpt lat="45.804002951550984" lon="13.50103314598885"><ele>3.0</ele><time>2026-04-03T15:47:02Z</time></trkpt><trkpt lat="45.804050134482964" lon="13.50122925071767"><ele>3.0</ele><time>2026-04-03T15:47:03Z</time></trkpt><trkpt lat="45.804094357115765" lon="13.50140614671406"><ele>3.25</ele><time>2026-04-03T15:47:04Z</time></trkpt><trkpt lat="45.80413743028024" lon="13.501582252284631"><ele>3.5</ele><time>2026-04-03T15:47:05Z</time></trkpt><trkpt lat="45.80417881712276" lon="13.501766746961488"><ele>3.75</ele><time>2026-04-03T15:47:06Z</time></trkpt><trkpt lat="45.80422537587869" lon="13.501953460649519"><ele>4.0</ele><time>2026-04-03T15:47:07Z</time></trkpt><trkpt lat="45.80431414407785" lon="13.50210293588466"><ele>4.5</ele><time>2026-04-03T15:47:08Z</time></trkpt><trkpt lat="45.804394028149304" lon="13.502265690151209"><ele>5.0</ele><time>2026-04-03T15:47:09Z</time></trkpt><trkpt lat="45.80447413122251" lon="13.502430399649421"><ele>5.5</ele><time>2026-04-03T15:47:10Z</time></trkpt><trkpt lat="45.804553517774295" lon="13.50259553992296"><ele>6.0</ele><time>2026-04-03T15:47:11Z</time></trkpt><trkpt lat="45.80463238324974" lon="13.5027607342457"><ele>5.75</ele><time>2026-04-03T15:47:12Z</time></trkpt><trkpt lat="45.80470481495709" lon="13.502917084973099"><ele>5.5</ele><time>2026-04-03T15:47:13Z</time></trkpt><trkpt lat="45.80476988331461" lon="13.503051835871048"><ele>5.25</ele><time>2026-04-03T15:47:14Z</time></trkpt><trkpt lat="45.80483138839087" lon="13.50317961304302"><ele>5.0</ele><time>2026-04-03T15:47:15Z</time></trkpt><trkpt lat="45.8048944564034" lon="13.503313644019189"><ele>5.0</ele><time>2026-04-03T15:47:16Z</time></trkpt><trkpt lat="45.80495846287846" lon="13.503449782644536"><ele>5.0</ele><time>2026-04-03T15:47:17Z</time></trkpt><trkpt lat="45.8050229997096" lon="13.503585360234828"><ele>5.0</ele><time>2026-04-03T15:47:18Z</time></trkpt><trkpt lat="45.80508998147054" lon="13.503721480954077"><ele>5.0</ele><time>2026-04-03T15:47:19Z</time></trkpt><trkpt lat="45.80515606316606" lon="13.503855947356952"><ele>5.0</ele><time>2026-04-03T15:47:20Z</time></trkpt><trkpt lat="45.805221726399665" lon="13.503991732842145"><ele>5.0</ele><time>2026-04-03T15:47:21Z</time></trkpt><trkpt lat="45.80528459658982" lon="13.504128231221747"><ele>5.0</ele><time>2026-04-03T15:47:22Z</time></trkpt><trkpt lat="45.80535188072723" lon="13.50426155970862"><ele>5.0</ele><time>2026-04-03T15:47:23Z</time></trkpt><trkpt lat="45.80541801797965" lon="13.504397750578825"><ele>5.0</ele><time>2026-04-03T15:47:24Z</time></trkpt><trkpt lat="45.80547439578813" lon="13.504543365665699"><ele>5.0</ele><time>2026-04-03T15:47:25Z</time></trkpt><trkpt lat="45.805541620855195" lon="13.504683204792574"><ele>5.0</ele><time>2026-04-03T15:47:26Z</time></trkpt><trkpt lat="45.80559681047856" lon="13.50483459694352"><ele>5.0</ele><time>2026-04-03T15:47:27Z</time></trkpt><trkpt lat="45.805633889176235" lon="13.504978326787441"><ele>4.8</ele><time>2026-04-03T15:47:28Z</time></trkpt><trkpt lat="45.80566885927368" lon="13.505107500707789"><ele>4.6</ele><time>2026-04-03T15:47:29Z</time></trkpt><trkpt lat="45.80570507473606" lon="13.505217983428281"><ele>4.4</ele><time>2026-04-03T15:47:30Z</time></trkpt><trkpt lat="45.80573385128075" lon="13.505333989262246"><ele>4.2</ele><time>2026-04-03T15:47:31Z</time></trkpt><trkpt lat="45.80574303727047" lon="13.505483940480888"><ele>4.0</ele><time>2026-04-03T15:47:32Z</time></trkpt><trkpt lat="45.805747892553974" lon="13.505619432303728"><ele>3.9999999999999996</ele><time>2026-04-03T15:47:33Z</time></trkpt><trkpt lat="45.805785115813" lon="13.505720228207698"><ele>4.0</ele><time>2026-04-03T15:47:34Z</time></trkpt><trkpt lat="45.80584736628134" lon="13.505767999153527"><ele>4.0</ele><time>2026-04-03T15:47:35Z</time></trkpt><trkpt lat="45.80591398601088" lon="13.505766230841175"><ele>4.0</ele><time>2026-04-03T15:47:36Z</time></trkpt><trkpt lat="45.806006183949094" lon="13.505695490103985"><ele>3.9999999999999996</ele><time>2026-04-03T15:47:38Z</time></trkpt><trkpt lat="45.80606073579987" lon="13.50563972451421"><ele>4.0</ele><time>2026-04-03T15:47:41Z</time></trkpt><trkpt lat="45.80614305119952" lon="13.505593428305358"><ele>5.0</ele><time>2026-04-03T15:47:44Z</time></trkpt><trkpt lat="45.8061991222897" lon="13.50563849739325"><ele>5.0</ele><time>2026-04-03T15:47:47Z</time></trkpt><trkpt lat="45.80613409606184" lon="13.505634342853993"><ele>5.0</ele><time>2026-04-03T15:48:49Z</time></trkpt><trkpt lat="45.80607054175868" lon="13.505643572232952"><ele>5.0</ele><time>2026-04-03T15:48:57Z</time></trkpt><trkpt lat="45.80604575276032" lon="13.505796727870019"><ele>5.0</ele><time>2026-04-03T15:49:05Z</time></trkpt><trkpt lat="45.80599712285077" lon="13.505856062156642"><ele>5.0</ele><time>2026-04-03T15:49:15Z</time></trkpt></trkseg></trk></gpx>